[[{"header":{"parameterUnit":"m.s-1","parameterCategory":1,"la1":30.6,"la2":29.2853,"lo1":-89.7004,"lo2":-87.6739,"dy":0.0162,"dx":0.0183,"nx":112,"ny":82,"refTime":"2026-03-04T00:00:00:Z","depth":0,"parameterNumber":2,"parameterNumberName":"U-component_of_WINDS"},"data":[0.0,0.0,0.0,0.0,0.0,0.0,0.0,0.0,0.0,0.0,0.0,0.0,0.0,0.0,0.0,0.0,0.0,0.0,0.0,0.0,0.0,0.0,0.0,0.0,0.0,0.0,0.0,0.0,0.0,0.0,0.0,0.0,0.0,0.0,0.0,0.0,0.0,0.0,0.0,0.0,0.0,0.0,0.0,0.0,0.0,0.0,0.0,0.0,0.0,0.0,0.0,0.0,0.0,0.0,0.0,0.0,0.0,0.0,0.0,0.0,0.0,0.0,0.0,0.0,0.0,0.0,0.0,0.0,0.0,0.0,0.0,0.0,0.0,0.0,0.0,0.0,0.0,0.0,0.0,0.0,0.0,0.0,0.0,0.0,0.0,0.0,0.0,0.0,0.0,0.0,-3.9005,-3.8536,-3.9805,-4.0694,-4.07,-4.063,-3.9943,-3.8481,0.0,0.0,0.0,0.0,0.0,0.0,0.0,0.0,0.0,0.0,0.0,0.0,0.0,0.0,0.0,0.0,0.0,0.0,0.0,0.0,0.0,0.0,0.0,0.0,0.0,0.0,0.0,0.0,0.0,0.0,0.0,0.0,0.0,0.0,0.0,0.0,0.0,0.0,0.0,0.0,0.0,0.0,0.0,0.0,0.0,0.0,0.0,0.0,0.0,0.0,0.0,0.0,0.0,0.0,0.0,0.0,0.0,0.0,0.0,0.0,0.0,0.0,0.0,0.0,0.0,0.0,0.0,0.0,0.0,0.0,0.0,0.0,0.0,0.0,0.0,0.0,0.0,0.0,0.0,0.0,0.0,0.0,0.0,0.0,0.0,0.0,0.0,0.0,0.0,0.0,0.0,0.0,0.0,0.0,0.0,0.0,0.0,0.0,0.0,0.0,0.0,0.0,0.0,0.0,-3.8729,-4.0075,-4.0458,-4.0647,-4.0694,-4.0031,-3.9234,-3.8367,0.0,0.0,0.0,0.0,0.0,0.0,0.0,0.0,0.0,0.0,0.0,0.0,0.0,0.0,0.0,0.0,0.0,0.0,0.0,0.0,0.0,0.0,0.0,0.0,0.0,0.0,0.0,0.0,0.0,0.0,0.0,0.0,0.0,0.0,0.0,0.0,0.0,0.0,0.0,0.0,0.0,0.0,0.0,0.0,0.0,0.0,0.0,0.0,0.0,0.0,0.0,0.0,0.0,0.0,0.0,0.0,0.0,0.0,0.0,0.0,0.0,0.0,0.0,0.0,0.0,0.0,0.0,0.0,0.0,0.0,0.0,0.0,0.0,0.0,0.0,0.0,0.0,0.0,0.0,0.0,0.0,0.0,0.0,0.0,0.0,0.0,0.0,0.0,0.0,0.0,0.0,0.0,0.0,0.0,0.0,0.0,0.0,0.0,0.0,0.0,0.0,0.0,0.0,-3.8053,-3.8649,-4.0365,-4.0576,-4.0605,-4.0639,-4.0307,-3.9578,-3.8321,-3.8342,0.0,0.0,0.0,0.0,0.0,0.0,0.0,0.0,0.0,0.0,0.0,0.0,0.0,0.0,0.0,0.0,0.0,0.0,0.0,0.0,0.0,0.0,0.0,0.0,0.0,0.0,0.0,0.0,0.0,0.0,0.0,0.0,0.0,0.0,0.0,0.0,0.0,0.0,0.0,0.0,0.0,0.0,0.0,0.0,0.0,0.0,0.0,0.0,0.0,0.0,0.0,0.0,0.0,0.0,0.0,0.0,0.0,0.0,0.0,0.0,0.0,0.0,0.0,0.0,0.0,0.0,0.0,0.0,0.0,0.0,0.0,0.0,0.0,0.0,0.0,0.0,0.0,0.0,0.0,0.0,0.0,0.0,0.0,0.0,0.0,0.0,0.0,0.0,0.0,0.0,0.0,0.0,0.0,0.0,0.0,0.0,0.0,0.0,0.0,0.0,0.0,0.0,-3.8661,-3.9011,-4.0279,-4.0516,-4.058,-4.0607,-4.0465,-3.9754,-3.829,-3.8112,0.0,0.0,0.0,0.0,0.0,0.0,0.0,0.0,0.0,0.0,0.0,0.0,0.0,0.0,0.0,0.0,0.0,0.0,0.0,0.0,0.0,0.0,0.0,0.0,0.0,0.0,0.0,0.0,0.0,0.0,0.0,0.0,0.0,0.0,0.0,0.0,0.0,0.0,0.0,0.0,0.0,0.0,0.0,0.0,0.0,0.0,0.0,0.0,0.0,0.0,0.0,0.0,0.0,0.0,0.0,0.0,0.0,0.0,0.0,0.0,0.0,0.0,0.0,0.0,0.0,0.0,0.0,0.0,0.0,0.0,0.0,0.0,0.0,0.0,0.0,0.0,0.0,0.0,0.0,0.0,0.0,0.0,0.0,0.0,0.0,0.0,0.0,0.0,0.0,0.0,0.0,0.0,0.0,0.0,0.0,0.0,0.0,0.0,0.0,0.0,0.0,0.0,-3.8966,-4.009,-4.0204,-4.0381,-4.0531,-4.058,-3.9856,-3.9069,-3.8253,-3.7501,0.0,0.0,0.0,0.0,0.0,0.0,0.0,0.0,0.0,0.0,0.0,0.0,0.0,0.0,0.0,0.0,0.0,0.0,0.0,0.0,0.0,0.0,0.0,0.0,0.0,0.0,0.0,0.0,0.0,0.0,0.0,0.0,0.0,0.0,0.0,0.0,0.0,0.0,0.0,0.0,0.0,0.0,0.0,0.0,0.0,0.0,0.0,0.0,0.0,0.0,0.0,0.0,0.0,0.0,0.0,0.0,0.0,0.0,0.0,0.0,0.0,0.0,0.0,0.0,0.0,0.0,0.0,0.0,0.0,0.0,0.0,0.0,0.0,0.0,0.0,0.0,0.0,0.0,0.0,0.0,0.0,0.0,0.0,0.0,0.0,0.0,0.0,0.0,0.0,0.0,0.0,0.0,0.0,0.0,0.0,0.0,0.0,0.0,0.0,0.0,0.0,0.0,-3.841,-3.946,-4.0129,-4.0269,-4.0364,-4.0523,-3.9329,-3.8439,-3.817,0.0,0.0,0.0,0.0,0.0,0.0,0.0,0.0,0.0,0.0,0.0,0.0,0.0,0.0,0.0,0.0,0.0,0.0,0.0,0.0,0.0,0.0,0.0,0.0,0.0,0.0,0.0,0.0,0.0,0.0,0.0,0.0,0.0,0.0,0.0,0.0,0.0,0.0,0.0,0.0,0.0,0.0,0.0,0.0,0.0,0.0,0.0,0.0,0.0,0.0,0.0,0.0,0.0,0.0,0.0,0.0,0.0,0.0,0.0,0.0,0.0,0.0,0.0,0.0,0.0,0.0,0.0,0.0,0.0,0.0,0.0,0.0,0.0,0.0,0.0,0.0,0.0,0.0,0.0,0.0,0.0,0.0,0.0,0.0,0.0,0.0,0.0,0.0,0.0,0.0,0.0,0.0,0.0,0.0,0.0,0.0,0.0,0.0,0.0,0.0,0.0,0.0,-3.7009,-3.7931,-3.8872,-3.9875,-3.9585,-3.9365,-3.9497,-3.8082,-3.718,-3.7209,0.0,0.0,0.0,0.0,0.0,0.0,0.0,0.0,0.0,0.0,0.0,0.0,0.0,0.0,0.0,0.0,0.0,0.0,0.0,0.0,0.0,0.0,0.0,0.0,0.0,0.0,0.0,0.0,0.0,0.0,0.0,0.0,0.0,0.0,0.0,0.0,0.0,0.0,0.0,0.0,0.0,0.0,0.0,0.0,0.0,0.0,0.0,0.0,0.0,0.0,0.0,0.0,0.0,0.0,0.0,0.0,0.0,0.0,0.0,0.0,0.0,0.0,0.0,0.0,0.0,0.0,0.0,0.0,0.0,0.0,0.0,0.0,0.0,0.0,0.0,0.0,0.0,0.0,0.0,0.0,0.0,0.0,0.0,0.0,0.0,0.0,0.0,0.0,0.0,0.0,0.0,0.0,0.0,0.0,0.0,0.0,0.0,0.0,0.0,0.0,0.0,0.0,-3.6613,-3.7592,-3.8556,-3.9383,-3.8213,-3.7365,-3.7365,-3.6039,-3.5208,0.0,0.0,0.0,0.0,0.0,0.0,0.0,0.0,0.0,0.0,0.0,0.0,0.0,0.0,0.0,0.0,0.0,0.0,0.0,0.0,0.0,0.0,0.0,0.0,0.0,0.0,0.0,0.0,0.0,0.0,0.0,0.0,0.0,0.0,0.0,0.0,0.0,0.0,0.0,0.0,0.0,0.0,0.0,0.0,0.0,0.0,0.0,0.0,0.0,0.0,0.0,0.0,0.0,0.0,0.0,0.0,0.0,0.0,0.0,0.0,0.0,0.0,0.0,0.0,0.0,0.0,0.0,0.0,0.0,0.0,0.0,0.0,0.0,0.0,0.0,0.0,0.0,0.0,0.0,0.0,0.0,0.0,0.0,0.0,0.0,0.0,0.0,0.0,0.0,0.0,0.0,0.0,0.0,0.0,0.0,0.0,0.0,0.0,0.0,0.0,0.0,0.0,0.0,-3.5614,-3.5522,-3.5721,-3.6714,-3.5953,-3.5432,-3.5619,-3.4687,-3.4164,-3.437,0.0,0.0,0.0,0.0,0.0,0.0,0.0,0.0,0.0,0.0,0.0,0.0,0.0,0.0,0.0,0.0,0.0,0.0,0.0,0.0,0.0,0.0,0.0,0.0,0.0,0.0,0.0,0.0,0.0,0.0,0.0,0.0,0.0,0.0,0.0,0.0,0.0,0.0,0.0,0.0,0.0,0.0,0.0,0.0,0.0,0.0,0.0,0.0,0.0,0.0,0.0,0.0,0.0,0.0,0.0,0.0,0.0,0.0,0.0,0.0,0.0,0.0,0.0,0.0,0.0,0.0,0.0,0.0,0.0,0.0,0.0,0.0,0.0,0.0,0.0,0.0,0.0,0.0,0.0,0.0,0.0,0.0,0.0,0.0,0.0,0.0,0.0,0.0,0.0,0.0,0.0,0.0,0.0,0.0,0.0,0.0,0.0,0.0,0.0,0.0,0.0,0.0,-3.4666,-3.4141,-3.3994,-3.495,-3.4034,-3.3403,-3.3566,-3.3183,-3.2997,-3.3151,0.0,0.0,0.0,0.0,0.0,0.0,0.0,0.0,0.0,0.0,0.0,0.0,0.0,0.0,0.0,0.0,0.0,0.0,0.0,0.0,0.0,0.0,0.0,0.0,0.0,0.0,0.0,0.0,0.0,0.0,0.0,0.0,0.0,0.0,0.0,0.0,0.0,0.0,0.0,0.0,0.0,0.0,0.0,0.0,0.0,0.0,0.0,0.0,0.0,0.0,0.0,0.0,0.0,0.0,0.0,0.0,0.0,0.0,0.0,0.0,0.0,0.0,0.0,0.0,0.0,0.0,0.0,0.0,0.0,0.0,0.0,0.0,0.0,0.0,0.0,0.0,0.0,0.0,0.0,0.0,0.0,0.0,0.0,0.0,0.0,0.0,0.0,0.0,0.0,0.0,0.0,0.0,0.0,0.0,0.0,0.0,0.0,0.0,0.0,0.0,0.0,0.0,-3.3758,-3.3124,-3.2859,-3.3654,-3.2323,-3.1369,-3.1381,-3.1667,-3.1854,-3.1781,0.0,0.0,0.0,0.0,0.0,0.0,0.0,0.0,0.0,0.0,0.0,0.0,0.0,0.0,0.0,0.0,0.0,0.0,0.0,0.0,0.0,0.0,0.0,0.0,0.0,0.0,0.0,0.0,0.0,0.0,0.0,0.0,0.0,0.0,0.0,0.0,0.0,0.0,0.0,0.0,0.0,0.0,0.0,0.0,0.0,0.0,0.0,0.0,0.0,0.0,0.0,0.0,0.0,0.0,0.0,0.0,0.0,0.0,0.0,0.0,-3.7164,-3.795,0.0,0.0,0.0,0.0,0.0,0.0,0.0,0.0,0.0,0.0,0.0,0.0,0.0,0.0,0.0,0.0,0.0,0.0,0.0,0.0,0.0,0.0,0.0,0.0,0.0,0.0,0.0,0.0,0.0,0.0,0.0,0.0,0.0,0.0,0.0,0.0,0.0,0.0,0.0,0.0,-3.2797,-3.1146,-3.0171,-3.1021,-3.0229,-2.965,-2.9706,-3.0916,-3.1444,-3.091,-3.1771,0.0,0.0,0.0,0.0,0.0,0.0,0.0,0.0,0.0,0.0,0.0,0.0,0.0,0.0,0.0,0.0,0.0,0.0,0.0,0.0,0.0,0.0,0.0,0.0,0.0,0.0,0.0,0.0,0.0,0.0,0.0,0.0,0.0,0.0,0.0,0.0,0.0,0.0,0.0,0.0,0.0,0.0,0.0,0.0,0.0,0.0,0.0,0.0,0.0,0.0,0.0,0.0,0.0,0.0,0.0,0.0,0.0,0.0,0.0,-3.7314,-3.7506,0.0,0.0,0.0,0.0,0.0,0.0,0.0,0.0,0.0,0.0,0.0,0.0,0.0,0.0,0.0,0.0,0.0,0.0,0.0,0.0,0.0,0.0,0.0,0.0,0.0,0.0,0.0,0.0,0.0,0.0,0.0,0.0,0.0,0.0,0.0,0.0,0.0,0.0,0.0,0.0,-3.1447,-2.9847,-2.8728,-2.9178,-2.901,-2.8809,-2.8676,-3.0063,-3.0875,-3.0807,-3.1463,0.0,0.0,0.0,0.0,0.0,0.0,0.0,0.0,0.0,0.0,0.0,0.0,0.0,0.0,0.0,0.0,0.0,0.0,0.0,0.0,0.0,0.0,0.0,0.0,0.0,0.0,0.0,0.0,0.0,0.0,0.0,0.0,0.0,0.0,0.0,0.0,0.0,0.0,0.0,0.0,0.0,0.0,0.0,0.0,0.0,0.0,0.0,0.0,0.0,0.0,0.0,0.0,0.0,-3.8435,-3.8679,-3.8076,-3.9357,-3.9312,-3.8254,-3.7676,-3.7371,-3.7343,-3.7974,0.0,0.0,0.0,0.0,0.0,0.0,0.0,0.0,0.0,0.0,0.0,0.0,0.0,0.0,0.0,0.0,0.0,0.0,0.0,0.0,0.0,0.0,-2.9259,-2.9629,-2.9314,-2.9311,-3.0758,0.0,0.0,0.0,0.0,0.0,0.0,0.0,0.0,0.0,0.0,0.0,-3.0285,-2.9055,-2.8088,-2.8102,-2.8347,-2.8404,-2.8129,-2.9295,-3.0225,-3.0668,-3.1256,-3.1801,0.0,0.0,0.0,0.0,0.0,0.0,0.0,0.0,0.0,0.0,0.0,0.0,0.0,0.0,0.0,0.0,0.0,0.0,0.0,0.0,0.0,0.0,0.0,0.0,0.0,0.0,0.0,0.0,0.0,0.0,0.0,0.0,-3.6986,-3.5939,0.0,0.0,0.0,0.0,0.0,0.0,0.0,0.0,0.0,0.0,0.0,0.0,0.0,-3.5066,-3.581,-3.6513,-3.6854,-3.6854,-3.7064,-3.7092,-3.7007,-3.7212,-3.72,-3.7097,-3.8248,0.0,-3.8348,-3.7835,0.0,0.0,0.0,0.0,0.0,0.0,0.0,0.0,0.0,0.0,0.0,0.0,0.0,0.0,0.0,0.0,0.0,0.0,0.0,0.0,0.0,0.0,-2.8766,-2.7687,-2.7808,-2.822,-2.8509,-3.0078,-3.1233,-3.0513,-3.0834,-3.0958,0.0,0.0,0.0,0.0,0.0,0.0,-3.03,-2.8984,-2.8037,-2.8102,-2.8143,-2.8156,-2.8098,-2.8917,-2.9446,-2.9526,-3.0245,-3.0733,-3.0883,-3.0635,0.0,0.0,0.0,0.0,0.0,0.0,0.0,0.0,0.0,0.0,0.0,0.0,0.0,0.0,0.0,0.0,0.0,0.0,0.0,0.0,0.0,0.0,0.0,0.0,0.0,0.0,0.0,0.0,0.0,-3.6174,-3.6198,-3.5661,-3.5901,-3.5997,0.0,0.0,0.0,0.0,0.0,0.0,0.0,0.0,0.0,-3.407,-3.3703,-3.4018,-3.5144,-3.5111,-3.53,-3.5679,-3.582,-3.5893,-3.5852,-3.6307,-3.653,-3.6564,-3.7193,-3.7578,-3.7743,-3.7337,-3.7172,-3.7068,0.0,0.0,0.0,0.0,-3.4146,-3.2809,-3.3612,-3.3255,-3.2429,-3.2344,0.0,0.0,0.0,0.0,0.0,0.0,0.0,-2.9093,-2.844,-2.8049,-2.764,-2.6978,-2.7063,-2.7284,-2.7318,-2.8407,-2.9452,-2.964,-2.9655,-2.9652,-2.9721,-2.9653,0.0,0.0,0.0,-2.8592,-2.901,-2.8107,-2.7461,-2.7474,-2.7622,-2.7648,-2.7487,-2.8129,-2.8631,-2.8891,-2.9411,-3.0119,-3.1003,-3.0584,-3.0373,0.0,0.0,0.0,0.0,0.0,0.0,0.0,0.0,0.0,0.0,0.0,0.0,0.0,0.0,0.0,0.0,0.0,0.0,0.0,0.0,0.0,0.0,0.0,0.0,0.0,0.0,0.0,0.0,-3.5708,-3.5696,-3.5341,-3.5506,-3.5489,0.0,0.0,0.0,0.0,0.0,0.0,-3.2143,-3.2111,-3.2425,-3.3047,-3.2964,-3.3427,-3.4487,-3.4201,-3.4282,-3.4775,-3.4975,-3.5053,-3.5037,-3.5613,-3.5882,-3.5898,-3.6129,-3.6463,-3.6801,-3.6501,-3.6259,-3.5963,-3.4608,-3.4083,-3.412,-3.4294,-3.3413,-3.2199,-3.3125,-3.2781,-3.1854,-3.155,-3.1728,-3.1651,-2.9323,0.0,0.0,0.0,0.0,-2.745,-2.7485,-2.7114,-2.6674,-2.6573,-2.6539,-2.6522,-2.6419,-2.6941,-2.7704,-2.8713,-2.8681,-2.8665,-2.923,-2.8784,0.0,-2.923,-2.8135,-2.7452,-2.7998,-2.7435,-2.6992,-2.6991,-2.7165,-2.7213,-2.7007,-2.7415,-2.7822,-2.8164,-2.8592,-2.9363,-3.0506,-3.0352,-3.0406,-3.0758,0.0,0.0,0.0,0.0,0.0,0.0,0.0,0.0,0.0,0.0,0.0,0.0,0.0,0.0,0.0,0.0,0.0,0.0,0.0,0.0,0.0,0.0,0.0,0.0,0.0,0.0,0.0,0.0,0.0,-3.462,-3.5182,0.0,0.0,0.0,0.0,-3.3585,-3.356,-3.3518,-3.3486,-3.3512,-3.3528,-3.356,-3.356,-3.3592,-3.3672,-3.4322,-3.4675,-3.4707,-3.4707,-3.4733,-3.4733,-3.4765,-3.4781,-3.4829,-3.5658,-3.6028,-3.6011,-3.5227,-3.5195,-3.5492,-3.4024,-3.3029,-3.251,-3.3219,-3.2961,-3.2222,-3.1875,-3.1224,-3.0742,-3.1593,-3.1463,-3.0445,-2.7595,-2.6734,0.0,0.0,-2.6214,-2.5719,-2.61,-2.6156,-2.6139,-2.6123,-2.6123,-2.6016,-2.5652,-2.5975,-2.6668,-2.7687,-2.8468,-2.8996,-2.9104,0.0,-2.9053,-2.9104,-2.8458,-2.7964,-2.7998,-2.7351,-2.6926,-2.6991,-2.7007,-2.7007,-2.6991,-2.7024,-2.7057,-2.7075,-2.7741,-2.8186,-2.8254,-2.9641,-3.0052,-2.9315,-3.0231,0.0,0.0,0.0,0.0,0.0,0.0,0.0,0.0,0.0,0.0,0.0,0.0,0.0,0.0,0.0,0.0,0.0,0.0,0.0,0.0,0.0,0.0,0.0,0.0,0.0,0.0,0.0,0.0,-3.394,-3.4138,0.0,-3.3652,-3.3224,-3.2975,-3.2975,-3.2516,-3.2312,-3.2437,-3.2437,-3.2465,-3.2574,-3.2492,-3.2638,-3.3026,-3.29,-3.3036,-3.3424,-3.3104,-3.2958,-3.2958,-3.2958,-3.2958,-3.2958,-3.2823,-3.2985,-3.3203,-3.201,-3.2733,-3.4451,-3.2539,-3.1913,-3.2144,-3.2407,-3.2028,-3.138,-3.1204,-3.098,-3.0724,-3.0483,-2.9312,-2.7812,-2.6675,-2.6108,-2.5831,-2.5831,-2.5675,-2.554,-2.567,-2.5707,-2.5707,-2.5707,-2.5707,-2.567,-2.554,-2.5652,-2.5881,-2.6253,-2.6842,-2.7336,-2.7587,-2.7143,-2.696,-2.7531,-2.6912,-2.6394,-2.6394,-2.6393,-2.6384,-2.6419,-2.6641,-2.6808,-2.6808,-2.6808,-2.6808,-2.6808,-2.7046,-2.7403,-2.7895,-2.8931,-2.9576,-2.9778,-3.0162,-2.9878,0.0,0.0,0.0,0.0,0.0,0.0,0.0,0.0,0.0,0.0,0.0,0.0,0.0,0.0,0.0,0.0,0.0,0.0,0.0,0.0,0.0,0.0,0.0,0.0,0.0,-3.3486,-3.3398,-3.3224,-3.3187,-3.3075,-3.2915,-3.2489,-3.2231,-3.2231,-3.1768,-3.1568,-3.1698,-3.1698,-3.1756,-3.1826,-3.1756,-3.1894,-3.227,-3.1909,-3.1909,-3.227,-3.1965,-3.1705,-3.1492,-3.1492,-3.1386,-3.116,-3.0761,-3.0792,-3.1041,-2.9939,-3.0626,-3.2249,-3.0914,-3.0697,-3.114,-3.1163,-3.0856,-3.0384,-3.027,-3.0087,-2.9766,-2.876,-2.7458,-2.6157,-2.5617,-2.5221,-2.4922,-2.4922,-2.4981,-2.5098,-2.5234,-2.5275,-2.5294,-2.5294,-2.5294,-2.5256,-2.5121,-2.5198,-2.5256,-2.5121,-2.5612,-2.6107,-2.6325,-2.5867,-2.5702,-2.6268,-2.5867,-2.5503,-2.5503,-2.5726,-2.589,-2.589,-2.6139,-2.6298,-2.6298,-2.6419,-2.6436,-2.6298,-2.6774,-2.7162,-2.7346,-2.8659,-2.9527,-2.9864,-2.9864,-2.9322,-2.8224,0.0,0.0,0.0,0.0,0.0,0.0,0.0,0.0,0.0,0.0,0.0,0.0,0.0,0.0,0.0,0.0,0.0,0.0,0.0,0.0,0.0,0.0,0.0,-3.3235,-3.3337,-3.3108,-3.2447,-3.2428,-3.2198,-3.157,-3.1511,-3.1511,-3.1511,-3.1511,-3.1511,-3.1511,-3.1511,-3.1511,-3.1511,-3.1511,-3.1511,-3.1511,-3.1467,-3.1467,-3.1437,-3.1408,-3.1078,-3.0434,-3.0434,-3.0148,-2.9606,-2.9738,-2.9761,-2.9716,-2.9197,-2.895,-2.8976,-2.9257,-2.9361,-2.9361,-2.9496,-2.9473,-2.9293,-2.8982,-2.8479,-2.7765,-2.6604,-2.61,-2.572,-2.4407,-2.4019,-2.3982,-2.3982,-2.4103,-2.4291,-2.469,-2.4819,-2.4883,-2.4883,-2.4883,-2.4764,-2.4369,-2.4614,-2.4779,-2.4385,-2.4922,-2.5465,-2.5465,-2.5465,-2.5465,-2.5465,-2.5465,0.0,-2.5465,-2.5484,-2.5484,-2.5484,-2.5503,-2.5503,-2.5503,-2.5854,-2.5908,-2.5521,-2.691,-2.7348,-2.6503,-2.8743,-2.9794,-2.9397,-2.9347,-2.8401,-2.6529,0.0,0.0,0.0,0.0,0.0,0.0,0.0,0.0,0.0,0.0,0.0,0.0,0.0,0.0,0.0,0.0,0.0,0.0,0.0,0.0,0.0,-3.1302,-3.1824,-3.2007,-3.2033,-3.195,-3.1769,-3.1776,-3.1705,-3.1525,-3.1511,-3.1511,-3.1511,-3.1511,-3.1511,-3.1511,-3.1511,-3.1511,-3.1511,-3.1511,-3.1511,-3.1511,-3.1029,-3.0573,-3.0177,-2.9695,-2.9363,-2.9194,-2.9194,-2.9343,-2.9577,-2.9124,-2.894,-2.8895,-2.8231,-2.7971,-2.8006,-2.8281,-2.8374,-2.8389,-2.8422,-2.8414,-2.8389,-2.8284,-2.7826,-2.7209,-2.6765,-2.5954,-2.5032,-2.4574,-2.4167,-2.3861,-2.3861,-2.3961,-2.4088,-2.4297,-2.438,-2.4405,-2.4451,-2.4451,-2.4431,-2.4323,-2.4385,-2.4431,-2.4323,-2.4446,-2.4574,-2.4619,-2.4619,-2.4619,-2.4619,-2.4619,-2.4619,-2.4619,-2.4883,-2.5063,-2.5063,-2.5332,-2.5503,-2.5503,-2.5596,-2.5615,-2.5503,-2.5887,-2.602,-2.5775,-2.6918,-2.7994,-2.8955,-2.7907,-2.7371,0.0,0.0,0.0,0.0,0.0,0.0,0.0,0.0,0.0,0.0,0.0,0.0,0.0,0.0,0.0,0.0,0.0,0.0,0.0,0.0,0.0,0.0,-3.0792,-3.1127,-3.1427,-3.1485,-3.1511,-3.1511,-3.1511,-3.1511,-3.1511,-3.1511,-3.1511,-3.1511,-3.1511,-3.1511,-3.1511,-3.1511,-3.1511,-3.1511,-3.1219,-3.0954,-3.0746,-3.0073,-2.9445,-2.89,-2.8506,-2.818,-2.7909,-2.7909,-2.7933,-2.7988,-2.7608,-2.7568,-2.775,-2.7117,-2.7137,-2.7625,0.0,0.0,0.0,0.0,-2.788,-2.793,-2.793,-2.7246,-2.6406,-2.6398,-2.5432,-2.4289,-2.4193,-2.3968,-2.3717,-2.3717,-2.3818,-2.394,-2.4003,-2.4082,-2.4124,-2.4172,-2.4156,-2.4156,-2.4156,-2.4156,-2.4156,-2.4156,-2.413,0.0,-2.4172,-2.4213,-2.4255,-2.4255,-2.4276,-2.4302,-2.4302,-2.4513,-2.4639,-2.4639,-2.4863,-2.5001,-2.5001,-2.5141,0.0,0.0,0.0,-2.6085,-2.6374,-2.6539,0.0,0.0,0.0,0.0,0.0,0.0,0.0,0.0,-2.5934,-2.607,0.0,0.0,0.0,0.0,0.0,0.0,0.0,0.0,0.0,0.0,0.0,0.0,0.0,0.0,0.0,0.0,-3.0406,-3.0672,-3.1219,-3.1336,-3.1367,-3.1395,-3.138,-3.1351,-3.1278,-3.1278,-3.1307,-3.138,-3.138,-3.1409,-3.1511,-3.1511,0.0,0.0,0.0,-3.0147,-2.9581,-2.8862,-2.8182,-2.7608,-2.7521,-2.717,-2.661,-2.661,-2.6301,-2.5783,-2.5783,-2.6095,-2.6563,-2.6014,-2.6455,-2.7524,-2.7575,-2.76,-2.76,-2.76,-2.7675,-2.779,-2.779,0.0,0.0,-2.5755,-2.4845,-2.3699,-2.3625,-2.3595,-2.3595,-2.3595,-2.3696,-2.3782,-2.3797,-2.3882,-2.3982,-2.4003,-2.4003,-2.4003,-2.4003,-2.4003,-2.4003,-2.4003,-2.3982,-2.3982,-2.3982,-2.4103,-2.4166,-2.4166,-2.4234,-2.4276,-2.4276,-2.4276,-2.4276,-2.4276,-2.4276,0.0,-2.4276,-2.4599,-2.4639,-2.4281,-2.5548,-2.6575,-2.7162,-2.6687,-2.6433,-2.6511,-2.6433,-2.5935,-2.5006,-2.4893,-2.4863,-2.4869,-2.5069,-2.4977,0.0,0.0,0.0,0.0,0.0,0.0,0.0,0.0,0.0,0.0,0.0,0.0,0.0,0.0,0.0,-2.9676,-3.0474,-3.1003,-3.0626,-3.0584,-3.0642,-3.0687,-3.0673,-3.0494,-2.995,-2.9889,-3.0103,-3.0644,-3.0673,-3.0925,-3.1467,-3.1511,-3.1248,-3.0703,-3.0148,-2.9565,-2.8903,-2.7755,-2.6889,-2.6342,-2.5797,0.0,-2.5366,-2.5366,-2.5508,-2.5783,-2.5783,-2.5864,-2.5987,-2.5837,-2.6229,-2.6904,-2.7408,-2.76,-2.76,-2.76,-2.7625,-2.765,-2.765,-2.7115,-2.6318,-2.5803,-2.5076,-2.4306,-2.3759,-2.3595,0.0,-2.3595,-2.3616,-2.3674,-2.376,-2.3818,-2.3861,-2.3982,-2.4003,-2.4003,-2.4003,-2.4003,-2.4003,-2.4003,-2.3903,-2.3839,-2.3839,-2.3961,-2.4024,-2.4024,-2.4046,-2.4067,-2.4067,-2.4067,-2.4067,-2.4067,-2.4067,-2.4067,-2.4067,-2.4114,-2.4135,-2.4067,-2.4342,-2.4569,-2.4692,-2.4581,-2.4777,-2.5328,-2.4808,-2.4689,-2.5006,-2.4358,-2.4036,-2.4036,-2.471,-2.493,0.0,0.0,0.0,0.0,0.0,0.0,0.0,0.0,0.0,0.0,0.0,-2.9146,-2.9454,0.0,-2.9873,-3.0221,-3.0419,-3.0485,-3.0374,-3.0358,-3.0262,-3.0033,-3.0011,-2.9858,-2.9535,-2.9504,-2.9628,-2.9981,-3.0011,-3.0133,-3.0494,-3.0494,-3.0229,-2.9613,-2.9015,-2.8264,-2.7367,-2.6367,-2.5608,-2.5047,-2.4708,-2.4563,-2.4563,-2.4563,-2.4692,-2.495,-2.495,-2.5118,-2.5398,-2.5406,-2.5414,-2.5494,-2.6411,-2.71,-2.76,-2.76,-2.76,-2.76,-2.76,-2.6941,-2.6048,-2.5719,-2.4926,-2.4044,-2.3699,-2.3595,-2.3595,-2.3595,-2.3595,-2.3616,-2.3674,-2.3696,-2.3717,-2.3782,-2.3797,-2.3797,-2.3797,-2.3797,-2.3797,-2.3797,-2.3739,-2.3696,-2.3696,-2.376,-2.3818,-2.3882,-2.3961,-2.4003,-2.4003,-2.4003,-2.4003,-2.4003,-2.4003,-2.4003,-2.4003,-2.4003,-2.4003,-2.4003,-2.394,-2.3903,-2.3903,-2.3839,-2.3947,-2.4301,-2.3963,-2.3947,-2.4301,-2.3904,-2.3696,-2.3696,-2.4107,-2.4257,0.0,0.0,0.0,0.0,0.0,0.0,0.0,-2.9505,-2.9358,-2.8804,-2.8682,-2.8929,-2.9821,-2.9574,-2.9508,-3.0494,-3.0115,-2.9793,-2.9961,-2.9912,-2.9666,-2.914,-2.9205,-2.9254,-2.9111,-2.9111,-2.9174,-2.93,-2.93,-2.9348,-2.9473,-2.9406,-2.9094,-2.854,-2.7772,-2.6864,-2.5812,-2.5144,-2.457,-2.4083,-2.4083,-2.4083,-2.4083,-2.4083,-2.4083,-2.4083,-2.3995,-2.4189,-2.4634,-2.4663,-2.4374,-2.4067,-2.5389,-2.6453,-2.7294,-2.753,-2.76,-2.76,-2.76,-2.6821,-2.5779,-2.5644,-2.4792,-2.3774,-2.364,-2.3595,-2.3595,-2.3595,-2.3595,-2.3595,-2.3595,-2.3595,-2.3595,-2.3595,-2.3595,-2.3595,-2.3595,-2.3595,-2.3595,-2.3595,-2.3595,-2.3595,-2.3595,-2.3595,-2.3653,-2.3739,-2.3861,-2.3903,-2.3903,-2.3903,-2.3903,-2.3903,-2.3903,-2.3903,-2.3903,-2.3903,-2.3903,-2.3903,-2.3818,-2.376,-2.376,-2.3674,-2.3595,-2.3595,-2.3595,-2.3595,-2.3595,-2.3595,-2.3551,-2.3465,-2.3465,-2.3465,-3.1046,-3.0955,-3.0464,-2.9858,-2.9659,-2.9583,0.0,-2.9499,-2.9468,-2.9406,-2.9296,-2.9083,-2.8614,-2.9141,-2.9486,-2.9041,-2.9275,-2.9367,-2.8947,-2.8572,-2.8139,-2.7602,-2.8189,-2.8384,-2.7776,-2.7709,-2.7973,-2.8565,-2.8597,-2.8871,-2.9473,-2.9043,-2.8491,-2.7837,-2.6753,-2.5846,-2.5112,-2.4524,-2.4178,-2.4083,-2.4083,-2.4083,-2.4083,-2.4083,-2.4083,-2.4057,-2.3522,-2.3343,-2.3403,-2.3393,-2.3372,-2.3479,-2.5202,-2.5988,-2.622,-2.7225,-2.76,-2.76,-2.76,-2.7121,-2.6378,-2.5794,-2.5098,-2.438,-2.3789,-2.3595,-2.3595,-2.3595,-2.3595,-2.3595,-2.3595,-2.3595,-2.3595,-2.3595,-2.3595,-2.3595,-2.3595,-2.3595,-2.3595,-2.3595,-2.3595,-2.3595,-2.3595,-2.3595,-2.3595,-2.3616,-2.3653,-2.3653,-2.3653,-2.3653,-2.3653,-2.3653,-2.3653,-2.3653,-2.3653,-2.3653,-2.3653,-2.3653,-2.3616,-2.3616,-2.3616,-2.3595,-2.3595,-2.3595,-2.3595,-2.3595,-2.3595,-2.3595,-2.3399,-2.2979,-2.2979,-2.2979,-3.0101,-2.9917,-2.9376,-2.9473,-2.9205,-2.8935,-2.8935,-2.8935,-2.8807,-2.8422,-2.8274,-2.8231,-2.8191,-2.8399,-2.862,-2.871,-2.8809,-2.8722,-2.828,-2.8103,-2.7777,-2.7177,-2.7436,-2.7556,-2.7403,-2.7268,-2.7369,-2.7776,-2.7809,-2.7973,-2.8338,-2.7818,-2.7252,-2.6605,-2.5824,-2.512,-2.4478,-2.4243,-2.4083,-2.4083,-2.4083,-2.4083,-2.4083,-2.4083,-2.39,-2.3548,-2.33,-2.2804,-2.2204,-2.2207,-2.2193,-2.2324,-2.343,-2.4042,-2.454,-2.6396,-2.7306,-2.7489,-2.6745,-2.6273,-2.5914,-2.5232,-2.456,-2.3984,-2.3684,-2.3595,-2.3595,-2.3595,-2.3595,-2.3595,-2.3595,-2.3595,-2.3595,-2.3595,-2.3595,-2.3595,-2.3595,-2.3595,-2.3595,-2.3595,-2.3595,-2.3595,-2.3595,-2.3595,-2.3595,-2.3595,-2.3595,-2.3595,-2.3595,-2.3595,-2.3595,-2.3595,-2.3595,-2.3595,-2.3595,-2.3595,-2.3595,-2.3595,-2.3595,-2.3486,-2.3201,-2.3201,-2.3054,-2.2725,-2.2725,-2.2725,-2.2725,-2.2725,-2.2634,-2.2443,-2.2443,-2.2282,-2.8921,-2.8701,-2.8393,-2.8848,-2.8583,-2.8222,-2.8222,-2.8222,-2.8072,-2.7556,-2.7403,-2.7431,-2.7674,-2.7694,-2.7819,-2.8239,-2.8196,-2.8007,-2.7768,-2.7646,-2.7391,-2.696,-2.6909,-2.6977,-2.7134,-2.7045,-2.7079,-2.7268,-2.7235,-2.7204,-2.7202,-2.6674,-2.6101,-2.5509,-2.4997,-2.453,-2.4083,-2.4083,-2.4083,-2.4083,-2.4083,-2.4083,-2.4083,-2.3913,-2.3522,-2.296,-2.2791,-2.2242,-2.1498,-2.1342,-2.1276,-2.1367,-2.2111,-2.2626,-2.3205,-2.5055,-2.621,-2.6753,-2.5977,-2.5546,-2.5232,-2.4769,-2.4141,-2.3595,-2.3595,-2.3595,-2.3595,-2.3595,-2.3595,-2.3595,-2.3595,-2.3595,-2.3595,-2.3595,-2.3595,-2.3595,-2.3595,-2.3595,-2.3595,-2.3595,-2.3595,-2.3595,-2.3595,-2.3595,-2.3595,-2.3595,-2.3595,-2.3595,-2.3595,-2.3595,-2.3595,-2.3595,-2.3595,-2.3595,-2.3595,-2.3595,-2.3595,-2.3595,-2.3486,-2.3246,-2.2912,-2.2777,-2.2512,-2.2105,-2.2105,-2.2105,-2.2105,-2.2105,-2.2035,-2.1908,-2.1908,-2.166,-2.7749,-2.774,-2.7701,-2.7578,-2.7556,-2.7523,-2.7523,-2.7523,-2.749,-2.7335,-2.7146,-2.6943,-2.6786,-2.7056,-2.7316,-2.7341,-2.7341,-2.7341,-2.7316,-2.699,-2.6739,-2.6726,-2.6714,-2.6714,-2.6726,-2.6909,-2.7079,-2.7268,-2.7113,-2.6835,-2.644,-2.5871,-2.5301,-2.4732,-2.4337,-2.4109,-2.4083,-2.4083,-2.4083,-2.4083,-2.4083,-2.4083,-2.407,-2.3483,-2.2921,-2.24,-2.1825,-2.1525,-2.1472,-2.0936,-2.0725,-2.0828,-2.1949,-2.2419,-2.2501,-2.3087,-2.4013,-2.5053,-2.5531,-2.5228,-2.4634,-2.4619,-2.4141,-2.3595,-2.3595,-2.3595,-2.3595,-2.3595,-2.3595,-2.3595,-2.3595,-2.3595,-2.3595,-2.3595,-2.3595,-2.3595,-2.3595,-2.3595,-2.3595,-2.3595,-2.3595,-2.3595,-2.3595,-2.3595,-2.3595,-2.3595,-2.3595,-2.3595,-2.3595,-2.3595,-2.3595,-2.3595,-2.3595,-2.3595,-2.3595,-2.3595,-2.3595,-2.3595,-2.3179,-2.2912,-2.2889,-2.2397,-2.2128,-2.2105,-2.2105,-2.2105,-2.2105,-2.2105,-2.186,-2.1423,-2.1423,-2.118,-2.6271,-2.6828,-2.7374,-2.7196,-2.718,-2.718,-2.718,-2.718,-2.7043,-2.667,-2.6526,-2.6427,-2.6202,-2.6287,-2.6472,-2.6713,-2.6776,-2.6776,-2.6776,-2.6634,-2.6555,-2.6555,-2.6555,-2.6555,-2.6555,-2.6283,-2.6354,-2.7053,-2.6339,-2.6078,-2.6583,-2.5696,-2.5097,-2.4901,-2.4383,-2.4083,-2.4083,-2.4083,-2.4083,-2.4112,-2.3678,-2.3315,-2.2977,-2.2766,-2.2334,-2.1799,-2.1603,-2.1302,-2.0962,-2.0777,-2.0699,-2.075,-2.1134,-2.1276,-2.133,-2.1875,-2.2295,-2.2717,-2.3586,-2.4219,-2.453,-2.4066,-2.3789,-2.3595,-2.3595,-2.3595,-2.3595,-2.3595,-2.3595,-2.3595,-2.3595,-2.3595,-2.3595,-2.3595,-2.3595,-2.3595,-2.3595,-2.3595,-2.3595,-2.3595,-2.3595,-2.3595,-2.3595,-2.3595,-2.3595,-2.3595,-2.3595,-2.3595,-2.3595,-2.3595,-2.3595,-2.3595,-2.3595,-2.3595,-2.3595,-2.3312,-2.3135,-2.3135,-2.2649,-2.2235,-2.1921,-2.1732,-2.1506,-2.1191,-2.1166,-2.1166,-2.1166,-2.1166,-2.1106,-2.0947,-2.0947,-2.0848,-2.5495,-2.6168,-2.6876,-2.6973,-2.699,-2.699,-2.699,-2.699,-2.6824,-2.6228,-2.6266,-2.6276,-2.5881,-2.5987,-2.6207,-2.6471,-2.6499,-2.6499,-2.6499,-2.6499,-2.6499,-2.6499,-2.6499,-2.6499,-2.6499,-2.5774,-2.5681,-2.6632,-2.5959,-2.564,-2.5965,-2.5305,-2.4793,-2.4614,-2.4279,-2.4083,-2.4083,-2.3903,-2.3665,-2.3483,-2.3106,-2.2622,-2.2087,-2.2073,-2.1773,-2.1198,-2.1198,-2.1027,-2.0699,-2.0699,-2.0699,-2.0699,-2.0699,-2.0699,-2.0751,-2.1093,-2.1291,-2.1529,-2.2445,-2.3312,-2.3911,-2.3504,-2.3465,-2.3595,-2.3595,-2.3595,-2.3595,-2.3595,-2.3595,-2.3595,-2.3595,-2.3595,-2.3595,-2.3595,-2.3595,-2.3595,-2.3595,-2.3465,-2.3399,-2.3573,-2.3465,-2.3399,-2.3573,-2.3595,-2.3595,-2.3595,-2.3595,-2.3595,-2.3595,-2.3595,-2.3595,-2.3595,-2.3595,-2.3595,-2.3595,-2.3179,-2.2889,-2.2889,-2.2235,-2.1708,-2.1423,-2.1229,-2.1021,-2.0699,-2.0699,-2.0699,-2.0699,-2.0699,-2.0699,-2.0699,-2.0699,-2.0699,-2.5368,-2.5807,-2.6286,-2.6849,-2.6977,-2.6977,-2.6977,-2.6977,-2.6756,-2.6036,-2.6274,-2.6443,-2.5732,-2.6097,-2.6499,-2.6537,-2.6562,-2.6575,-2.6575,-2.6549,-2.6537,-2.6537,-2.6512,-2.6499,-2.6499,-2.5485,-2.5189,-2.5985,-2.5886,-2.5467,-2.4745,-2.4662,-2.4417,-2.3946,-2.4037,-2.4099,-2.4044,-2.3443,-2.2882,-2.2334,-2.2334,-2.2047,-2.1472,-2.1472,-2.1172,-2.0699,-2.0699,-2.0699,-2.0699,-2.0699,-2.0699,-2.0699,-2.0699,-2.0699,-2.0699,-2.0699,-2.0997,-2.1456,-2.2011,-2.2528,-2.2889,-2.2889,-2.3224,-2.3595,-2.3595,-2.3595,-2.3595,-2.3595,-2.3595,-2.3595,-2.3595,-2.3595,-2.3595,-2.3595,-2.3595,-2.3595,-2.3595,-2.3246,-2.3068,-2.3508,-2.3246,-2.3068,-2.3508,-2.3573,-2.3551,-2.3551,-2.3551,-2.3551,-2.3595,-2.3573,-2.3551,-2.3551,-2.353,-2.353,-2.353,-2.3076,-2.2822,-2.2822,-2.1898,-2.135,-2.135,-2.0947,-2.0699,-2.0699,-2.0699,-2.0699,-2.0699,-2.0699,-2.0699,-2.0699,-2.0699,-2.0699,-2.573,-2.6233,-2.657,-2.6598,-2.6636,-2.6636,-2.6636,-2.6636,-2.6438,-2.5824,-2.5778,-2.5829,-2.5624,-2.6097,-2.6625,-2.704,-2.7419,-2.7682,-2.7682,-2.7331,-2.7115,-2.7115,-2.6738,-2.6499,-2.6499,-2.5812,-2.535,-2.5293,-2.4506,-2.4241,-2.4693,-2.4318,-2.4105,-2.4037,-2.4083,-2.3874,-2.3417,-2.2869,-2.2322,-2.1734,-2.1734,-2.1433,-2.0896,-2.0896,-2.0818,-2.0699,-2.0699,-2.0699,-2.0699,-2.0699,-2.0699,-2.0699,-2.0699,-2.0699,-2.0699,-2.0699,-2.0774,-2.0886,-2.1045,-2.188,-2.2889,-2.2889,-2.3224,-2.3595,-2.3595,-2.3595,-2.3595,-2.3595,-2.3595,-2.3595,-2.3595,-2.3595,-2.3595,-2.3595,-2.3595,-2.3595,-2.3595,-2.3508,-2.3465,-2.3573,-2.3508,-2.3465,-2.3573,-2.3312,-2.3068,-2.3068,-2.274,-2.2748,-2.3508,-2.329,-2.3068,-2.3068,-2.2725,-2.2475,-2.2475,-2.2049,-2.1779,-2.1779,-2.1204,-2.0873,-2.0873,-2.0749,-2.0699,-2.0699,-2.0699,-2.0699,-2.0699,-2.0699,-2.0699,-2.0699,-2.0699,-2.0699,-2.6084,-2.6542,-2.6794,-2.6624,-2.6413,-2.6299,-2.6471,-2.6298,-2.6021,-2.5661,-2.5799,-2.59,-2.5636,-2.6298,-2.6952,-2.7231,-2.7745,-2.8021,-2.777,-2.7482,-2.7228,-2.6989,-2.6688,-2.6399,-2.6135,-2.5586,-2.5066,-2.4589,-2.4064,-2.3887,-2.4197,-2.3927,-2.3848,-2.4008,-2.369,-2.3158,-2.2369,-2.2111,-2.1721,-2.1158,-2.1158,-2.0988,-2.0699,-2.0699,-2.0699,-2.0699,-2.0699,-2.0699,-2.0699,-2.0699,-2.0699,-2.0699,-2.0699,-2.0699,-2.0699,-2.0699,-2.0699,-2.0699,-2.0699,-2.1516,-2.2558,-2.2558,-2.3031,-2.3595,-2.3595,-2.3595,-2.3595,-2.3595,-2.3595,-2.3595,-2.3595,-2.3595,-2.3595,-2.3595,-2.3595,-2.3595,-2.3595,-2.3443,-2.329,-2.329,-2.3465,-2.3595,-2.3595,-2.3224,-2.2889,-2.2889,-2.2443,-2.2314,-2.286,-2.2703,-2.2558,-2.2558,-2.2267,-2.2105,-2.2105,-2.166,-2.1399,-2.1399,-2.0972,-2.0699,-2.0699,-2.0699,-2.0699,-2.0699,-2.0699,-2.0699,-2.0699,-2.0699,-2.0699,-2.0699,-2.0637,-2.0612,-2.6485,-2.674,-2.6943,-2.6794,-2.6329,-2.6029,-2.6429,-2.608,-2.5644,-2.5699,-2.6147,-2.6336,-2.5799,-2.6578,-2.7306,-2.7381,-2.7858,-2.8047,-2.757,-2.7444,-2.7216,-2.6663,-2.6474,-2.6185,-2.5649,-2.5059,-2.4519,-2.4029,-2.404,-2.3898,-2.3595,-2.3569,-2.3632,-2.3745,-2.2984,-2.2174,-2.1328,-2.1329,-2.1146,-2.0699,-2.0699,-2.0699,-2.0699,-2.0699,-2.0699,-2.0699,-2.0699,-2.0699,-2.0699,-2.0699,-2.0699,-2.0699,-2.0699,-2.0699,-2.0699,-2.0699,-2.0699,-2.0699,-2.0699,-2.1275,-2.2011,-2.2081,-2.277,-2.3595,-2.3595,-2.3595,-2.3595,-2.3595,-2.3595,-2.3595,-2.3595,-2.3595,-2.3595,-2.3595,-2.3595,-2.3595,-2.3595,-2.329,-2.3001,-2.3001,-2.3268,-2.353,-2.3595,-2.3143,-2.2799,-2.2799,-2.2337,-2.1964,-2.1917,-2.1964,-2.2025,-2.2025,-2.1941,-2.1917,-2.1917,-2.1554,-2.1302,-2.1302,-2.0923,-2.0699,-2.0699,-2.0699,-2.0699,-2.0699,-2.0699,-2.0687,-2.0687,-2.0687,-2.0662,-2.0624,-2.0498,-2.0461,-2.6997,-2.7069,-2.699,-2.6943,-2.6509,-2.6161,-2.6553,-2.6249,0.0,-2.6282,-2.6424,-2.6461,-2.6361,-2.6876,-2.7431,-2.7896,-2.8423,-2.8712,-2.8624,-2.8247,-2.7758,-2.7241,-2.6314,-2.5699,-2.5598,-2.4707,-2.4104,-2.4004,-2.3552,-2.3341,-2.3433,-2.3433,-2.3306,-2.3007,-2.1939,-2.1351,-2.1315,-2.0875,-2.0678,-2.0699,-2.0699,-2.0699,-2.0699,-2.0699,-2.0699,-2.0699,-2.0699,-2.0699,-2.0699,-2.0699,-2.0699,-2.0699,-2.0699,-2.0699,-2.0699,-2.0699,-2.0699,-2.0699,-2.0699,-2.1057,-2.1602,-2.1964,-2.277,-2.3595,-2.3595,-2.3595,-2.3595,-2.3595,-2.3595,-2.3595,-2.3595,-2.3595,-2.3595,-2.3595,-2.3595,-2.3595,-2.3595,-2.353,-2.3486,-2.3486,-2.3224,-2.3135,-2.353,-2.2838,-2.2244,-2.2244,-2.1827,-2.1385,-2.0983,-2.1288,-2.153,-2.153,-2.1166,-2.0934,-2.0934,-2.0873,-2.0823,-2.0823,-2.0749,-2.0699,-2.0699,-2.0699,-2.0699,-2.0699,-2.0699,-2.0662,-2.0537,-2.0537,-2.0448,-2.0283,-2.0258,-2.0233,-2.7246,-2.7335,-2.7248,-2.718,-2.649,-2.6013,-2.6705,0.0,0.0,-2.6447,-2.6589,-2.6589,-2.6499,-2.6952,-2.7369,-2.7632,-2.8134,-2.8398,-2.8109,-2.7846,-2.7469,-2.6952,-2.6101,-2.5485,-2.5222,-2.4469,-2.3879,-2.3547,-2.2995,-2.274,-2.2812,-2.2622,-2.2261,-2.1731,-2.1373,-2.1042,-2.0733,-2.0641,-2.0637,-2.0699,-2.0699,-2.0699,-2.0699,-2.0699,-2.0699,-2.0699,-2.0699,-2.0699,-2.0699,-2.0699,-2.0699,-2.0699,-2.0699,-2.0699,-2.0699,-2.0699,-2.0699,-2.0699,-2.0699,-2.1021,-2.1447,-2.166,-2.242,-2.329,-2.353,-2.3595,-2.3595,-2.3595,-2.3421,-2.3246,-2.3246,-2.3246,-2.3246,-2.3246,-2.3421,-2.3595,-2.3595,-2.3595,-2.353,-2.329,-2.3046,-2.2889,-2.2815,-2.2235,-2.1732,-2.1732,-2.1337,-2.0947,-2.0724,-2.0898,-2.1033,-2.1033,-2.0823,-2.0699,-2.0699,-2.0699,-2.0699,-2.0699,-2.0699,-2.0699,-2.0699,-2.0637,-2.0612,-2.0612,-2.0498,-2.0423,-2.0347,-2.0347,-2.0296,-2.0207,-2.0131,-2.0105,-2.7372,-2.749,-2.7469,-2.7369,-2.657,-2.6058,-2.6881,-2.6282,0.0,-2.6578,-2.676,-2.6726,-2.6555,-2.6886,-2.7213,0.0,-2.7745,-2.7959,-2.7519,-2.7457,-2.7256,-2.6738,-2.5925,-2.5272,-2.4825,-2.4205,-2.3597,-2.3145,-2.2493,-2.2133,-2.2133,-2.1718,-2.1241,-2.0731,-2.087,-2.072,-2.0207,-2.0473,-2.0624,-2.0699,-2.0699,-2.0699,-2.0699,-2.0699,-2.0699,-2.0699,-2.0699,-2.0699,-2.0699,-2.0699,-2.0699,-2.0699,-2.0699,-2.0777,-2.0857,-2.0751,-2.0777,-2.0844,-2.0751,-2.0947,-2.1277,-2.1375,-2.1992,-2.2785,-2.3165,-2.3275,-2.3275,-2.3275,-2.3009,-2.2777,-2.2867,-2.2889,-2.2934,-2.3024,-2.3334,-2.3573,-2.3465,-2.3443,-2.3312,-2.2807,-2.2663,-2.2466,-2.2165,-2.1708,-2.1399,-2.1399,-2.1082,-2.0799,-2.0699,-2.0699,-2.0699,-2.0699,-2.0699,-2.0699,-2.0699,-2.0699,-2.0699,-2.0699,-2.0699,-2.0699,-2.0699,-2.0562,-2.0486,-2.0486,-2.0296,-2.0182,-2.0156,-2.0156,-2.0131,-2.0105,-2.0003,-1.9952,-2.7477,-2.749,-2.749,-2.7503,-2.7033,-2.6733,-2.7159,0.0,-2.6432,-2.6883,-2.6977,-2.6909,-2.6726,-2.673,0.0,0.0,0.0,-2.8084,-2.8034,-2.8034,-2.7821,-2.7268,-2.5837,-2.4838,-2.48,-2.381,-2.3158,-2.3108,-2.2159,-2.1556,-2.1556,-2.1069,-2.0769,-2.0691,-2.0202,-2.0016,-2.0207,-2.0233,-2.0385,-2.0699,-2.0699,-2.0699,-2.0699,-2.0699,-2.0699,-2.0699,-2.0699,-2.0699,-2.0699,-2.0699,-2.0699,-2.0699,-2.0699,-2.1001,-2.1368,-2.087,-2.1014,-2.1355,-2.0857,-2.0724,-2.0823,-2.1253,-2.1756,-2.2175,-2.2221,-2.2244,-2.2244,-2.2244,-2.2198,-2.2291,-2.2777,-2.2889,-2.3001,-2.3421,-2.3573,-2.3486,-2.3068,-2.2957,-2.2822,-2.2267,-2.1827,-2.166,-2.2049,-2.1708,-2.1399,-2.1399,-2.135,-2.118,-2.0749,-2.0699,-2.0699,-2.0699,-2.0699,-2.0699,-2.0699,-2.0699,-2.0699,-2.0699,-2.0699,-2.0699,-2.0699,-2.0562,-2.0486,-2.0486,-2.0296,-2.0131,-2.0016,-2.0016,-1.9952,-1.9824,-1.9837,-1.9837,-2.7398,-2.749,-2.749,-2.749,-2.7105,-2.6831,-2.7306,-2.6993,-2.6681,-2.7098,-2.718,-2.7079,-2.6748,-2.6679,-2.6721,0.0,0.0,0.0,-2.7153,-2.7153,-2.7065,-2.6851,-2.5624,-2.4788,-2.4788,-2.3772,-2.2832,-2.2196,-2.143,-2.0867,-2.0489,-2.0263,-2.015,-2.015,-2.0014,-1.9978,-2.0093,-2.0271,-2.0461,-2.0587,-2.0662,-2.0699,-2.0699,-2.0699,-2.0699,-2.0699,-2.0699,-2.0699,-2.0699,-2.0699,-2.0699,-2.0699,-2.0699,-2.0818,-2.1001,-2.0791,-2.0831,-2.0988,-2.0777,-2.0699,-2.0724,-2.0923,-2.1106,-2.144,-2.2363,-2.2628,-2.2628,-2.2628,-2.2628,-2.2615,-2.2459,-2.2649,-2.2957,-2.3135,-2.3179,-2.3046,-2.2535,-2.242,-2.2282,-2.1779,-2.153,-2.1361,-2.1275,-2.1106,-2.0997,-2.0997,-2.0997,-2.0923,-2.0724,-2.0699,-2.0699,-2.0699,-2.0699,-2.0699,-2.0699,-2.0699,-2.0699,-2.0699,-2.0612,-2.0587,-2.0587,-2.0334,-2.0361,-2.0719,-2.0575,-2.0622,-2.0909,-2.0581,-2.0555,-2.0803,-2.0125,-2.0162,-2.7385,-2.749,-2.7529,-2.7699,-2.7353,-2.7079,-2.7654,-2.734,-2.7007,-2.7311,-2.7369,-2.7235,-2.6863,-2.6794,-2.6726,0.0,0.0,-2.6738,-2.6738,-2.6738,-2.6738,-2.6738,-2.5724,-2.4963,-2.4813,-2.3622,-2.2468,-2.1556,-2.1006,-2.044,-1.9836,-1.9798,-1.9798,-1.9798,-1.9888,-1.9952,-1.999,-2.0271,-2.0436,-2.0486,-2.0637,-2.0699,-2.0699,-2.0699,-2.0699,-2.0699,-2.0699,-2.0699,-2.0699,-2.0699,-2.0699,-2.0699,-2.0699,-2.0804,-2.0909,-2.0764,-2.0792,-2.0909,-2.0764,-2.0699,-2.0724,-2.0848,-2.0799,-2.099,-2.2519,-2.2934,-2.2853,-2.302,-2.3035,-2.2925,-2.246,-2.2512,-2.2694,-2.2867,-2.2777,-2.2512,-2.2002,-2.1884,-2.1742,-2.1277,-2.118,-2.1082,-2.0749,-2.0699,-2.0699,-2.0699,-2.0699,-2.0699,-2.0699,-2.0699,-2.0699,-2.0699,-2.0699,-2.0687,-2.0637,-2.0637,-2.0612,-2.0549,-2.0642,-2.0694,-2.0694,-2.0564,-2.07,-2.1145,-2.0997,-2.1131,-2.1493,-2.1131,-2.1131,-2.1468,-2.0677,-2.0815,-2.749,-2.749,-2.7633,-2.8229,-2.7941,-2.7633,-2.8242,-2.7928,-2.749,-2.749,-2.749,-2.7403,-2.7045,-2.699,-2.6875,-2.6568,0.0,0.0,-2.7268,-2.7268,-2.7268,-2.7268,-2.6276,-2.5385,-2.4838,-2.3271,-2.2083,-2.1531,-2.1006,-2.044,-1.9836,-1.9798,-1.9798,-1.9798,-1.9798,-1.9862,-1.999,-2.0144,-2.0296,-2.0486,-2.0637,-2.0699,-2.0699,-2.0699,-2.0699,-2.0699,-2.0699,-2.0699,-2.0699,-2.0699,-2.0699,-2.0699,-2.0699,-2.1027,-2.1433,-2.0883,-2.104,-2.142,-2.087,-2.0699,-2.0774,-2.1229,-2.1082,-2.099,-2.2519,-2.2713,-2.2515,-2.3048,-2.3156,-2.3083,-2.2936,-2.2512,-2.2244,-2.2777,-2.2489,-2.1978,-2.1506,-2.1423,-2.1277,-2.0799,-2.0699,-2.0699,-2.0699,-2.0699,-2.0699,-2.0699,-2.0699,-2.0699,-2.0699,-2.0699,-2.0699,-2.0699,-2.0699,-2.0662,-2.0511,-2.0486,-2.0423,-2.0207,-2.0758,-2.1078,-2.1078,-2.1481,-2.1678,-2.169,-2.1552,-2.1481,-2.1493,-2.1481,-2.1481,-2.1493,-2.1481,-2.1769,-2.7623,-2.749,-2.7542,-2.7758,-2.7633,-2.7542,-2.7758,-2.7633,-2.749,-2.749,-2.749,-2.7436,-2.7248,-2.7079,-2.705,-2.7224,-2.6971,0.0,-2.7231,-2.6989,-2.6612,-2.6176,-2.5172,-2.4293,-2.3697,-2.2498,-2.1681,-2.1506,-2.0614,-1.9987,-1.9811,-1.9798,-1.9798,-1.9798,-1.9798,-1.9837,-1.9862,-2.0105,-2.0233,-2.0296,-2.0574,-2.0699,-2.0699,-2.0699,-2.0699,-2.0699,-2.0699,-2.0699,-2.0699,-2.0699,-2.0699,-2.0699,-2.0699,-2.0792,-2.0923,-2.0777,-2.1017,-2.136,-2.0864,-2.0923,-2.1204,-2.135,-2.1302,-2.141,-2.2617,-2.2702,-2.2508,-2.3371,-2.3312,-2.2953,-2.2925,-2.2777,-2.2526,-2.1992,-2.1756,-2.1506,-2.1008,-2.0923,-2.0873,-2.0724,-2.0699,-2.0699,-2.0699,-2.0699,-2.0699,-2.0699,-2.0699,-2.0818,-2.1185,-2.1237,-2.1407,-2.1826,-2.1746,-2.1328,-2.0576,-2.0849,-2.0991,-2.0835,-2.1253,-2.1504,-2.1504,-2.1531,-2.1741,-2.209,-2.2074,-2.2234,-2.2581,-2.2234,-2.1857,-2.1506,-2.2259,-2.2481,-2.7809,-2.749,-2.7542,-2.7798,-2.7659,-2.7555,-2.7798,-2.7646,-2.749,-2.749,-2.749,-2.7436,-2.7248,-2.7079,-2.7037,-2.7173,-2.6795,-2.6612,-2.6952,-2.6713,-2.6285,-2.5661,-2.4657,-2.3853,-2.3471,-2.2447,-2.1794,-2.1794,-2.0953,-2.0338,-2.0137,-2.0125,-2.0024,-1.9811,-1.9798,-1.9798,-1.9798,-2.0067,-2.0207,-2.0207,-2.0549,-2.0699,-2.0699,-2.0699,-2.0699,-2.0699,-2.0699,-2.0699,0.0,-2.0699,-2.0699,-2.0699,-2.0699,-2.0699,-2.0699,-2.0699,-2.0997,-2.1402,-2.136,-2.1477,-2.1749,-2.2199,-2.2292,-2.2329,-2.2805,-2.309,-2.329,-2.3707,-2.3572,-2.3171,-2.2721,-2.2466,-2.218,-2.1554,-2.1253,-2.1057,-2.0749,-2.0699,-2.0764,-2.0962,-2.1001,-2.1001,-2.1001,-2.1001,-2.1001,-2.1001,-2.1001,-2.121,-2.176,-2.1838,-2.1982,-2.2375,-2.2224,-2.1818,-2.1095,-2.1286,-2.1385,-2.1263,-2.1688,-2.1936,-2.1936,-2.2024,-2.2272,-2.2594,-2.2594,-2.2757,-2.3108,-2.2757,-2.2447,-2.2121,-2.2782,-2.292,0.0,-2.7556,-2.7687,-2.8224,-2.7915,-2.7633,-2.8203,-2.7902,0.0,-2.749,-2.749,-2.7403,-2.7079,-2.7024,-2.6901,-2.6618,-2.6512,-2.6512,-2.6549,-2.6449,-2.6138,-2.5532,-2.4562,-2.391,-2.3879,-2.292,-2.2309,-2.2309,-2.1794,-2.1295,-2.0779,-2.0754,-2.0478,-1.9874,-1.9861,-1.9849,-1.9798,-2.0042,-2.0182,-2.0207,-2.0524,-2.0687,-2.0687,-2.0699,-2.0687,-2.0687,-2.0699,-2.0699,-2.0699,-2.0699,-2.0699,-2.0699,-2.0699,-2.0724,-2.0749,-2.0749,-2.1057,-2.1588,-2.2171,-2.2273,-2.2343,-2.3455,-2.3732,-2.3508,-2.3046,-2.3717,-2.4515,-2.3981,-2.3821,-2.356,-2.2353,-2.1732,-2.1399,-2.135,-2.1008,-2.0712,-2.0751,-2.0764,-2.0909,-2.1459,-2.1564,-2.1577,-2.1577,-2.1577,-2.1564,-2.1564,-2.1564,-2.1773,-2.2375,-2.2452,-2.2479,-2.2531,-2.2313,-2.2163,-2.2027,-2.1863,-2.1711,-2.1571,-2.2071,-2.2372,-2.2372,-2.2832,-2.3108,-2.3108,-2.3108,-2.3108,-2.3108,-2.3108,-2.3108,-2.3108,-2.3108,-2.3108,-2.8725,0.0,-2.8164,-2.7794,-2.7594,-2.7529,0.0,-2.7594,-2.749,-2.749,-2.749,-2.7436,-2.7268,-2.7113,-2.7062,-2.7288,-2.688,-2.6637,-2.7065,-2.6,-2.495,-2.4283,-2.3678,-2.3113,-2.2597,-2.2402,-2.2309,-2.2309,-2.1794,-2.143,-2.1333,-2.132,-2.1069,-2.0515,-2.049,-2.0277,-1.9811,-1.9952,-2.0105,-2.0207,-2.0423,-2.0537,-2.0537,-2.0662,-2.0637,-2.0537,-2.0662,-2.0699,-2.0699,-2.0699,-2.0699,-2.0699,-2.0699,-2.0923,-2.1229,-2.1229,-2.1779,-2.2518,-2.2264,-2.2395,-2.2746,-2.3041,-2.3341,-2.3508,-2.3046,-2.334,-2.3748,-2.3264,-2.3144,-2.2896,-2.1845,-2.1482,-2.1302,-2.0947,-2.0774,-2.0805,-2.1211,-2.1302,-2.1485,-2.2074,-2.2192,-2.2192,-2.2204,-2.2178,-2.2192,-2.2192,-2.2192,-2.2388,-2.2936,-2.3027,-2.3197,-2.3639,-2.3447,-2.3218,-2.3189,-2.2636,-2.2252,-2.2121,-2.2606,-2.2907,-2.2907,-2.3032,-2.3108,-2.3108,-2.3108,-2.3108,-2.3108,-2.3108,-2.3108,-2.3108,-2.3108,-2.3108,-2.9376,-2.8712,-2.8352,-2.7656,-2.749,-2.749,-2.749,0.0,0.0,0.0,0.0,0.0,-2.718,-2.7011,-2.6896,-2.7075,-2.6769,-2.66,-2.6901,-2.5124,-2.3923,-2.423,-2.3292,-2.2628,-2.2555,-2.2611,-2.2656,-2.2656,-2.241,-2.2133,-2.1882,-2.187,-2.1606,-2.1081,-2.083,-2.0415,-1.9811,-1.9926,-2.0042,-2.0105,-2.0372,-2.0461,-2.0372,-2.0524,-2.0562,-2.0486,-2.0587,-2.0637,-2.0699,-2.0699,-2.0699,-2.0724,-2.0947,-2.118,-2.1423,-2.1636,-2.2212,-2.2954,-2.3277,-2.3728,-2.4076,-2.3807,-2.3514,-2.3238,-2.3002,-2.2933,-2.2815,-2.2328,-2.2365,-2.2305,-2.1337,-2.1229,-2.1277,-2.0799,-2.0883,-2.108,-2.1132,-2.1525,-2.2022,-2.2336,-2.2597,-2.2766,-2.2779,-2.2766,-2.2781,-2.2781,-2.2781,-2.2962,-2.355,-2.3543,-2.3644,-2.3969,-2.37,-2.3509,-2.3509,-2.3069,-2.2745,-2.2656,-2.2945,-2.3108,-2.3108,-2.3108,-2.3108,-2.3108,-2.3108,-2.3108,-2.3108,-2.3108,-2.3108,-2.3108,-2.3108,-2.3108,-3.0048,-2.9232,-2.859,-2.7716,-2.749,-2.749,-2.749,0.0,0.0,0.0,0.0,0.0,0.0,-2.6905,-2.6784,-2.6659,-2.6612,-2.6578,-2.6439,-2.4482,-2.3418,-2.4341,-2.324,-2.253,-2.2914,-2.3035,-2.3108,-2.3108,-2.3108,-2.2895,-2.246,-2.2406,-2.2184,-2.1631,-2.1182,-2.0629,-1.9936,-1.9964,-1.999,-2.0042,-2.0309,-2.0398,-2.0335,-2.0514,-2.0642,-2.072,-2.0745,-2.0822,-2.0949,-2.0949,-2.0896,-2.0855,-2.1265,-2.1461,-2.1594,-2.1975,-2.2526,-2.3224,-2.4346,-2.5004,-2.5254,-2.4742,-2.3827,-2.2931,-2.2975,-2.2536,-2.1926,-2.1627,-2.1842,-2.1928,-2.1042,-2.113,-2.1341,-2.1036,-2.125,-2.142,-2.1132,-2.1838,-2.2545,-2.2637,-2.3027,-2.3354,-2.3354,-2.3354,-2.3354,-2.3354,-2.3354,-2.3509,-2.4018,-2.3979,-2.3891,-2.3861,-2.3582,-2.3403,-2.3403,-2.321,-2.3108,-2.3108,-2.3108,-2.3108,-2.3108,-2.3108,-2.3108,-2.3108,-2.3108,-2.3108,-2.3108,-2.3108,-2.3108,-2.3108,-2.3108,-2.3108,-3.0557,-3.0205,-2.9693,-2.7941,-2.749,-2.749,-2.749,0.0,0.0,0.0,0.0,0.0,0.0,-2.7132,-2.7379,-2.7226,-2.719,-2.693,-2.6274,-2.5581,-2.4597,-2.3102,-2.3409,-2.3313,-2.2347,-2.2781,-2.3108,-2.3108,-2.3108,-2.307,-2.2982,-2.2982,-2.2732,-2.2196,-2.2108,-2.1568,-2.0566,-2.0075,-1.9939,-2.0182,-2.0118,-2.0373,-2.095,-2.0976,-2.1259,-2.1682,-2.1816,-2.1964,-2.2139,-2.2139,-2.1838,-2.1381,-2.1458,-2.1779,-2.2169,-2.2231,-2.2909,-2.3783,-2.3966,-2.4112,-2.4162,-2.4047,-2.3554,-2.3003,-2.3053,-2.2353,-2.1627,-2.2101,-2.2255,-2.2131,-2.1523,-2.1433,-2.1602,-2.2035,-2.1799,-2.1747,-2.2635,-2.2962,-2.3237,-2.3746,-2.3916,-2.3952,-2.3952,-2.3952,-2.3952,-2.3952,-2.3952,-2.3949,-2.3936,-2.392,-2.3819,-2.3658,-2.3492,-2.3403,-2.3403,-2.321,-2.3108,-2.3108,-2.3108,-2.3108,-2.3108,-2.3108,-2.3108,-2.3108,-2.3108,-2.3108,-2.3108,-2.3108,-2.3108,-2.3108,-2.3108,-2.3108,-3.0213,-2.9636,-2.908,-2.7808,-2.7771,-2.7902,-2.7555,-2.7436,0.0,0.0,0.0,0.0,0.0,-2.7328,-2.74,-2.7316,-2.6948,-2.6407,-2.5744,-2.4952,-2.4154,-2.3248,-2.3341,-2.3243,-2.2678,-2.2914,-2.3108,-2.3108,-2.3108,-2.3108,-2.3108,-2.3108,-2.2995,-2.2732,-2.2443,-2.192,-2.1144,-2.0578,-2.0191,-1.9991,-1.9978,-2.0143,-2.0396,-2.0474,-2.0859,-2.1477,-2.1544,-2.1886,-2.2361,-2.2047,-2.176,-2.1538,-2.1809,-2.2077,-2.2371,-2.2938,-2.3703,-2.4451,-2.4451,-2.4451,-2.4455,-2.4486,-2.3843,-2.3081,-2.3138,-2.2578,-2.2007,-2.2311,-2.2128,-2.1889,-2.197,-2.1982,-2.2061,-2.2323,-2.2427,-2.2464,-2.2727,-2.3263,-2.3652,-2.3613,-2.389,-2.4083,-2.4083,-2.4083,-2.4083,-2.4083,-2.4037,-2.3979,-2.392,-2.3743,-2.3582,-2.3509,-2.333,-2.3241,-2.3241,-2.3138,-2.3108,-2.3108,-2.3108,-2.3108,-2.3108,-2.3108,-2.3108,-2.3108,-2.3108,-2.3108,-2.3108,-2.3108,-2.3108,-2.3108,-2.3108,-2.3108,-2.9998,-2.9347,-2.875,-2.792,0.0,-2.8098,-2.773,-2.7564,0.0,0.0,0.0,0.0,-2.743,-2.75,-2.7469,-2.7469,-2.6797,-2.6057,-2.5314,-2.4307,-2.3572,-2.3372,-2.3221,-2.3145,-2.311,-2.3108,-2.3108,-2.3108,-2.3108,-2.3108,-2.3108,-2.3108,-2.3108,-2.3108,-2.2569,-2.2046,-2.1493,-2.0968,-2.0402,-1.9837,-1.9926,-2.0065,-2.024,-2.0191,-2.0702,-2.1628,-2.1373,-2.1831,-2.2699,-2.2125,-2.1904,-2.1957,-2.2519,-2.2828,-2.3024,-2.3861,-2.4479,-2.4909,-2.4748,-2.4721,-2.4723,-2.4771,-2.4135,-2.3353,-2.339,-2.3034,-2.2616,-2.2743,-2.2348,-2.2008,-2.2479,-2.2583,-2.2624,-2.2767,-2.3001,-2.3117,-2.2871,-2.3469,-2.3952,-2.3483,-2.377,-2.4083,-2.4083,-2.4054,-2.4067,-2.4067,-2.392,-2.3832,-2.3802,-2.3552,-2.3373,-2.333,-2.3324,-2.3308,-2.3308,-2.3308,-2.3246,-2.3108,-2.3108,-2.3108,-2.3108,-2.3108,-2.3108,-2.3108,-2.3108,-2.3108,-2.3108,-2.3108,-2.3108,-2.3108,-2.3108,-2.3108,-3.0628,-3.0307,-2.9951,-2.8649,-2.7954,-2.7652,-2.7976,-2.8058,0.0,-2.8257,0.0,0.0,-2.7352,-2.7708,-2.8047,-2.8047,-2.7373,-2.6424,-2.5173,-2.4469,-2.3707,-2.2697,-2.3154,-2.3438,-2.3117,-2.3108,-2.3108,-2.3108,-2.3108,-2.3108,-2.3108,-2.3108,-2.3108,-2.3108,-2.2569,-2.2046,-2.1493,-2.0968,-2.0468,-1.999,-1.9862,-2.043,-2.1523,-2.0949,-2.1592,-2.3179,-2.2252,-2.2572,-2.3751,-2.3284,-2.3093,-2.3149,-2.3729,-2.4323,-2.4829,-2.4888,-2.4953,-2.4909,-2.4352,-2.4163,-2.4176,-2.4157,-2.4095,-2.4014,-2.4037,-2.3615,-2.3258,-2.3811,-2.3535,-2.3106,-2.3117,-2.313,-2.3289,-2.3822,-2.3561,-2.3326,-2.3861,-2.4031,-2.4083,-2.4031,-2.4057,-2.4083,-2.4083,-2.4008,-2.392,-2.392,-2.376,-2.3569,-2.3463,-2.3403,-2.333,-2.3138,-2.3615,-2.3941,-2.3941,-2.3941,-2.3703,-2.3145,-2.3108,-2.3108,-2.3108,-2.3108,-2.3108,-2.3108,-2.3108,-2.3108,-2.3108,-2.3108,-2.3108,-2.3108,-2.3108,-2.3108,-3.0111,-2.9535,-2.9002,-2.8072,-2.7659,0.0,0.0,-2.7748,-2.7533,-2.7827,-2.7657,0.0,-2.7316,-2.7457,-2.7482,-2.7165,-2.6722,-2.5921,-2.4634,-2.4018,-2.3432,-2.2594,-2.294,-2.3198,-2.3122,-2.3108,-2.3108,-2.3108,-2.3108,-2.3108,-2.3108,-2.3108,-2.3108,-2.3108,-2.2895,-2.2397,-2.1493,-2.1307,-2.0742,-1.9888,-1.9837,-2.005,-2.0506,-2.0251,-2.0961,-2.2312,-2.1937,-2.2578,-2.3852,-2.3301,-2.3111,-2.3267,-2.3864,-2.4477,-2.5012,-2.4994,-2.475,-2.4419,-2.4171,-2.4083,-2.4083,-2.4083,-2.41,-2.4099,-2.4105,-2.3942,-2.3808,-2.404,-2.3926,-2.3744,-2.3744,-2.3744,-2.3809,-2.4031,-2.3913,-2.3809,-2.4044,-2.4083,-2.4083,-2.4083,-2.4083,-2.4083,-2.4083,-2.3979,-2.3891,-2.3891,-2.3641,-2.3463,-2.3403,-2.33,-2.3336,-2.364,-2.4167,-2.4506,-2.4506,-2.4506,-2.4418,-2.4161,-2.3496,-2.3108,-2.3108,-2.3108,-2.3108,-2.3108,-2.3108,-2.3108,-2.3108,-2.3108,-2.3108,-2.3108,-2.3471,-2.3665,-2.9511,-2.8847,-2.8352,-2.7656,0.0,0.0,-2.8143,-2.7734,-2.7416,-2.7921,-2.7412,-2.6884,-2.6781,-2.6677,-2.6366,-2.5757,-2.5348,-2.4722,-2.3491,-2.2857,-2.2394,-2.2003,-2.2187,-2.2364,-2.2463,-2.2659,-2.2781,-2.2781,-2.2975,-2.3108,-2.3108,-2.3108,-2.3108,-2.3108,-2.2932,-2.2481,-2.1757,-2.1405,-2.0867,-2.0075,-1.9886,-1.9899,-2.0075,-2.0075,-2.0731,-2.1888,-2.1751,-2.2492,-2.375,-2.3215,-2.33,-2.3796,-2.4229,-2.4736,-2.5244,-2.5061,-2.4721,-2.4361,-2.4171,-2.4083,-2.4083,-2.4083,-2.4229,-2.4332,-2.4171,-2.4229,-2.4345,-2.4141,-2.4083,-2.4083,-2.4083,-2.4083,-2.4083,-2.4083,-2.4083,-2.4083,-2.4083,-2.4083,-2.4083,-2.4083,-2.4083,-2.4083,-2.4083,-2.3949,-2.3819,-2.3819,-2.3522,-2.33,-2.33,-2.3362,-2.3659,-2.4418,-2.4845,-2.5059,-2.5059,-2.5059,-2.4996,-2.48,-2.4061,-2.3634,-2.3634,-2.3471,-2.3384,-2.3384,-2.3384,-2.3384,-2.3384,-2.3195,-2.3195,-2.3384,-2.3816,-2.4004,-2.8971,-2.8498,-2.8338,-2.7656,0.0,0.0,-2.8395,-2.8167,-2.7984,-2.8712,-2.7385,-2.5972,-2.5631,-2.5242,-2.4712,-2.391,-2.3406,-2.275,-2.175,-2.0907,-2.0491,-2.0781,-2.0794,-2.0864,-2.1085,-2.171,-2.2101,-2.2101,-2.272,-2.3108,-2.3108,-2.3108,-2.3108,-2.3108,-2.2581,-2.2322,-2.2309,-2.1257,-2.0704,-2.0679,-2.0087,-2.0138,-2.0679,-2.0679,-2.1282,-2.2272,-2.186,-2.2423,-2.3577,-2.3157,-2.3804,-2.5005,-2.5005,-2.5314,-2.5742,-2.5188,-2.5005,-2.492,-2.4316,-2.4083,-2.4083,-2.4083,-2.4505,-2.4863,-2.4287,-2.4534,-2.4863,-2.4287,-2.4083,-2.4083,-2.4083,-2.4083,-2.4083,-2.4083,-2.4083,-2.4083,-2.4083,-2.4083,-2.4083,-2.4083,-2.4083,-2.4083,-2.4083,-2.3806,-2.3599,-2.3599,-2.3318,-2.3108,-2.3108,-2.364,-2.4418,-2.5485,-2.5598,-2.5598,-2.5598,-2.5598,-2.5385,-2.4838,-2.48,-2.48,-2.4788,-2.4293,-2.4004,-2.4004,-2.4004,-2.4004,-2.4004,-2.3396,-2.3409,-2.4004,-2.4004,-2.4004,-2.8978,-2.8304,-2.7872,-2.7584,0.0,0.0,0.0,-2.7522,0.0,0.0,-2.59,-2.4894,-2.4602,-2.3874,-2.3237,-2.299,-2.2431,-2.1947,-2.1651,-2.0676,-2.018,-2.0748,-2.0522,-2.0521,-2.1051,-2.171,-2.2101,-2.2101,-2.272,-2.3108,-2.3108,-2.3108,-2.3108,-2.3108,-2.2945,-2.2681,-2.2309,-2.1606,-2.1081,-2.0691,-2.0515,-2.0314,-2.0062,-2.0062,-2.0677,-2.1719,-2.1612,-2.235,-2.3616,-2.3713,-2.416,-2.4808,-2.4935,-2.5118,-2.5216,-2.5061,-2.4734,-2.4345,-2.4171,-2.4083,-2.4083,-2.4083,-2.4229,-2.4345,-2.4141,-2.4229,-2.4345,-2.4141,-2.4083,-2.4083,-2.4083,-2.4083,-2.4083,-2.4083,-2.4083,-2.4083,-2.4083,-2.4083,-2.4083,-2.4083,-2.4083,-2.4054,-2.3979,-2.376,-2.3569,-2.345,-2.3258,-2.3246,-2.369,-2.423,-2.4845,-2.5523,-2.5996,-2.6235,-2.6235,-2.6235,-2.6172,-2.6021,-2.5586,-2.5197,-2.4813,-2.4637,-2.4569,-2.4569,-2.4569,-2.4569,-2.4569,-2.4017,-2.4029,-2.4569,-2.4569,-2.477,-2.8517,-2.7956,-2.7653,-2.782,-2.8056,-2.8097,-2.7407,0.0,0.0,-2.5456,-2.4552,-2.3872,-2.3798,-2.2823,-2.1983,-2.1913,-2.1311,-2.082,-2.0627,-1.9997,-1.9682,-2.0076,-1.9853,-1.9846,-2.0258,-2.1144,-2.171,-2.171,-2.2567,-2.3108,-2.3108,-2.3108,-2.3108,-2.3108,-2.3108,-2.2945,-2.2606,-2.2096,-2.1644,-2.1345,-2.1119,-2.0842,-2.0476,-2.0702,-2.1054,-2.1546,-2.2043,-2.274,-2.3539,-2.3878,-2.4157,-2.4392,-2.4578,-2.4649,-2.4649,-2.4649,-2.4419,-2.4083,-2.4083,-2.4083,-2.4083,-2.4083,-2.4083,-2.4083,-2.4037,-2.4067,-2.4083,-2.3936,-2.3966,-2.4037,-2.4037,-2.4037,-2.4037,-2.4083,-2.4083,-2.4083,-2.4083,-2.4083,-2.4083,-2.4037,-2.4037,-2.3979,-2.3819,-2.3641,-2.348,-2.3403,-2.343,-2.3722,-2.4531,-2.4921,-2.5335,-2.5921,-2.6285,-2.6499,-2.6499,-2.6499,-2.6499,-2.6499,-2.6172,-2.5799,-2.5485,-2.5259,-2.5134,-2.5134,-2.5134,-2.5134,-2.5134,-2.4594,-2.4607,-2.5134,-2.5134,-2.5297,-2.7886,-2.756,-2.7555,-2.8164,-2.8101,-2.7615,-2.6564,-2.607,-2.5478,-2.4259,-2.3449,-2.3022,-2.3076,-2.1963,-2.0943,-2.0742,-2.0162,-1.9585,-1.916,-1.9108,-1.9108,-1.9108,-1.9108,-1.9108,-1.9108,-2.0258,-2.1028,-2.1092,-2.2292,-2.3047,-2.3108,-2.3108,-2.3108,-2.3108,-2.3108,-2.3108,-2.3108,-2.2556,-2.2309,-2.2297,-2.1807,-2.1543,-2.1506,-2.2008,-2.1995,-2.1647,-2.2875,-2.3403,-2.3403,-2.373,-2.3861,-2.3861,-2.4037,-2.4083,-2.4083,-2.4083,-2.4083,-2.4083,-2.4083,-2.4083,-2.4083,-2.4083,-2.4083,-2.4083,-2.3949,-2.4008,-2.4024,-2.3717,-2.376,-2.3891,-2.392,-2.392,-2.392,-2.4054,-2.4083,-2.4083,-2.4083,-2.4083,-2.4067,-2.392,-2.3929,-2.3909,-2.3705,-2.3556,-2.3479,-2.3449,-2.3808,-2.4443,-2.546,-2.5598,-2.5824,-2.6436,-2.6499,-2.6499,-2.6499,-2.6499,-2.6499,-2.6499,-2.6499,-2.6499,-2.6499,-2.5984,-2.5674,-2.5674,-2.5674,-2.5674,-2.5674,-2.5146,-2.5159,-2.5674,-2.5624,-2.5624,-2.8191,-2.7507,-2.6987,-2.7575,-2.7003,-2.6177,-2.5792,-2.4641,-2.3594,-2.3309,-2.3102,-2.27,-2.1738,-2.1021,-2.0425,-2.0083,-1.9583,-1.9222,-1.9119,-1.9108,-1.9108,-1.9108,-1.9108,-1.9108,-1.9108,-1.9846,-2.0516,-2.106,-2.1834,-2.2555,-2.3078,-2.3108,-2.3108,-2.3108,-2.3108,-2.3108,-2.3108,-2.2556,-2.2309,-2.2309,-2.2184,-2.1907,-2.1493,-2.1606,-2.1832,-2.2171,-2.3145,-2.342,-2.3198,-2.3539,-2.3611,-2.3522,-2.3832,-2.3949,-2.3949,-2.4067,-2.4083,-2.4083,-2.4083,-2.4083,-2.4083,-2.4083,-2.4083,-2.4083,-2.4054,-2.4083,-2.4083,-2.4024,-2.3949,-2.392,-2.4037,-2.3979,-2.392,-2.4054,-2.4083,-2.4083,-2.4083,-2.4083,-2.4067,-2.392,-2.4253,-2.4429,-2.4111,-2.405,-2.3988,-2.3878,-2.4293,-2.4838,-2.5511,-2.5598,-2.5824,-2.6436,-2.6499,-2.6499,-2.6499,-2.6499,-2.6499,-2.6499,-2.6499,-2.6499,-2.6499,-2.6373,-2.6311,-2.6311,-2.6311,-2.6311,-2.6311,-2.5711,-2.5724,-2.6298,-2.5812,-2.5837,-2.8074,-2.771,-2.7453,-2.7831,-2.737,-2.6586,-2.5707,-2.4476,-2.3302,-2.259,-2.244,-2.2141,-2.1271,-2.0705,-2.0276,-1.9865,-1.9409,-1.9108,-1.9108,-1.9108,-1.9108,-1.9108,-1.9108,-1.9108,-1.9108,-1.9715,-2.0226,-2.0581,-2.1542,-2.2267,-2.2586,-2.2944,-2.3108,-2.3108,-2.3108,-2.3108,-2.3108,-2.2819,-2.2681,-2.2681,-2.2681,-2.2531,-2.2272,-2.2008,-2.2184,-2.2723,-2.3161,-2.3258,-2.3138,-2.339,-2.3463,-2.3433,-2.3671,-2.376,-2.376,-2.3848,-2.3907,-2.4008,-2.4008,-2.4067,-2.4083,-2.4083,-2.4083,-2.4083,-2.4037,-2.4067,-2.4054,-2.3907,-2.3891,-2.392,-2.3979,-2.3949,-2.392,-2.4054,-2.4083,-2.4083,-2.4083,-2.4083,-2.4103,-2.4137,-2.4373,-2.4533,-2.4501,-2.4476,-2.4532,-2.4732,-2.5008,-2.5385,-2.5971,-2.6047,-2.616,-2.6461,-2.6499,-2.6499,-2.6499,-2.6499,-2.6499,-2.6499,-2.6499,-2.6499,-2.6499,-2.6499,-2.6499,-2.6499,-2.6499,-2.6499,-2.6499,-2.6185,-2.6197,-2.6487,-2.6185,-2.621,-2.7848,-2.7809,-2.7967,-2.8187,-2.7933,-2.7246,-2.5853,-2.4724,-2.3573,-2.2279,-2.1883,-2.1642,-2.1093,-2.0643,-2.0255,-1.9761,-1.9357,-1.9108,-1.9108,-1.9108,-1.9108,-1.9108,-1.9108,-1.9108,-1.9108,-1.9584,-2.0031,-2.0258,-2.1302,-2.2021,-2.2267,-2.2811,-2.3108,-2.3108,-2.3108,-2.3108,-2.3108,-2.3108,-2.3108,-2.3108,-2.3108,-2.3108,-2.3083,-2.2631,-2.2681,-2.3108,-2.3138,-2.3138,-2.3108,-2.3271,-2.336,-2.336,-2.3509,-2.3569,-2.3569,-2.3599,-2.37,-2.3861,-2.3861,-2.3949,-2.4054,-2.4054,-2.4083,-2.4083,-2.3979,-2.4008,-2.4024,-2.3747,-2.3789,-2.3916,-2.4066,-2.4062,-2.4118,-2.4327,-2.4383,-2.4357,-2.4282,-2.4305,-2.4394,-2.4525,-2.4599,-2.4677,-2.4903,-2.5034,-2.5222,-2.5548,-2.5686,-2.5946,-2.6436,-2.6499,-2.6499,-2.6499,-2.6499,-2.6499,-2.6499,-2.6499,-2.6499,-2.6499,-2.6499,-2.6499,-2.6499,-2.6499,-2.6499,-2.6499,-2.6499,-2.6499,-2.6499,-2.6499,-2.6499,-2.6499,-2.6499,-2.6499,-2.7925,-2.7571,-2.7311,-2.7564,-2.6973,-2.6226,-2.5853,-2.4492,-2.3231,-2.2916,-2.2289,-2.1538,-2.0633,-2.0426,-2.0151,-1.9336,-1.9139,-1.9108,-1.9108,-1.9108,-1.9108,-1.9108,-1.9108,-1.9108,-1.9108,-1.9164,-1.9715,-2.0869,-2.1123,-2.1753,-2.2914,-2.3035,-2.3108,-2.3108,-2.3108,-2.3108,-2.3108,-2.3108,-2.3108,-2.3108,-2.3108,-2.3108,-2.3108,-2.3032,-2.3032,-2.3108,-2.3271,-2.3271,-2.3108,-2.3138,-2.3138,-2.3168,-2.336,-2.3433,-2.3433,-2.3569,-2.3628,-2.3628,-2.3628,-2.376,-2.392,-2.392,-2.4008,-2.4083,-2.4083,-2.4083,-2.4083,-2.4054,-2.3979,-2.4066,-2.4696,-2.471,-2.4767,-2.541,-2.5571,-2.5458,-2.4992,-2.5114,-2.5277,-2.5198,-2.5318,-2.5431,-2.5485,-2.5946,-2.6135,-2.5661,-2.6047,-2.6411,-2.6487,-2.6499,-2.6499,-2.6499,-2.6499,-2.6499,-2.6499,-2.6499,-2.6499,-2.6499,-2.6499,-2.6499,-2.6499,-2.6499,-2.6499,-2.6499,-2.6499,-2.6499,-2.6499,-2.6499,-2.6499,-2.6499,-2.6499,-2.6499,-2.8193,-2.7786,-2.7439,-2.7479,-2.7142,-2.662,-2.6079,-2.5216,-2.4277,-2.3316,-2.2756,-2.2126,-2.1011,-2.056,-2.0213,-1.9596,-1.9274,-1.9108,-1.9108,-1.9108,-1.9108,-1.9108,-1.9108,-1.9108,-1.9108,-1.9108,-1.9485,-2.0484,-2.0901,-2.1534,-2.2494,-2.2914,-2.3108,-2.3108,-2.3108,-2.3108,-2.3108,-2.3108,-2.3108,-2.3108,-2.3108,-2.3108,-2.3108,-2.3108,-2.3108,-2.3108,-2.3198,-2.3168,-2.3108,-2.3108,-2.3108,-2.3108,-2.321,-2.3241,-2.3228,-2.3288,-2.339,-2.3509,-2.3569,-2.373,-2.392,-2.3979,-2.4067,-2.4083,-2.4083,-2.4083,-2.4178,-2.4504,-2.4566,-2.4666,-2.5301,-2.537,-2.5374,-2.5589,-2.5901,-2.6038,-2.5684,-2.5567,-2.5543,-2.562,-2.5899,-2.6109,-2.6109,-2.6323,-2.6411,-2.6147,-2.6336,-2.6499,-2.6499,-2.6499,-2.6499,-2.6499,-2.6499,-2.6499,-2.6499,-2.6499,-2.6499,-2.6499,-2.6499,-2.6499,-2.6499,-2.6499,-2.6499,-2.6499,-2.6499,-2.6499,-2.6499,-2.6499,-2.6499,-2.6499,-2.6499,-2.6499,-2.8326,-2.794,-2.7591,-2.7556,-2.7439,-2.7188,-2.6552,-2.6045,-2.5299,-2.3806,-2.3254,-2.2696,-2.1501,-2.0814,-2.0276,-1.9865,-1.9409,-1.9108,-1.9108,-1.9108,-1.9108,-1.9108,-1.9108,-1.9108,-1.9108,-1.9264,-1.9616,-2.0291,-2.0996,-2.1647,-2.2329,-2.2811,-2.3108,-2.3108,-2.3108,-2.3108,-2.3108,-2.3108,-2.3108,-2.3108,-2.3108,-2.3108,-2.3108,-2.3108,-2.3108,-2.3108,-2.3108,-2.3108,-2.3108,-2.3108,-2.3108,-2.3108,-2.3108,-2.3108,-2.3108,-2.3108,-2.3198,-2.333,-2.345,-2.3599,-2.3802,-2.3878,-2.3936,-2.4021,-2.4194,-2.4262,-2.4393,-2.5027,-2.5184,-2.5253,-2.5795,-2.5907,-2.5882,-2.5884,-2.6226,-2.6515,-2.6291,-2.6024,-2.5845,-2.6016,-2.6278,-2.6499,-2.6499,-2.6499,-2.6499,-2.6499,-2.6499,-2.6499,-2.6499,-2.6499,-2.6499,-2.6499,-2.6499,-2.6499,-2.6499,-2.6499,-2.6499,-2.6499,-2.6499,-2.6499,-2.6499,-2.6499,-2.6499,-2.6499,-2.6499,-2.6499,-2.6499,-2.6499,-2.6499,-2.6499,-2.6499,-2.6499,-2.8154,-2.7782,-2.7387,-2.7639,-2.7581,-2.7469,-2.7268,-2.662,-2.572,-2.4588,-2.3745,-2.2898,-2.1956,-2.1031,-2.0276,-1.9865,-1.9409,-1.9108,-1.9108,-1.9108,-1.9108,-1.9108,-1.9108,-1.9108,-1.9108,-1.9682,-2.0323,-2.0996,-2.1678,-2.2341,-2.3005,-2.3065,-2.3108,-2.3108,-2.3108,-2.3108,-2.3108,-2.3108,-2.3108,-2.3108,-2.3108,-2.3108,-2.3108,-2.3108,-2.3108,-2.3108,-2.3108,-2.3108,-2.3108,-2.3108,-2.3108,-2.3108,-2.3108,-2.3108,-2.3108,-2.3108,-2.3108,-2.3108,-2.3138,-2.3271,-2.3433,-2.3433,-2.3509,-2.3748,-2.4456,-2.4684,-2.4832,-2.5553,-2.5602,-2.5606,-2.6201,-2.6245,-2.6242,-2.6793,-2.696,-2.6892,-2.671,-2.665,-2.6603,-2.6471,-2.6474,-2.6499,-2.6499,-2.6499,-2.6499,-2.6499,-2.6499,-2.6499,-2.6499,-2.6499,-2.6499,-2.6499,-2.6499,-2.6499,-2.6499,-2.6499,-2.6499,-2.6499,-2.6499,-2.6499,-2.6499,-2.6499,-2.6499,-2.6499,-2.6499,-2.6499,-2.6499,-2.6499,-2.6499,-2.6499,-2.6499,-2.6499,-2.8196,-2.7823,-2.747,-2.7659,-2.7452,-2.7262,-2.7411,-2.7154,-2.662,-2.5697,-2.4684,-2.3708,-2.2872,-2.1423,-2.0333,-2.0213,-1.9561,-1.9108,-1.9108,-1.9108,-1.9108,-1.9108,-1.9108,-1.9108,-1.9108,-1.933,-1.9911,-2.1028,-2.1313,-2.1939,-2.3035,-2.3108,-2.3108,-2.3108,-2.3108,-2.3108,-2.3108,-2.3108,-2.3108,-2.3108,-2.3108,-2.3108,-2.3108,-2.3108,-2.3108,-2.3108,-2.3108,-2.3108,-2.3108,-2.3108,-2.3108,-2.3108,-2.3108,-2.3108,-2.3108,-2.3108,-2.3108,-2.3108,-2.3241,-2.333,-2.3466,-2.39,-2.4075,-2.4239,-2.4882,-2.5093,-2.5209,-2.5807,-2.5929,-2.6025,-2.6629,-2.675,-2.6688,-2.679,-2.6726,-2.6671,-2.6589,-2.6555,-2.6555,-2.6499,-2.6499,-2.6499,-2.6499,-2.6499,-2.6499,-2.6499,-2.6499,-2.6499,-2.6499,-2.6499,-2.6499,-2.6499,-2.6499,-2.6499,-2.6499,-2.6499,-2.6499,-2.6499,-2.6499,-2.6499,-2.6499,-2.6499,-2.6499,-2.6499,-2.6499,-2.6499,-2.6499,-2.6499,-2.6499,-2.6499,-2.6499,-2.6499,-2.8303,-2.7998,0.0,-2.7778,-2.7417,-2.7098,-2.7419,-2.728,-2.6922,-2.6227,-2.551,-2.4612,-2.3404,-2.2074,-2.098,-2.0477,-1.9789,-1.9285,-1.9119,-1.9108,-1.9108,-1.9108,-1.9108,-1.9108,-1.9108,-1.9297,-1.9911,-2.1028,-2.1313,-2.1939,-2.3035,-2.3108,-2.3108,-2.3108,-2.3108,-2.3108,-2.3108,-2.3108,-2.3108,-2.3108,-2.3108,-2.3108,-2.3108,-2.3108,-2.3108,-2.3108,-2.3108,-2.3108,-2.3108,-2.3108,-2.3108,-2.3108,-2.3108,-2.3108,-2.3108,-2.3108,-2.3108,-2.3108,-2.3241,-2.3427,-2.3685,-2.4113,-2.4385,-2.4671,-2.5282,-2.548,-2.564,-2.6235,-2.6368,-2.6378,-2.6807,-2.6875,-2.6807,-2.6658,-2.6555,-2.6499,-2.6499,-2.6499,-2.6499,-2.6499,-2.6499,-2.6499,-2.6499,-2.6499,-2.6499,-2.6499,-2.6499,-2.6499,-2.6499,-2.6499,-2.6499,-2.6499,-2.6499,-2.6499,-2.6499,-2.6499,-2.6499,-2.6499,-2.6499,-2.6499,-2.6499,-2.6499,-2.6499,-2.6499,-2.6499,-2.6499,-2.6499,-2.6499,-2.6499,-2.6499,-2.6499,-2.6499,0.0,0.0,0.0,-2.8054,-2.7431,-2.6996,-2.742,-2.7053,-2.6576,-2.6208,-2.6114,-2.5521,-2.3613,-2.2953,-2.2202,-2.0718,-2.0093,-1.9637,-1.9181,-1.9108,-1.9108,-1.9108,-1.9108,-1.9108,-1.9108,-1.9682,-2.0355,-2.104,-2.171,-2.2359,-2.3078,-2.3108,-2.3108,-2.3108,-2.3108,-2.3108,-2.3108,-2.3108,-2.3108,-2.3108,-2.3108,-2.3108,-2.3108,-2.3108,-2.3108,-2.3108,-2.3108,-2.3108,-2.3108,-2.3108,-2.3108,-2.3108,-2.3108,-2.3108,-2.3108,-2.3108,-2.3108,-2.3133,-2.3133,-2.3509,-2.4029,-2.4042,-2.4406,-2.4946,-2.5717,-2.5914,-2.6062,-2.679,-2.6841,-2.6679,-2.6679,-2.6589,-2.6499,-2.6499,-2.6499,-2.6499,-2.6499,-2.6499,-2.6499,-2.6499,-2.6499,-2.6499,-2.6499,-2.6499,-2.6499,-2.6499,-2.6499,-2.6499,-2.6499,-2.6499,-2.6499,-2.6499,-2.6499,-2.6499,-2.6499,-2.6499,-2.6499,-2.6499,-2.6499,-2.6499,-2.6499,-2.6499,-2.6499,-2.6499,-2.6499,-2.6499,-2.6499,-2.6499,-2.6499,-2.6499,-2.6499,-2.6499,-2.8411,0.0,0.0,0.0,0.0,0.0,-2.7503,-2.6821,-2.6238,-2.6982,-2.6245,-2.5413,-2.532,-2.4661,-2.3825,-2.2945,-2.112,-1.9751,-1.9616,-1.9316,-1.9108,-1.9108,-1.9108,-1.9108,-1.9108,-1.9264,-1.9846,-2.0996,-2.1282,-2.1877,-2.3047,-2.3108,-2.3108,-2.3108,-2.3108,-2.3108,-2.3108,-2.3108,-2.3108,-2.3108,-2.3108,-2.3108,-2.3108,-2.3108,-2.3108,-2.3108,-2.3108,-2.3108,-2.3108,-2.3108,-2.3108,-2.3108,-2.3108,-2.3108,-2.3108,-2.3108,-2.3371,-2.3753,-2.3753,-2.4117,-2.4625,-2.5034,-2.5259,-2.5485,-2.6152,-2.6328,-2.6366,-2.6586,-2.6602,-2.6555,-2.6555,-2.6521,-2.6499,-2.6499,-2.6499,-2.6499,-2.6499,-2.6499,-2.6499,-2.6499,-2.6499,-2.6499,-2.6499,-2.6499,-2.6499,-2.6499,-2.6499,-2.6499,-2.6499,-2.6499,-2.6499,-2.6499,-2.6499,-2.6499,-2.6499,-2.6499,-2.6499,-2.6499,-2.6499,-2.6499,-2.6499,-2.6499,-2.6499,-2.6499,-2.6499,-2.6499,-2.6499,-2.6499,-2.6499,-2.6499,-2.6499,-2.6499,-2.8057,0.0,0.0,-2.817,0.0,0.0,-2.7577,-2.6947,-2.6489,-2.7321,-2.6791,-2.6135,-2.6099,-2.565,-2.5038,-2.4237,-2.2659,-2.1333,-2.0759,-2.0421,-2.0084,-1.9572,-1.9528,-1.9429,-1.9131,-1.9363,-1.9977,-2.1028,-2.1376,-2.197,-2.3035,-2.3108,-2.3108,-2.3108,-2.3108,-2.3108,-2.3108,-2.3108,-2.3108,-2.3108,-2.3108,-2.3108,-2.3108,-2.3108,-2.3108,-2.3108,-2.3108,-2.3108,-2.3108,-2.3108,-2.3108,-2.3108,-2.3108,-2.3108,-2.3108,-2.3108,-2.3471,-2.4004,-2.4004,-2.4506,-2.5197,-2.5498,-2.5762,-2.6047,-2.6386,-2.6499,-2.6499,-2.6499,-2.6499,-2.6499,-2.6499,-2.6499,-2.6499,-2.6499,-2.6499,-2.6499,-2.6499,-2.6499,-2.6499,-2.6499,-2.6499,-2.6499,-2.6499,-2.6499,-2.6499,-2.6499,-2.6499,-2.6499,-2.6499,-2.6499,-2.6499,-2.6499,-2.6499,-2.6499,-2.6499,-2.6499,-2.6499,-2.6499,-2.6499,-2.6499,-2.6499,-2.6499,-2.6499,-2.6499,-2.6499,-2.6499,-2.6499,-2.6499,-2.6499,-2.6499,-2.6499,-2.6499,-2.7673,-2.795,0.0,-2.8252,-2.7769,0.0,-2.7676,-2.7248,-2.6924,-2.7438,-2.7407,-2.707,-2.6303,-2.6161,-2.5852,-2.4931,-2.454,-2.3832,-2.23,-2.2049,-2.1624,-2.0533,-2.0391,-2.0161,-1.9577,-1.9976,-2.0594,-2.1279,-2.187,-2.2463,-2.3078,-2.3108,-2.3108,-2.3108,-2.3108,-2.3108,-2.3108,-2.3108,-2.3108,-2.3108,-2.3108,-2.3108,-2.3108,-2.3108,-2.3108,-2.3108,-2.3108,-2.3108,-2.3108,-2.3108,-2.3108,-2.3108,-2.3108,-2.3145,-2.3195,-2.3195,-2.3597,-2.418,-2.418,-2.4845,-2.5686,-2.5686,-2.6072,-2.6499,-2.6499,-2.6499,-2.6499,-2.6499,-2.6499,-2.6499,-2.6499,-2.6499,-2.6499,-2.6499,-2.6499,-2.6499,-2.6499,-2.6499,-2.6499,-2.6499,-2.6499,-2.6499,-2.6499,-2.6499,-2.6499,-2.6499,-2.6499,-2.6499,-2.6499,-2.6499,-2.6499,-2.6499,-2.6499,-2.6499,-2.6499,-2.6499,-2.6499,-2.6499,-2.6499,-2.6499,-2.6499,-2.6499,-2.6499,-2.6499,-2.6499,-2.6499,-2.6499,-2.6499,-2.6499,-2.6499,-2.6499,-2.6499,-2.8242,-2.8304,-2.8378,-2.8379,-2.7836,0.0,-2.7973,-2.7082,-2.6456,-2.7525,-2.6881,-2.6223,-2.6521,-2.6587,-2.6303,-2.5472,-2.607,-2.5877,-2.3662,-2.3013,-2.2644,-2.2307,-2.2262,-2.2228,-2.2082,-2.1774,-2.1839,-2.2583,-2.2813,-2.2944,-2.3095,-2.3108,-2.3108,-2.3108,-2.3108,-2.3108,-2.3108,-2.3108,-2.3108,-2.3108,-2.3108,-2.3108,-2.3108,-2.3108,-2.3108,-2.3108,-2.3108,-2.3108,-2.3108,-2.3108,-2.3108,-2.3108,-2.3108,-2.3396,-2.3828,-2.3828,-2.4456,-2.5285,-2.5285,-2.5724,-2.6323,-2.6323,-2.6399,-2.6499,-2.6499,-2.6499,-2.6499,-2.6499,-2.6499,-2.6499,-2.6499,-2.6499,-2.6499,-2.6499,-2.6499,-2.6499,-2.6499,-2.6499,-2.6499,-2.6499,-2.6499,-2.6499,-2.6499,-2.6499,-2.6499,-2.6499,-2.6499,-2.6499,-2.6499,-2.6499,-2.6499,-2.6499,-2.6499,-2.6499,-2.6499,-2.6499,-2.6499,-2.6499,-2.6499,-2.6499,-2.6499,-2.6499,-2.6499,-2.6499,-2.6499,-2.6499,-2.6499,-2.6499,-2.6499,-2.6499,-2.6499,-2.6499,-2.7751,-2.779,-2.798,-2.8319,-2.8122,0.0,0.0,-2.763,-2.7229,-2.7712,-2.728,-2.6774,-2.6714,-2.672,-2.6577,-2.6166,-2.6629,-2.6526,-2.5243,-2.4804,-2.4302,-2.3537,-2.3447,-2.3268,-2.2853,-2.2821,-2.3141,-2.3825,-2.3387,-2.3233,-2.3521,-2.3258,-2.3108,-2.3108,-2.3108,-2.3108,-2.3108,-2.3108,-2.3108,-2.3108,-2.3108,-2.3108,-2.3108,-2.3108,-2.3108,-2.3108,-2.3108,-2.3108,-2.3108,-2.3108,-2.3108,-2.3108,-2.3108,-2.3459,-2.4004,-2.4004,-2.4682,-2.5598,-2.5598,-2.6009,-2.6499,-2.6499,-2.6499,-2.6499,-2.6499,-2.6499,-2.6499,-2.6499,-2.6499,-2.6499,-2.6499,-2.6499,-2.6499,-2.6499,-2.6499,-2.6499,-2.6499,-2.6499,-2.6499,-2.6499,-2.6499,-2.6499,-2.6499,-2.6499,-2.6499,-2.6499,-2.6499,-2.6499,-2.6499,-2.6499,-2.6499,-2.6499,-2.6499,-2.6499,-2.6499,-2.6499,-2.6499,-2.6499,-2.6499,-2.6499,-2.6499,-2.6499,-2.6499,-2.6499,-2.6499,-2.6499,-2.6499,-2.6499,-2.6499,-2.6499,-2.6499,-2.6499,-2.734,-2.7425,-2.7719,-2.8273,-2.8411,-2.8363,0.0,0.0,0.0,-2.7762,-2.7541,-2.7216,-2.65,-2.6444,-2.6478,-2.6365,-2.6567,-2.6632,-2.6472,-2.6259,-2.5708,-2.4624,-2.4575,-2.4359,-2.3631,-2.3833,-2.4198,-2.4755,-2.3847,-2.3521,-2.413,-2.3584,-2.3271,-2.3271,-2.3158,-2.3108,-2.3108,-2.3108,-2.3108,-2.3108,-2.3108,-2.3108,-2.3108,-2.3108,-2.3108,-2.3108,-2.3108,-2.3108,-2.3108,-2.3108,-2.3108,-2.3108,-2.3233,-2.3622,-2.4167,-2.4268,-2.4921,-2.5762,-2.5762,-2.6097,-2.6499,-2.6499,-2.6499,-2.6499,-2.6499,-2.6499,-2.6499,-2.6499,-2.6499,-2.6499,-2.6499,-2.6499,-2.6499,-2.6499,-2.6499,-2.6499,-2.6499,-2.6499,-2.6499,-2.6499,-2.6499,-2.6499,-2.6499,-2.6499,-2.6499,-2.6499,-2.6499,-2.6499,-2.6499,-2.6499,-2.6499,-2.6499,-2.6499,-2.6499,-2.6499,-2.6499,-2.6499,-2.6499,-2.6499,-2.6499,-2.6499,-2.6499,-2.6499,-2.6499,-2.6499,-2.6499,-2.6499,-2.6499,-2.6499,-2.6499,-2.6499,-2.6499,-2.8244,-2.8251,-2.8304,-2.8381,-2.8411,-2.8403,-2.8367,0.0,-2.8018,-2.7403,0.0,-2.5919,-2.5228,0.0,0.0,-2.5187,-2.5993,-2.6695,-2.6664,-2.6184,-2.5864,-2.5855,-2.6332,-2.657,-2.6285,-2.5306,-2.4723,-2.4788,-2.4255,-2.4142,-2.4662,-2.4205,-2.3904,-2.3904,-2.3371,-2.3108,-2.3108,-2.3108,-2.3108,-2.3108,-2.3108,-2.3108,-2.3108,-2.3108,-2.3108,-2.3108,-2.3108,-2.3108,-2.3108,-2.3108,-2.3108,-2.3158,-2.3703,-2.4243,-2.4782,-2.5247,-2.5812,-2.6399,-2.6399,-2.6436,-2.6499,-2.6499,-2.6499,-2.6499,-2.6499,-2.6499,-2.6499,-2.6499,-2.6499,-2.6499,-2.6499,-2.6499,-2.6499,-2.6499,-2.6499,-2.6499,-2.6499,-2.6499,-2.6499,-2.6499,-2.6499,-2.6499,-2.6499,-2.6499,-2.6499,-2.6499,-2.6499,-2.6499,-2.6499,-2.6499,-2.6499,-2.6499,-2.6499,-2.6499,-2.6499,-2.6499,-2.6499,-2.6499,-2.6499,-2.6499,-2.6499,-2.6499,-2.6499,-2.6499,-2.6499,-2.6499,-2.6499,-2.6499,-2.6499,-2.6499,-2.6499,-2.6499,-2.8101,-2.7937,-2.7808,-2.828,-2.8348,-2.8299,-2.8372,-2.8056,-2.7624,-2.7262,0.0,0.0,0.0,0.0,0.0,0.0,-2.6105,-2.6696,-2.6696,-2.6777,-2.6679,-2.6317,-2.6206,-2.6173,-2.624,-2.5469,-2.5201,-2.5757,-2.4669,-2.4368,-2.5222,-2.477,-2.4469,-2.4469,-2.3929,-2.364,-2.364,-2.3271,-2.3108,-2.3108,-2.3108,-2.3108,-2.3108,-2.3108,-2.3108,-2.3108,-2.3108,-2.3108,-2.3108,-2.3108,-2.3308,-2.369,-2.4255,-2.4587,-2.485,-2.541,-2.5996,-2.6499,-2.6499,-2.6499,-2.6499,-2.6499,-2.6499,-2.6499,-2.6499,-2.6499,-2.6499,-2.6499,-2.6499,-2.6499,-2.6499,-2.6499,-2.6499,-2.6499,-2.6499,-2.6499,-2.6499,-2.6499,-2.6499,-2.6499,-2.6499,-2.6499,-2.6499,-2.6499,-2.6499,-2.6499,-2.6499,-2.6499,-2.6499,-2.6499,-2.6499,-2.6499,-2.6499,-2.6499,-2.6499,-2.6499,-2.6499,-2.6499,-2.6499,-2.6499,-2.6499,-2.6499,-2.6499,-2.6499,-2.6499,-2.6499,-2.6499,-2.6499,-2.6499,-2.6499,-2.6499,-2.6499,-2.7953,-2.7767,-2.7622,-2.8225,-2.8323,-2.8213,-2.8141,-2.7888,-2.7541,-2.7049,-2.6704,0.0,0.0,0.0,0.0,0.0,0.0,-2.6763,-2.6905,-2.7046,-2.687,-2.6301,-2.594,-2.5884,-2.6266,-2.5581,-2.5489,-2.648,-2.5104,-2.4695,-2.5774,-2.5322,-2.5034,-2.5034,-2.4506,-2.4217,-2.4217,-2.3622,-2.3346,-2.3333,-2.3183,-2.3108,-2.3108,-2.3108,-2.3108,-2.3108,-2.3108,-2.3195,-2.3346,-2.3346,-2.3672,-2.428,-2.482,-2.5034,-2.5096,-2.5636,-2.6135,-2.6499,-2.6499,-2.6499,-2.6499,-2.6499,-2.6499,-2.6499,-2.6499,-2.6499,-2.6524,-2.6675,-2.6713,-2.6751,-2.6901,-2.6952,-2.6952,-2.6952,-2.6952,-2.6952,-2.6952,-2.6952,-2.6952,-2.6952,-2.6952,-2.6952,-2.6952,-2.6688,-2.6499,-2.6499,-2.6499,-2.6499,-2.6499,-2.6499,-2.6499,-2.6499,-2.6499,-2.6499,-2.6499,-2.6499,-2.6499,-2.6499,-2.6499,-2.6499,-2.6499,-2.6499,-2.6499,-2.6499,-2.6499,-2.6499,-2.6499,-2.6499,-2.6499,-2.6499,-2.6499,-2.6499,-2.8155,-2.818,-2.822,-2.8372,-2.8411,-2.8227,-2.758,-2.7919,-2.7996,-2.6619,-2.6796,-2.6971,-2.6268,0.0,0.0,0.0,0.0,0.0,0.0,-2.6575,-2.5855,-2.5833,-2.6143,-2.6588,-2.7191,-2.596,-2.5554,-2.6603,-2.5489,-2.5272,-2.6411,-2.5921,-2.5573,-2.5573,-2.5059,-2.4763,-2.4763,-2.4243,-2.3966,-2.3966,-2.3371,-2.3108,-2.3108,-2.3108,-2.3108,-2.3108,-2.3108,-2.3421,-2.3966,-2.3966,-2.4293,-2.4813,-2.536,-2.5573,-2.5636,-2.6248,-2.6474,-2.6499,-2.6499,-2.6499,-2.6499,-2.6499,-2.6499,-2.6499,-2.6499,-2.6499,-2.6612,-2.714,-2.7256,-2.7381,-2.7908,-2.8059,-2.8059,-2.8059,-2.8059,-2.8059,-2.8059,-2.8059,-2.8059,-2.8059,-2.8059,-2.8059,-2.8059,-2.7203,-2.6499,-2.6499,-2.6499,-2.6499,-2.6499,-2.6499,-2.6499,-2.6499,-2.6499,-2.6499,-2.6499,-2.6499,-2.6499,-2.6499,-2.6499,-2.6499,-2.6499,-2.6499,-2.6499,-2.6499,-2.6499,-2.6499,-2.6499,-2.6499,-2.6499,-2.6499,-2.6499,-2.6499,-2.8054,-2.7989,-2.7989,-2.821,-2.7865,-2.7459,-2.7395,-2.7226,-2.6934,-2.6457,-2.6526,-2.6573,-2.6252,0.0,0.0,0.0,0.0,0.0,0.0,-2.6957,-2.671,-2.757,-2.7021,-2.6476,-2.6215,-2.603,-2.6012,-2.6176,-2.576,-2.5807,-2.6461,-2.6311,-2.6197,-2.6197,-2.5624,-2.5335,-2.5335,-2.4443,-2.4004,-2.3991,-2.3384,-2.3108,-2.3108,-2.3108,-2.3108,-2.312,-2.3509,-2.3816,-2.4029,-2.4393,-2.4858,-2.536,-2.5523,-2.5824,-2.6223,-2.6424,-2.6499,-2.6499,-2.6499,-2.6499,-2.6499,-2.6499,-2.6499,-2.6562,-2.6927,-2.704,-2.7153,-2.767,-2.7821,-2.7871,-2.8059,-2.8109,-2.8109,-2.8109,-2.8109,-2.8109,-2.8109,-2.8109,-2.8109,-2.8109,-2.8109,-2.8109,-2.8109,-2.7795,-2.7544,-2.7544,-2.7544,-2.7544,-2.7544,-2.7544,-2.7544,-2.7544,-2.7218,-2.704,-2.704,-2.67,-2.6499,-2.6499,-2.6499,-2.6499,-2.6499,-2.6499,-2.6499,-2.6499,-2.6499,-2.6499,-2.6499,-2.6499,-2.6499,-2.6499,-2.6499,-2.6499,-2.793,-2.788,-2.784,-2.8063,-2.7735,-2.7354,-2.7324,-2.7195,-2.6957,-2.6734,-2.6888,-2.6995,-2.6855,-2.7183,0.0,0.0,0.0,0.0,0.0,-2.7528,-2.7595,-2.8182,-2.7343,-2.6763,-2.6966,-2.6458,-2.6282,-2.6713,-2.6096,-2.596,-2.6552,-2.6555,-2.6555,-2.6499,-2.6135,-2.59,-2.59,-2.5008,-2.4569,-2.4556,-2.3803,-2.3509,-2.3697,-2.3283,-2.3321,-2.371,-2.3916,-2.4217,-2.4594,-2.4946,-2.541,-2.59,-2.59,-2.6172,-2.6499,-2.6499,-2.6499,-2.6499,-2.6499,-2.6499,-2.6499,-2.6499,-2.6625,-2.6851,-2.7216,-2.7419,-2.7695,-2.8247,-2.8361,-2.8448,-2.8649,-2.8699,-2.8699,-2.8699,-2.8699,-2.8699,-2.8699,-2.8699,-2.8699,-2.8699,-2.8699,-2.8699,-2.8699,-2.8699,-2.8574,-2.816,-2.8109,-2.8109,-2.8109,-2.8109,-2.8109,-2.8109,-2.7783,-2.7494,-2.7341,-2.6989,-2.67,-2.6512,-2.6499,-2.6499,-2.6499,-2.6499,-2.6499,-2.6499,-2.6499,-2.6499,-2.6499,-2.6499,-2.6499,-2.6499,-2.6499,-2.6499]},{"header":{"parameterUnit":"m.s-1","parameterCategory":1,"la1":30.6,"la2":29.2853,"lo1":-89.7004,"lo2":-87.6739,"dy":0.0162,"dx":0.0183,"nx":112,"ny":82,"refTime":"2026-03-04T00:00:00:Z","depth":0,"parameterNumber":3,"parameterNumberName":"V-component_of_WINDS"},"data":[0.0,0.0,0.0,0.0,0.0,0.0,0.0,0.0,0.0,0.0,0.0,0.0,0.0,0.0,0.0,0.0,0.0,0.0,0.0,0.0,0.0,0.0,0.0,0.0,0.0,0.0,0.0,0.0,0.0,0.0,0.0,0.0,0.0,0.0,0.0,0.0,0.0,0.0,0.0,0.0,0.0,0.0,0.0,0.0,0.0,0.0,0.0,0.0,0.0,0.0,0.0,0.0,0.0,0.0,0.0,0.0,0.0,0.0,0.0,0.0,0.0,0.0,0.0,0.0,0.0,0.0,0.0,0.0,0.0,0.0,0.0,0.0,0.0,0.0,0.0,0.0,0.0,0.0,0.0,0.0,0.0,0.0,0.0,0.0,0.0,0.0,0.0,0.0,0.0,0.0,0.6309,0.6147,0.6127,0.6127,0.6083,0.5891,0.4993,0.3197,0.0,0.0,0.0,0.0,0.0,0.0,0.0,0.0,0.0,0.0,0.0,0.0,0.0,0.0,0.0,0.0,0.0,0.0,0.0,0.0,0.0,0.0,0.0,0.0,0.0,0.0,0.0,0.0,0.0,0.0,0.0,0.0,0.0,0.0,0.0,0.0,0.0,0.0,0.0,0.0,0.0,0.0,0.0,0.0,0.0,0.0,0.0,0.0,0.0,0.0,0.0,0.0,0.0,0.0,0.0,0.0,0.0,0.0,0.0,0.0,0.0,0.0,0.0,0.0,0.0,0.0,0.0,0.0,0.0,0.0,0.0,0.0,0.0,0.0,0.0,0.0,0.0,0.0,0.0,0.0,0.0,0.0,0.0,0.0,0.0,0.0,0.0,0.0,0.0,0.0,0.0,0.0,0.0,0.0,0.0,0.0,0.0,0.0,0.0,0.0,0.0,0.0,0.0,0.0,0.6655,0.6661,0.6498,0.6302,0.6127,0.5938,0.5296,0.399,0.0,0.0,0.0,0.0,0.0,0.0,0.0,0.0,0.0,0.0,0.0,0.0,0.0,0.0,0.0,0.0,0.0,0.0,0.0,0.0,0.0,0.0,0.0,0.0,0.0,0.0,0.0,0.0,0.0,0.0,0.0,0.0,0.0,0.0,0.0,0.0,0.0,0.0,0.0,0.0,0.0,0.0,0.0,0.0,0.0,0.0,0.0,0.0,0.0,0.0,0.0,0.0,0.0,0.0,0.0,0.0,0.0,0.0,0.0,0.0,0.0,0.0,0.0,0.0,0.0,0.0,0.0,0.0,0.0,0.0,0.0,0.0,0.0,0.0,0.0,0.0,0.0,0.0,0.0,0.0,0.0,0.0,0.0,0.0,0.0,0.0,0.0,0.0,0.0,0.0,0.0,0.0,0.0,0.0,0.0,0.0,0.0,0.0,0.0,0.0,0.0,0.0,0.0,0.6667,0.6771,0.6936,0.6745,0.6567,0.6482,0.6204,0.5518,0.4409,0.3439,0.0,0.0,0.0,0.0,0.0,0.0,0.0,0.0,0.0,0.0,0.0,0.0,0.0,0.0,0.0,0.0,0.0,0.0,0.0,0.0,0.0,0.0,0.0,0.0,0.0,0.0,0.0,0.0,0.0,0.0,0.0,0.0,0.0,0.0,0.0,0.0,0.0,0.0,0.0,0.0,0.0,0.0,0.0,0.0,0.0,0.0,0.0,0.0,0.0,0.0,0.0,0.0,0.0,0.0,0.0,0.0,0.0,0.0,0.0,0.0,0.0,0.0,0.0,0.0,0.0,0.0,0.0,0.0,0.0,0.0,0.0,0.0,0.0,0.0,0.0,0.0,0.0,0.0,0.0,0.0,0.0,0.0,0.0,0.0,0.0,0.0,0.0,0.0,0.0,0.0,0.0,0.0,0.0,0.0,0.0,0.0,0.0,0.0,0.0,0.0,0.0,0.0,0.7253,0.7186,0.742,0.7098,0.6836,0.6795,0.6454,0.5808,0.4829,0.3796,0.0,0.0,0.0,0.0,0.0,0.0,0.0,0.0,0.0,0.0,0.0,0.0,0.0,0.0,0.0,0.0,0.0,0.0,0.0,0.0,0.0,0.0,0.0,0.0,0.0,0.0,0.0,0.0,0.0,0.0,0.0,0.0,0.0,0.0,0.0,0.0,0.0,0.0,0.0,0.0,0.0,0.0,0.0,0.0,0.0,0.0,0.0,0.0,0.0,0.0,0.0,0.0,0.0,0.0,0.0,0.0,0.0,0.0,0.0,0.0,0.0,0.0,0.0,0.0,0.0,0.0,0.0,0.0,0.0,0.0,0.0,0.0,0.0,0.0,0.0,0.0,0.0,0.0,0.0,0.0,0.0,0.0,0.0,0.0,0.0,0.0,0.0,0.0,0.0,0.0,0.0,0.0,0.0,0.0,0.0,0.0,0.0,0.0,0.0,0.0,0.0,0.0,0.8683,0.8384,0.8408,0.7621,0.701,0.6836,0.667,0.6275,0.5674,0.4688,0.0,0.0,0.0,0.0,0.0,0.0,0.0,0.0,0.0,0.0,0.0,0.0,0.0,0.0,0.0,0.0,0.0,0.0,0.0,0.0,0.0,0.0,0.0,0.0,0.0,0.0,0.0,0.0,0.0,0.0,0.0,0.0,0.0,0.0,0.0,0.0,0.0,0.0,0.0,0.0,0.0,0.0,0.0,0.0,0.0,0.0,0.0,0.0,0.0,0.0,0.0,0.0,0.0,0.0,0.0,0.0,0.0,0.0,0.0,0.0,0.0,0.0,0.0,0.0,0.0,0.0,0.0,0.0,0.0,0.0,0.0,0.0,0.0,0.0,0.0,0.0,0.0,0.0,0.0,0.0,0.0,0.0,0.0,0.0,0.0,0.0,0.0,0.0,0.0,0.0,0.0,0.0,0.0,0.0,0.0,0.0,0.0,0.0,0.0,0.0,0.0,0.0,0.9266,0.9065,0.8575,0.8193,0.7709,0.7054,0.6625,0.626,0.596,0.0,0.0,0.0,0.0,0.0,0.0,0.0,0.0,0.0,0.0,0.0,0.0,0.0,0.0,0.0,0.0,0.0,0.0,0.0,0.0,0.0,0.0,0.0,0.0,0.0,0.0,0.0,0.0,0.0,0.0,0.0,0.0,0.0,0.0,0.0,0.0,0.0,0.0,0.0,0.0,0.0,0.0,0.0,0.0,0.0,0.0,0.0,0.0,0.0,0.0,0.0,0.0,0.0,0.0,0.0,0.0,0.0,0.0,0.0,0.0,0.0,0.0,0.0,0.0,0.0,0.0,0.0,0.0,0.0,0.0,0.0,0.0,0.0,0.0,0.0,0.0,0.0,0.0,0.0,0.0,0.0,0.0,0.0,0.0,0.0,0.0,0.0,0.0,0.0,0.0,0.0,0.0,0.0,0.0,0.0,0.0,0.0,0.0,0.0,0.0,0.0,0.0,1.009,1.0119,0.9917,0.9435,0.8957,0.8412,0.7767,0.7058,0.6556,0.6394,0.0,0.0,0.0,0.0,0.0,0.0,0.0,0.0,0.0,0.0,0.0,0.0,0.0,0.0,0.0,0.0,0.0,0.0,0.0,0.0,0.0,0.0,0.0,0.0,0.0,0.0,0.0,0.0,0.0,0.0,0.0,0.0,0.0,0.0,0.0,0.0,0.0,0.0,0.0,0.0,0.0,0.0,0.0,0.0,0.0,0.0,0.0,0.0,0.0,0.0,0.0,0.0,0.0,0.0,0.0,0.0,0.0,0.0,0.0,0.0,0.0,0.0,0.0,0.0,0.0,0.0,0.0,0.0,0.0,0.0,0.0,0.0,0.0,0.0,0.0,0.0,0.0,0.0,0.0,0.0,0.0,0.0,0.0,0.0,0.0,0.0,0.0,0.0,0.0,0.0,0.0,0.0,0.0,0.0,0.0,0.0,0.0,0.0,0.0,0.0,0.0,0.0,1.1764,1.1314,1.101,1.1246,0.9971,0.91,0.91,0.799,0.7203,0.0,0.0,0.0,0.0,0.0,0.0,0.0,0.0,0.0,0.0,0.0,0.0,0.0,0.0,0.0,0.0,0.0,0.0,0.0,0.0,0.0,0.0,0.0,0.0,0.0,0.0,0.0,0.0,0.0,0.0,0.0,0.0,0.0,0.0,0.0,0.0,0.0,0.0,0.0,0.0,0.0,0.0,0.0,0.0,0.0,0.0,0.0,0.0,0.0,0.0,0.0,0.0,0.0,0.0,0.0,0.0,0.0,0.0,0.0,0.0,0.0,0.0,0.0,0.0,0.0,0.0,0.0,0.0,0.0,0.0,0.0,0.0,0.0,0.0,0.0,0.0,0.0,0.0,0.0,0.0,0.0,0.0,0.0,0.0,0.0,0.0,0.0,0.0,0.0,0.0,0.0,0.0,0.0,0.0,0.0,0.0,0.0,0.0,0.0,0.0,0.0,0.0,0.0,1.1744,1.1585,1.122,1.0701,1.0097,0.9411,0.8592,0.8208,0.7691,0.6915,0.0,0.0,0.0,0.0,0.0,0.0,0.0,0.0,0.0,0.0,0.0,0.0,0.0,0.0,0.0,0.0,0.0,0.0,0.0,0.0,0.0,0.0,0.0,0.0,0.0,0.0,0.0,0.0,0.0,0.0,0.0,0.0,0.0,0.0,0.0,0.0,0.0,0.0,0.0,0.0,0.0,0.0,0.0,0.0,0.0,0.0,0.0,0.0,0.0,0.0,0.0,0.0,0.0,0.0,0.0,0.0,0.0,0.0,0.0,0.0,0.0,0.0,0.0,0.0,0.0,0.0,0.0,0.0,0.0,0.0,0.0,0.0,0.0,0.0,0.0,0.0,0.0,0.0,0.0,0.0,0.0,0.0,0.0,0.0,0.0,0.0,0.0,0.0,0.0,0.0,0.0,0.0,0.0,0.0,0.0,0.0,0.0,0.0,0.0,0.0,0.0,0.0,1.1683,1.1589,1.1292,1.0936,1.0527,1.0053,0.9348,0.9047,0.861,0.7997,0.0,0.0,0.0,0.0,0.0,0.0,0.0,0.0,0.0,0.0,0.0,0.0,0.0,0.0,0.0,0.0,0.0,0.0,0.0,0.0,0.0,0.0,0.0,0.0,0.0,0.0,0.0,0.0,0.0,0.0,0.0,0.0,0.0,0.0,0.0,0.0,0.0,0.0,0.0,0.0,0.0,0.0,0.0,0.0,0.0,0.0,0.0,0.0,0.0,0.0,0.0,0.0,0.0,0.0,0.0,0.0,0.0,0.0,0.0,0.0,0.0,0.0,0.0,0.0,0.0,0.0,0.0,0.0,0.0,0.0,0.0,0.0,0.0,0.0,0.0,0.0,0.0,0.0,0.0,0.0,0.0,0.0,0.0,0.0,0.0,0.0,0.0,0.0,0.0,0.0,0.0,0.0,0.0,0.0,0.0,0.0,0.0,0.0,0.0,0.0,0.0,0.0,1.1624,1.1365,1.1234,1.1506,1.1051,1.0763,1.0729,1.0175,0.9777,0.9679,0.0,0.0,0.0,0.0,0.0,0.0,0.0,0.0,0.0,0.0,0.0,0.0,0.0,0.0,0.0,0.0,0.0,0.0,0.0,0.0,0.0,0.0,0.0,0.0,0.0,0.0,0.0,0.0,0.0,0.0,0.0,0.0,0.0,0.0,0.0,0.0,0.0,0.0,0.0,0.0,0.0,0.0,0.0,0.0,0.0,0.0,0.0,0.0,0.0,0.0,0.0,0.0,0.0,0.0,0.0,0.0,0.0,0.0,0.0,0.0,1.5967,1.5141,0.0,0.0,0.0,0.0,0.0,0.0,0.0,0.0,0.0,0.0,0.0,0.0,0.0,0.0,0.0,0.0,0.0,0.0,0.0,0.0,0.0,0.0,0.0,0.0,0.0,0.0,0.0,0.0,0.0,0.0,0.0,0.0,0.0,0.0,0.0,0.0,0.0,0.0,0.0,0.0,1.1533,1.1106,1.0758,1.0871,1.0593,1.0354,1.0192,1.0457,1.0293,0.9524,0.9373,0.0,0.0,0.0,0.0,0.0,0.0,0.0,0.0,0.0,0.0,0.0,0.0,0.0,0.0,0.0,0.0,0.0,0.0,0.0,0.0,0.0,0.0,0.0,0.0,0.0,0.0,0.0,0.0,0.0,0.0,0.0,0.0,0.0,0.0,0.0,0.0,0.0,0.0,0.0,0.0,0.0,0.0,0.0,0.0,0.0,0.0,0.0,0.0,0.0,0.0,0.0,0.0,0.0,0.0,0.0,0.0,0.0,0.0,0.0,1.74,1.6601,0.0,0.0,0.0,0.0,0.0,0.0,0.0,0.0,0.0,0.0,0.0,0.0,0.0,0.0,0.0,0.0,0.0,0.0,0.0,0.0,0.0,0.0,0.0,0.0,0.0,0.0,0.0,0.0,0.0,0.0,0.0,0.0,0.0,0.0,0.0,0.0,0.0,0.0,0.0,0.0,1.2467,1.1945,1.1534,1.1567,1.1136,1.0951,1.1188,1.1054,1.0933,1.0834,1.0299,0.0,0.0,0.0,0.0,0.0,0.0,0.0,0.0,0.0,0.0,0.0,0.0,0.0,0.0,0.0,0.0,0.0,0.0,0.0,0.0,0.0,0.0,0.0,0.0,0.0,0.0,0.0,0.0,0.0,0.0,0.0,0.0,0.0,0.0,0.0,0.0,0.0,0.0,0.0,0.0,0.0,0.0,0.0,0.0,0.0,0.0,0.0,0.0,0.0,0.0,0.0,0.0,0.0,1.8591,1.876,1.8571,1.9196,1.9815,2.0287,1.8939,1.8278,1.8113,1.8062,0.0,0.0,0.0,0.0,0.0,0.0,0.0,0.0,0.0,0.0,0.0,0.0,0.0,0.0,0.0,0.0,0.0,0.0,0.0,0.0,0.0,0.0,1.3877,1.4053,1.3943,1.3902,1.4221,0.0,0.0,0.0,0.0,0.0,0.0,0.0,0.0,0.0,0.0,0.0,1.3563,1.3012,1.2543,1.2512,1.1996,1.1911,1.2451,1.1799,1.1678,1.2468,1.1376,1.1067,0.0,0.0,0.0,0.0,0.0,0.0,0.0,0.0,0.0,0.0,0.0,0.0,0.0,0.0,0.0,0.0,0.0,0.0,0.0,0.0,0.0,0.0,0.0,0.0,0.0,0.0,0.0,0.0,0.0,0.0,0.0,0.0,1.9718,2.0127,0.0,0.0,0.0,0.0,0.0,0.0,0.0,0.0,0.0,0.0,0.0,0.0,0.0,1.9688,2.0157,2.0501,2.0692,2.0692,2.0757,2.0826,2.0778,2.0893,2.0993,2.1095,2.164,0.0,1.9856,1.9486,0.0,0.0,0.0,0.0,0.0,0.0,0.0,0.0,0.0,0.0,0.0,0.0,0.0,0.0,0.0,0.0,0.0,0.0,0.0,0.0,0.0,0.0,1.5987,1.5072,1.5177,1.5482,1.5399,1.4874,1.4357,1.4147,1.4337,1.4395,0.0,0.0,0.0,0.0,0.0,0.0,1.3768,1.3171,1.2704,1.2512,1.242,1.2389,1.2473,1.2649,1.2804,1.2915,1.3072,1.3124,1.307,1.3004,0.0,0.0,0.0,0.0,0.0,0.0,0.0,0.0,0.0,0.0,0.0,0.0,0.0,0.0,0.0,0.0,0.0,0.0,0.0,0.0,0.0,0.0,0.0,0.0,0.0,0.0,0.0,0.0,0.0,2.0938,2.1323,2.0693,2.1518,2.1736,0.0,0.0,0.0,0.0,0.0,0.0,0.0,0.0,0.0,2.1548,2.1471,2.1776,2.2552,2.2422,2.2489,2.284,2.2655,2.2538,2.2567,2.2797,2.2882,2.2903,2.3297,2.2859,2.1736,2.0749,1.9661,1.8582,0.0,0.0,0.0,0.0,1.6378,1.618,1.6759,1.699,1.6971,1.6882,0.0,0.0,0.0,0.0,0.0,0.0,0.0,1.5632,1.5281,1.5508,1.5758,1.5341,1.539,1.5555,1.5495,1.5424,1.5373,1.5307,1.5151,1.5027,1.5062,1.5068,0.0,0.0,0.0,1.4568,1.4781,1.436,1.3992,1.3923,1.3584,1.3485,1.3855,1.3342,1.3237,1.3741,1.3598,1.3647,1.3966,1.3898,1.3842,0.0,0.0,0.0,0.0,0.0,0.0,0.0,0.0,0.0,0.0,0.0,0.0,0.0,0.0,0.0,0.0,0.0,0.0,0.0,0.0,0.0,0.0,0.0,0.0,0.0,0.0,0.0,0.0,2.2097,2.2631,2.1235,2.2457,2.2882,0.0,0.0,0.0,0.0,0.0,0.0,2.2402,2.238,2.2442,2.2606,2.2761,2.3189,2.3924,2.3616,2.3671,2.4125,2.3869,2.3755,2.3744,2.4078,2.4203,2.4213,2.4255,2.3963,2.3332,2.177,2.0514,1.9476,1.845,1.7601,1.6965,1.7098,1.7025,1.7031,1.8032,1.8452,1.8577,1.8631,1.8829,1.869,1.7101,0.0,0.0,0.0,0.0,1.6009,1.5949,1.5694,1.5517,1.5613,1.5633,1.5661,1.5835,1.5988,1.6116,1.6162,1.5898,1.5726,1.5995,1.5914,0.0,1.5995,1.5555,1.5295,1.56,1.5286,1.5039,1.5,1.4558,1.4469,1.497,1.4082,1.3796,1.4505,1.4178,1.4202,1.4755,1.4804,1.4871,1.5085,0.0,0.0,0.0,0.0,0.0,0.0,0.0,0.0,0.0,0.0,0.0,0.0,0.0,0.0,0.0,0.0,0.0,0.0,0.0,0.0,0.0,0.0,0.0,0.0,0.0,0.0,0.0,0.0,0.0,2.2429,2.3842,0.0,0.0,0.0,0.0,2.3408,2.3444,2.347,2.3447,2.3411,2.3422,2.3444,2.3444,2.3467,2.3522,2.3921,2.4167,2.4189,2.4189,2.4151,2.4151,2.4174,2.4185,2.4218,2.4393,2.4473,2.429,2.2496,2.1252,2.044,1.9545,1.8925,1.8534,1.8986,1.8886,1.8603,1.9342,1.9322,1.921,2.0812,2.0973,2.0247,1.8395,1.7821,0.0,0.0,1.7474,1.6983,1.6428,1.6265,1.6255,1.6244,1.6244,1.6415,1.6978,1.6588,1.6103,1.6106,1.6395,1.6573,1.6383,0.0,1.6354,1.6383,1.6019,1.5781,1.58,1.5435,1.5156,1.5,1.497,1.497,1.5,1.4941,1.4921,1.4969,1.5298,1.5503,1.5541,1.6262,1.6487,1.6124,1.5905,0.0,0.0,0.0,0.0,0.0,0.0,0.0,0.0,0.0,0.0,0.0,0.0,0.0,0.0,0.0,0.0,0.0,0.0,0.0,0.0,0.0,0.0,0.0,0.0,0.0,0.0,0.0,0.0,2.3272,2.4519,0.0,2.3618,2.4084,2.4456,2.4456,2.5063,2.5358,2.5229,2.5229,2.5194,2.5052,2.5158,2.5385,2.5745,2.5589,2.5637,2.5996,2.5517,2.529,2.529,2.529,2.529,2.529,2.5016,2.4575,2.4013,2.2727,2.213,2.1895,2.068,2.0282,2.0428,2.0596,2.0355,1.9991,2.0264,2.0215,2.0143,2.061,2.0005,1.8981,1.8462,1.7944,1.7588,1.7588,1.74,1.7146,1.695,1.6894,1.6894,1.6894,1.6894,1.695,1.7146,1.6978,1.6807,1.6806,1.653,1.6507,1.7071,1.7044,1.6969,1.7161,1.6898,1.6694,1.6694,1.6253,1.5892,1.5835,1.5497,1.5245,1.5245,1.5245,1.5245,1.5245,1.538,1.5622,1.5903,1.6452,1.6818,1.6976,1.6892,1.6519,0.0,0.0,0.0,0.0,0.0,0.0,0.0,0.0,0.0,0.0,0.0,0.0,0.0,0.0,0.0,0.0,0.0,0.0,0.0,0.0,0.0,0.0,0.0,0.0,0.0,2.4948,2.5454,2.425,2.5408,2.5841,2.4635,2.5099,2.5523,2.5523,2.6129,2.643,2.6305,2.6305,2.6236,2.6119,2.6236,2.6467,2.6839,2.6479,2.6479,2.6839,2.635,2.602,2.5787,2.5787,2.5701,2.5515,2.5077,2.4603,2.4034,2.3129,2.287,2.2897,2.1296,2.0852,2.1103,2.1069,2.0861,2.0687,2.0853,2.1116,2.1232,2.0657,1.9858,1.9091,1.8869,1.8451,1.8066,1.8066,1.7984,1.782,1.7628,1.7534,1.7506,1.7506,1.7506,1.7562,1.7754,1.7644,1.7562,1.7754,1.7073,1.6672,1.7342,1.7325,1.7255,1.7428,1.7325,1.7202,1.7202,1.6866,1.6613,1.6613,1.6255,1.5997,1.5997,1.5835,1.5806,1.5997,1.5771,1.596,1.6717,1.6882,1.7177,1.7723,1.7723,1.7488,1.7001,0.0,0.0,0.0,0.0,0.0,0.0,0.0,0.0,0.0,0.0,0.0,0.0,0.0,0.0,0.0,0.0,0.0,0.0,0.0,0.0,0.0,0.0,0.0,2.4036,2.5179,2.5925,2.5407,2.6494,2.7077,2.6549,2.6499,2.6499,2.6499,2.6499,2.6499,2.6499,2.6499,2.6499,2.6499,2.6499,2.6499,2.6499,2.6521,2.6521,2.6496,2.653,2.6194,2.5594,2.5594,2.5297,2.4788,2.4569,2.4479,2.4442,2.3749,2.3496,2.3308,2.1403,2.0655,2.0655,2.0462,2.0494,2.0751,2.125,2.1951,2.2384,2.1209,2.0901,2.0781,1.9765,1.9406,1.942,1.942,1.9302,1.9064,1.8479,1.824,1.812,1.812,1.812,1.8282,1.8869,1.8548,1.8294,1.8881,1.8066,1.7257,1.7257,1.7257,1.7257,1.7257,1.7257,0.0,1.7257,1.723,1.723,1.723,1.7202,1.7202,1.7202,1.6669,1.6585,1.7174,1.6531,1.6677,1.7919,1.7614,1.7725,1.8414,1.8383,1.8268,1.802,0.0,0.0,0.0,0.0,0.0,0.0,0.0,0.0,0.0,0.0,0.0,0.0,0.0,0.0,0.0,0.0,0.0,0.0,0.0,0.0,0.0,2.5803,2.606,2.5804,2.6114,2.6338,2.6188,2.6486,2.6663,2.6512,2.6499,2.6499,2.6499,2.6499,2.6499,2.6499,2.6499,2.6499,2.6499,2.6499,2.6499,2.6499,2.6973,2.6989,2.6523,2.7032,2.673,2.5659,2.5659,2.5339,2.4763,2.433,2.4123,2.4085,2.3479,2.3212,2.3138,2.2395,2.2118,2.213,2.2056,2.2099,2.213,2.2297,2.2183,2.1984,2.1819,2.1205,2.0543,2.0393,1.9966,1.9539,1.9539,1.9447,1.9289,1.9025,1.8919,1.8854,1.8762,1.8762,1.8789,1.896,1.8881,1.8789,1.896,1.8801,1.8602,1.8509,1.8509,1.8509,1.8509,1.8509,1.8509,1.8509,1.812,1.7836,1.7836,1.7451,1.7202,1.7202,1.7062,1.7034,1.7202,1.7012,1.7059,1.7426,1.7648,1.8179,1.9029,1.8384,1.8202,0.0,0.0,0.0,0.0,0.0,0.0,0.0,0.0,0.0,0.0,0.0,0.0,0.0,0.0,0.0,0.0,0.0,0.0,0.0,0.0,0.0,0.0,2.7183,2.766,2.7319,2.6831,2.6499,2.6499,2.6499,2.6499,2.6499,2.6499,2.6499,2.6499,2.6499,2.6499,2.6499,2.6499,2.6499,2.6499,2.6782,2.679,2.6493,2.7197,2.7218,2.654,2.6992,2.6683,2.5743,2.5743,2.5428,2.487,2.4533,2.4283,2.4016,2.3939,2.359,2.3078,0.0,0.0,0.0,0.0,2.283,2.2769,2.2769,2.231,2.1671,2.1712,2.1011,2.0156,2.03,2.0022,1.9682,1.9682,1.9591,1.9473,1.9394,1.9328,1.9275,1.9184,1.9172,1.9172,1.9172,1.9172,1.9172,1.9172,1.9237,0.0,1.9184,1.9131,1.9078,1.9078,1.9052,1.8987,1.8987,1.8682,1.8483,1.8483,1.8147,1.7957,1.7957,1.7727,0.0,0.0,0.0,1.7595,1.7831,1.8454,0.0,0.0,0.0,0.0,0.0,0.0,0.0,0.0,1.8159,1.817,0.0,0.0,0.0,0.0,0.0,0.0,0.0,0.0,0.0,0.0,0.0,0.0,0.0,0.0,0.0,0.0,2.8792,2.9362,2.8607,2.7541,2.679,2.6636,2.6624,2.6658,2.6714,2.6714,2.6679,2.6624,2.6624,2.6589,2.6499,2.6499,0.0,0.0,0.0,2.7144,2.6634,2.727,2.7274,2.6603,2.6693,2.641,2.5809,2.5809,2.551,2.5007,2.5007,2.4709,2.4234,2.4794,2.4295,2.3198,2.3138,2.3108,2.3108,2.3108,2.3017,2.2909,2.2909,0.0,0.0,2.1325,2.0617,1.9886,1.9823,1.9798,1.9798,1.9798,1.9708,1.9604,1.9617,1.9512,1.942,1.9394,1.9394,1.9394,1.9394,1.9394,1.9394,1.9394,1.942,1.942,1.942,1.9302,1.9223,1.9223,1.9105,1.9052,1.9052,1.9052,1.9052,1.9052,1.9052,0.0,1.9052,1.8536,1.8483,1.9013,1.8434,1.8264,1.8755,1.9523,1.9964,2.0023,1.9964,2.0036,2.0204,2.0158,2.0133,2.0094,1.8592,1.8189,0.0,0.0,0.0,0.0,0.0,0.0,0.0,0.0,0.0,0.0,0.0,0.0,0.0,0.0,0.0,2.8285,2.9428,3.0004,2.9382,2.9087,2.8512,2.7449,2.7317,2.7517,2.8051,2.8117,2.7887,2.7351,2.7317,2.7061,2.6521,2.6499,2.6748,2.7284,2.6908,2.6914,2.7368,2.7514,2.7303,2.6689,2.7244,0.0,2.5869,2.5869,2.5564,2.5007,2.5007,2.4922,2.4823,2.4951,2.4567,2.3855,2.3305,2.3108,2.3108,2.3108,2.3078,2.3047,2.3047,2.2652,2.2083,2.1603,2.1041,2.044,1.9936,1.9798,0.0,1.9798,1.9773,1.9734,1.963,1.9591,1.9539,1.942,1.9394,1.9394,1.9394,1.9394,1.9394,1.9394,1.9486,1.9565,1.9565,1.9447,1.9368,1.9368,1.9342,1.9316,1.9316,1.9316,1.9316,1.9316,1.9316,1.9316,1.9316,1.9225,1.9198,1.9316,1.9189,1.9152,1.9249,1.9422,1.9709,2.0147,1.9733,1.9726,2.0204,1.9857,1.9726,1.9726,1.9699,1.983,0.0,0.0,0.0,0.0,0.0,0.0,0.0,0.0,0.0,0.0,0.0,2.6532,2.7466,0.0,2.9484,3.0353,3.1363,3.1706,3.0641,3.0491,2.9868,2.8191,2.7986,2.8149,2.846,2.8492,2.8363,2.8019,2.7986,2.7855,2.7517,2.7517,2.7519,2.7554,2.7534,2.7414,2.7129,2.7483,2.7341,2.6743,2.7083,2.6924,2.634,2.634,2.6192,2.5892,2.5892,2.5729,2.5398,2.475,2.4489,2.4405,2.3469,2.3094,2.3108,2.3108,2.3108,2.3108,2.3108,2.2556,2.1857,2.1581,2.0916,2.0175,1.9886,1.9798,1.9798,1.9798,1.9798,1.9773,1.9734,1.9708,1.9682,1.9604,1.9617,1.9617,1.9617,1.9617,1.9617,1.9617,1.9656,1.9708,1.9708,1.963,1.9591,1.9512,1.9447,1.9394,1.9394,1.9394,1.9394,1.9394,1.9394,1.9394,1.9394,1.9394,1.9394,1.9394,1.9473,1.9486,1.9486,1.9565,1.9741,1.9988,1.9753,1.9741,1.9988,1.9793,1.9708,1.9708,1.9916,2.0041,0.0,0.0,0.0,0.0,0.0,0.0,0.0,2.7037,2.7197,2.7755,2.788,2.8243,2.9369,3.0359,3.1368,3.2345,3.3227,3.3307,3.1989,3.1659,3.0922,2.914,2.8826,2.8748,2.8921,2.8921,2.8857,2.873,2.873,2.8652,2.8524,2.8397,2.8157,2.7803,2.8077,2.7818,2.6905,2.7319,2.7287,2.6806,2.6806,2.6806,2.6806,2.6806,2.6806,2.6806,2.6649,2.634,2.5789,2.4502,2.4267,2.4598,2.3521,2.3097,2.3106,2.31,2.3108,2.3108,2.3108,2.2456,2.1631,2.1518,2.0803,1.9949,1.9836,1.9798,1.9798,1.9798,1.9798,1.9798,1.9798,1.9798,1.9798,1.9798,1.9798,1.9798,1.9798,1.9798,1.9798,1.9798,1.9798,1.9798,1.9798,1.9798,1.9759,1.9656,1.9539,1.9486,1.9486,1.9486,1.9486,1.9486,1.9486,1.9486,1.9486,1.9486,1.9486,1.9486,1.9591,1.963,1.963,1.9734,1.9798,1.9798,1.9798,1.9798,1.9798,1.9798,1.985,1.9952,1.9952,1.9952,2.605,2.6849,2.755,2.8149,2.833,2.8382,0.0,2.83,2.8333,2.8397,2.8538,2.8894,2.9631,3.091,3.2108,3.2825,3.353,3.3709,3.2935,3.2224,3.1458,3.0655,2.9901,2.9716,3.0312,3.0372,3.0129,2.9515,2.9484,2.9188,2.8524,2.7985,2.7937,2.8451,2.7463,2.7117,2.7586,2.7118,2.6852,2.6806,2.6806,2.6806,2.6806,2.6806,2.6806,2.6777,2.6181,2.5868,2.5709,2.4436,2.394,2.3945,2.3348,2.3093,2.3096,2.3098,2.3108,2.3108,2.3108,2.2706,2.2133,2.1644,2.1106,2.0503,1.9962,1.9798,1.9798,1.9798,1.9798,1.9798,1.9798,1.9798,1.9798,1.9798,1.9798,1.9798,1.9798,1.9798,1.9798,1.9798,1.9798,1.9798,1.9798,1.9798,1.9798,1.9773,1.9759,1.9759,1.9759,1.9759,1.9759,1.9759,1.9759,1.9759,1.9759,1.9759,1.9759,1.9759,1.9773,1.9773,1.9773,1.9798,1.9798,1.9798,1.9798,1.9798,1.9798,1.9798,2.0029,2.051,2.051,2.051,2.7282,2.8143,2.868,2.8524,2.8826,2.9125,2.9125,2.9125,2.9251,2.9625,2.9794,3.0076,3.0832,3.154,3.2207,3.2882,3.3288,3.326,3.2532,3.2116,3.1674,3.1058,3.0672,3.0538,3.0702,3.0821,3.0732,3.0312,3.0282,3.0129,2.9732,2.9122,2.8717,2.8655,2.7754,2.7235,2.7186,2.6924,2.6806,2.6806,2.6806,2.6806,2.6806,2.6806,2.6602,2.621,2.5934,2.5382,2.466,2.4129,2.3903,2.3835,2.3277,2.3267,2.3595,2.3663,2.3424,2.3118,2.3147,2.2588,2.1744,2.1219,2.0654,2.0125,1.9874,1.9798,1.9798,1.9798,1.9798,1.9798,1.9798,1.9798,1.9798,1.9798,1.9798,1.9798,1.9798,1.9798,1.9798,1.9798,1.9798,1.9798,1.9798,1.9798,1.9798,1.9798,1.9798,1.9798,1.9798,1.9798,1.9798,1.9798,1.9798,1.9798,1.9798,1.9798,1.9798,1.9798,1.9798,1.9927,2.0258,2.0258,2.0396,2.0733,2.0733,2.0733,2.0733,2.0733,2.0832,2.1066,2.1066,2.1237,2.8112,2.8889,2.9274,2.9101,2.947,2.987,2.987,2.987,3.0038,3.0538,3.0702,3.0938,3.1557,3.1928,3.2285,3.2773,3.294,3.2792,3.2226,3.1944,3.1648,3.122,3.1161,3.1102,3.094,3.1043,3.1014,3.0821,3.0851,3.0748,3.041,2.9755,2.9115,2.8518,2.7823,2.7244,2.6806,2.6806,2.6806,2.6806,2.6806,2.6806,2.6806,2.6617,2.6181,2.5556,2.5367,2.4757,2.3876,2.3702,2.363,2.3574,2.3148,2.3276,2.3666,2.3932,2.3548,2.2899,2.3134,2.2354,2.1219,2.083,2.0302,1.9798,1.9798,1.9798,1.9798,1.9798,1.9798,1.9798,1.9798,1.9798,1.9798,1.9798,1.9798,1.9798,1.9798,1.9798,1.9798,1.9798,1.9798,1.9798,1.9798,1.9798,1.9798,1.9798,1.9798,1.9798,1.9798,1.9798,1.9798,1.9798,1.9798,1.9798,1.9798,1.9798,1.9798,1.9798,1.9927,2.0207,2.0585,2.0734,2.0993,2.1393,2.1393,2.1393,2.1393,2.1393,2.1465,2.1623,2.1623,2.1898,2.8237,2.8601,2.8937,3.0228,3.0538,3.0568,3.0568,3.0568,3.0598,3.0762,3.0955,3.1132,3.1293,3.196,3.2482,3.2512,3.2512,3.2512,3.2482,3.1812,3.1307,3.1292,3.1278,3.1278,3.1292,3.1161,3.1014,3.0821,3.0984,3.0734,2.9885,2.9241,2.8598,2.7954,2.7207,2.6835,2.6806,2.6806,2.6806,2.6806,2.6806,2.6806,2.6791,2.6137,2.5513,2.4878,2.4239,2.3958,2.3847,2.32,2.2917,2.2929,2.2979,2.3014,2.3098,2.3699,2.324,2.241,2.2988,2.2124,2.0717,2.0704,2.0302,1.9798,1.9798,1.9798,1.9798,1.9798,1.9798,1.9798,1.9798,1.9798,1.9798,1.9798,1.9798,1.9798,1.9798,1.9798,1.9798,1.9798,1.9798,1.9798,1.9798,1.9798,1.9798,1.9798,1.9798,1.9798,1.9798,1.9798,1.9798,1.9798,1.9798,1.9798,1.9798,1.9798,1.9798,1.9798,2.0283,2.0585,2.061,2.1115,2.1369,2.1393,2.1393,2.1393,2.1393,2.1393,2.167,2.2184,2.2184,2.2417,2.867,2.9406,3.0202,3.0807,3.0925,3.0925,3.0925,3.0925,3.0837,3.0411,3.0381,3.0468,3.061,3.0846,3.1201,3.1765,3.1839,3.1839,3.1839,3.1601,3.1438,3.1438,3.1438,3.1438,3.1438,3.0978,3.0788,3.0984,3.0233,2.9736,2.9653,2.8664,2.7995,2.7777,2.714,2.6806,2.6806,2.6806,2.6806,2.6779,2.6355,2.5894,2.5462,2.5284,2.4859,2.421,2.3992,2.3659,2.3229,2.2975,2.2888,2.2894,2.2913,2.2916,2.3025,2.3665,2.3188,2.2276,2.2529,2.1759,2.0629,2.0239,1.9962,1.9798,1.9798,1.9798,1.9798,1.9798,1.9798,1.9798,1.9798,1.9798,1.9798,1.9798,1.9798,1.9798,1.9798,1.9798,1.9798,1.9798,1.9798,1.9798,1.9798,1.9798,1.9798,1.9798,1.9798,1.9798,1.9798,1.9798,1.9798,1.9798,1.9798,1.9798,1.9798,2.0131,2.0334,2.0334,2.0845,2.1286,2.1636,2.1827,2.2077,2.2379,2.2402,2.2402,2.2402,2.2402,2.2486,2.2661,2.2661,2.2752,2.8817,2.9708,3.0646,3.1029,3.1117,3.1117,3.1117,3.1117,3.0925,3.0305,3.0349,3.0495,3.037,3.0562,3.0888,3.1407,3.1511,3.1511,3.1511,3.1511,3.1511,3.1511,3.1511,3.1511,3.1511,3.0717,3.0335,3.0704,2.9994,2.9366,2.9027,2.8228,2.7717,2.7457,2.7023,2.6806,2.6806,2.6547,2.6341,2.6137,2.5662,2.5125,2.4476,2.4515,2.4181,2.3543,2.3543,2.3302,2.2888,2.2888,2.2888,2.2888,2.2888,2.2888,2.2946,2.3374,2.2982,2.2245,2.2494,2.1739,2.0603,2.0207,1.9952,1.9798,1.9798,1.9798,1.9798,1.9798,1.9798,1.9798,1.9798,1.9798,1.9798,1.9798,1.9798,1.9798,1.9798,1.9952,2.0029,1.9824,1.9952,2.0029,1.9824,1.9798,1.9798,1.9798,1.9798,1.9798,1.9798,1.9798,1.9798,1.9798,1.9798,1.9798,1.9798,2.0283,2.061,2.061,2.1286,2.1851,2.2184,2.237,2.2592,2.2888,2.2888,2.2888,2.2888,2.2888,2.2888,2.2888,2.2888,2.2888,2.8799,2.9557,3.0305,3.0955,3.1102,3.1102,3.1102,3.1102,3.0984,3.0417,3.0831,3.1098,3.0599,3.1032,3.1511,3.1555,3.1585,3.16,3.16,3.157,3.1555,3.1555,3.1525,3.1511,3.1511,3.0372,2.9754,3.0024,3.0109,2.9491,2.7969,2.7937,2.7659,2.7006,2.6873,2.6765,2.6762,2.6094,2.5469,2.4859,2.4859,2.4486,2.3847,2.3847,2.3514,2.2888,2.2888,2.2888,2.2888,2.2888,2.2888,2.2888,2.2888,2.2888,2.2888,2.2888,2.2615,2.2315,2.2893,2.1994,2.061,2.061,2.0232,1.9798,1.9798,1.9798,1.9798,1.9798,1.9798,1.9798,1.9798,1.9798,1.9798,1.9798,1.9798,1.9798,1.9798,2.0207,2.0409,1.9901,2.0207,2.0409,1.9901,1.9824,1.985,1.985,1.985,1.985,1.9798,1.9824,1.985,1.985,1.9875,1.9875,1.9875,2.0371,2.0684,2.0684,2.166,2.2254,2.2254,2.2661,2.2888,2.2888,2.2888,2.2888,2.2888,2.2888,2.2888,2.2888,2.2888,2.2888,2.9469,3.0378,3.1041,3.135,3.1395,3.1395,3.1395,3.1395,3.123,3.0572,3.0586,3.0645,3.0537,3.1032,3.166,3.2153,3.2677,3.2991,3.2991,3.2572,3.2243,3.2243,3.1795,3.1511,3.1511,3.0761,3.0078,2.9614,2.8693,2.8071,2.791,2.7486,2.7126,2.6873,2.6806,2.6573,2.6065,2.5454,2.4791,2.4138,2.4138,2.3804,2.3157,2.3157,2.307,2.2888,2.2888,2.2888,2.2888,2.2888,2.2888,2.2888,2.2888,2.2888,2.2888,2.2888,2.282,2.2743,2.2916,2.1928,2.061,2.061,2.0232,1.9798,1.9798,1.9798,1.9798,1.9798,1.9798,1.9798,1.9798,1.9798,1.9798,1.9798,1.9798,1.9798,1.9798,1.9901,1.9952,1.9824,1.9901,1.9952,1.9824,2.0131,2.0409,2.0409,2.0746,2.0708,1.9901,2.0156,2.0409,2.0409,2.0733,2.1004,2.1004,2.1479,2.1779,2.1779,2.2394,2.2729,2.2729,2.2843,2.2888,2.2888,2.2888,2.2888,2.2888,2.2888,2.2888,2.2888,2.2888,2.2888,2.9808,3.0601,3.1234,3.138,3.12,3.1066,3.1407,3.1271,3.0943,3.0582,3.0746,3.0866,3.0552,3.1271,3.2049,3.2452,3.3066,3.3395,3.3095,3.2751,3.2378,3.2093,3.1735,3.1391,3.1077,3.0492,2.9806,2.911,2.83,2.7784,2.7592,2.7284,2.7015,2.6899,2.6659,2.6061,2.5063,2.4665,2.4123,2.3447,2.3447,2.3258,2.2888,2.2888,2.2888,2.2888,2.2888,2.2888,2.2888,2.2888,2.2888,2.2888,2.2888,2.2888,2.2888,2.2888,2.2888,2.2888,2.2888,2.2039,2.0944,2.0944,2.0421,1.9798,1.9798,1.9798,1.9798,1.9798,1.9798,1.9798,1.9798,1.9798,1.9798,1.9798,1.9798,1.9798,1.9798,1.9978,2.0156,2.0156,1.9952,1.9798,1.9798,2.0232,2.061,2.061,2.1066,2.1175,2.0584,2.0758,2.0944,2.0944,2.1224,2.1393,2.1393,2.1898,2.2208,2.2208,2.2638,2.2888,2.2888,2.2888,2.2888,2.2888,2.2888,2.2888,2.2888,2.2888,2.2888,2.2888,2.297,2.2992,3.0002,3.0558,3.1132,3.1234,3.0759,3.0476,3.1289,3.0944,3.0494,3.0627,3.1092,3.1316,3.0746,3.1674,3.2542,3.2632,3.32,3.3425,3.2856,3.2706,3.2363,3.1705,3.1481,3.1137,3.0567,2.9864,2.922,2.8637,2.8398,2.798,2.7262,2.7233,2.7126,2.6898,2.6266,2.534,2.4107,2.3897,2.3484,2.2888,2.2888,2.2888,2.2888,2.2888,2.2888,2.2888,2.2888,2.2888,2.2888,2.2888,2.2888,2.2888,2.2888,2.2888,2.2888,2.2888,2.2888,2.2888,2.2888,2.2273,2.1489,2.1417,2.0683,1.9798,1.9798,1.9798,1.9798,1.9798,1.9798,1.9798,1.9798,1.9798,1.9798,1.9798,1.9798,1.9798,1.9798,2.0156,2.0485,2.0485,2.0182,1.9875,1.9798,2.0295,2.0709,2.0709,2.1151,2.1537,2.1585,2.1537,2.1503,2.1503,2.1561,2.1585,2.1585,2.203,2.2301,2.2301,2.2684,2.2888,2.2888,2.2888,2.2888,2.2888,2.2888,2.2925,2.2925,2.2925,2.2947,2.2955,2.3068,2.3127,3.0514,3.0866,3.1117,3.1132,3.0629,3.0362,3.1158,3.0801,0.0,3.1183,3.1421,3.1466,3.1346,3.1959,3.2691,3.3245,3.3873,3.4294,3.4189,3.3664,3.308,3.2392,3.136,3.0627,3.0507,2.9445,2.8727,2.8607,2.8068,2.7633,2.7376,2.7376,2.7047,2.635,2.5182,2.4399,2.4092,2.3543,2.3117,2.2888,2.2888,2.2888,2.2888,2.2888,2.2888,2.2888,2.2888,2.2888,2.2888,2.2888,2.2888,2.2888,2.2888,2.2888,2.2888,2.2888,2.2888,2.2888,2.2888,2.2532,2.1983,2.1537,2.0683,1.9798,1.9798,1.9798,1.9798,1.9798,1.9798,1.9798,1.9798,1.9798,1.9798,1.9798,1.9798,1.9798,1.9798,1.9875,1.9927,1.9927,2.0232,2.0334,1.9875,2.0608,2.1248,2.1248,2.1732,2.2194,2.2601,2.2287,2.2053,2.2053,2.2402,2.2646,2.2646,2.2729,2.2775,2.2775,2.2843,2.2888,2.2888,2.2888,2.2888,2.2888,2.2888,2.2947,2.306,2.306,2.3112,2.3231,2.3253,2.3275,3.0527,3.0762,3.0866,3.0925,3.0206,2.9793,3.0924,0.0,0.0,3.1171,3.1409,3.1409,3.1511,3.2049,3.2617,3.2931,3.3529,3.3844,3.3499,3.3185,3.2736,3.2049,3.1106,3.0372,3.0058,2.916,2.8457,2.8124,2.7465,2.7041,2.7006,2.6604,2.6065,2.5387,2.4587,2.3994,2.3694,2.3228,2.297,2.2888,2.2888,2.2888,2.2888,2.2888,2.2888,2.2888,2.2888,2.2888,2.2888,2.2888,2.2888,2.2888,2.2888,2.2888,2.2888,2.2888,2.2888,2.2888,2.2888,2.2592,2.2161,2.1898,2.1091,2.0156,1.9875,1.9798,1.9798,1.9798,2.0003,2.0207,2.0207,2.0207,2.0207,2.0207,2.0003,1.9798,1.9798,1.9798,1.9875,2.0156,2.0434,2.061,2.0633,2.1286,2.1827,2.1827,2.224,2.2661,2.2865,2.2706,2.2555,2.2555,2.2775,2.2888,2.2888,2.2888,2.2888,2.2888,2.2888,2.2888,2.2888,2.297,2.2992,2.2992,2.3068,2.3135,2.3201,2.3201,2.3246,2.3297,2.3363,2.3385,3.0467,3.0598,3.0642,3.0732,2.99,2.9389,3.072,3.0102,0.0,3.0982,3.1263,3.1292,3.1438,3.19,3.2288,0.0,3.3066,3.332,3.2796,3.2721,3.2482,3.1795,3.0896,3.0118,2.9651,2.8846,2.8184,2.7645,2.6866,2.6378,2.6378,2.5655,2.5035,2.4597,2.4221,2.3783,2.3297,2.309,2.2955,2.2888,2.2888,2.2888,2.2888,2.2888,2.2888,2.2888,2.2888,2.2888,2.2888,2.2888,2.2888,2.2888,2.2888,2.2975,2.3113,2.2946,2.2975,2.3099,2.2946,2.2661,2.2324,2.2231,2.1565,2.0696,2.027,2.0144,2.0144,2.0144,2.0446,2.0734,2.0635,2.061,2.056,2.0459,2.0105,1.9824,1.9952,1.9978,2.0131,2.0671,2.0858,2.1042,2.1358,2.1851,2.2208,2.2208,2.2509,2.2797,2.2888,2.2888,2.2888,2.2888,2.2888,2.2888,2.2888,2.2888,2.2888,2.2888,2.2888,2.2888,2.2888,2.3037,2.3105,2.3105,2.3246,2.3319,2.3341,2.3341,2.3363,2.3385,2.3473,2.3516,3.0583,3.0598,3.0598,3.0612,3.0089,2.9755,3.0631,0.0,3.0074,3.0925,3.1102,3.1161,3.1292,3.1366,0.0,0.0,0.0,3.3469,3.341,3.341,3.3155,3.2497,3.0791,2.9666,2.9621,2.8438,2.766,2.76,2.6408,2.5689,2.5689,2.5053,2.4642,2.4605,2.397,2.3539,2.3297,2.3275,2.3142,2.2888,2.2888,2.2888,2.2888,2.2888,2.2888,2.2888,2.2888,2.2888,2.2888,2.2888,2.2888,2.2888,2.2888,2.3273,2.3731,2.3128,2.3287,2.3717,2.3113,2.2865,2.2775,2.2347,2.1803,2.1321,2.1272,2.1248,2.1248,2.1248,2.1296,2.1199,2.0734,2.061,2.0485,2.0003,1.9824,1.9927,2.0409,2.0535,2.0684,2.1224,2.1732,2.1898,2.1479,2.1851,2.2208,2.2208,2.2254,2.2417,2.2843,2.2888,2.2888,2.2888,2.2888,2.2888,2.2888,2.2888,2.2888,2.2888,2.2888,2.2888,2.2888,2.3037,2.3105,2.3105,2.3246,2.3363,2.3487,2.3487,2.3516,2.3573,2.3588,2.3588,3.0496,3.0598,3.0598,3.0598,3.0103,2.9798,3.0526,3.0177,2.9959,3.0763,3.0925,3.1014,3.1248,3.1307,3.1425,0.0,0.0,0.0,3.2288,3.2288,3.2183,3.1929,3.0537,2.9606,2.9606,2.8393,2.727,2.6452,2.554,2.4814,2.4418,2.4148,2.4014,2.4014,2.3694,2.3494,2.3422,2.3268,2.3127,2.3015,2.2947,2.2888,2.2888,2.2888,2.2888,2.2888,2.2888,2.2888,2.2888,2.2888,2.2888,2.2888,2.2888,2.307,2.3273,2.2989,2.3084,2.3258,2.2975,2.2888,2.2865,2.2684,2.2486,2.225,2.2024,2.1947,2.1947,2.1947,2.1947,2.1792,2.122,2.0845,2.0535,2.0334,2.0283,2.0434,2.0968,2.1091,2.1237,2.1779,2.2053,2.2217,2.2273,2.2486,2.2615,2.2615,2.2615,2.2684,2.2865,2.2888,2.2888,2.2888,2.2888,2.2888,2.2888,2.2888,2.2888,2.2888,2.2992,2.3015,2.3015,2.3238,2.3526,2.3939,2.4037,2.4306,2.4753,2.4365,2.4388,2.4792,2.3984,2.4029,3.0481,3.0598,3.0641,3.083,3.0379,3.0074,3.0713,3.0364,3.006,3.06,3.0732,3.0851,3.1176,3.1234,3.1292,0.0,0.0,3.1795,3.1795,3.1795,3.1795,3.1795,3.0657,2.9816,2.9636,2.8214,2.6836,2.5689,2.4978,2.4306,2.364,2.3595,2.3595,2.3595,2.3545,2.3516,2.3509,2.3268,2.3149,2.3105,2.297,2.2888,2.2888,2.2888,2.2888,2.2888,2.2888,2.2888,2.2888,2.2888,2.2888,2.2888,2.2888,2.3004,2.3171,2.296,2.3041,2.3171,2.296,2.2888,2.2865,2.2752,2.2797,2.2807,2.2421,2.239,2.2556,2.272,2.2538,2.209,2.1361,2.0993,2.0795,2.0635,2.0734,2.0993,2.1527,2.1647,2.1789,2.2324,2.2417,2.2509,2.2843,2.2888,2.2888,2.2888,2.2888,2.2888,2.2888,2.2888,2.2888,2.2888,2.2888,2.2925,2.297,2.297,2.2992,2.3023,2.328,2.3442,2.3442,2.3866,2.429,2.4758,2.4858,2.5128,2.5615,2.5128,2.5128,2.5585,2.4642,2.4807,3.0598,3.0598,3.0757,3.1351,3.1032,3.0757,3.1366,3.1018,3.0598,3.0598,3.0598,3.0702,3.1043,3.1117,3.119,3.1453,0.0,0.0,3.2497,3.2497,3.2497,3.2497,3.1315,3.0253,2.9666,2.7794,2.6318,2.5659,2.4978,2.4306,2.364,2.3595,2.3595,2.3595,2.3595,2.3566,2.3509,2.3378,2.3246,2.3105,2.297,2.2888,2.2888,2.2888,2.2888,2.2888,2.2888,2.2888,2.2888,2.2888,2.2888,2.2888,2.2888,2.3302,2.3804,2.3142,2.3316,2.3789,2.3128,2.2888,2.282,2.237,2.2509,2.2807,2.2421,2.2614,2.3112,2.3711,2.3055,2.1953,2.0879,2.0993,2.1248,2.0734,2.1017,2.1551,2.2077,2.2184,2.2324,2.2797,2.2888,2.2888,2.2888,2.2888,2.2888,2.2888,2.2888,2.2888,2.2888,2.2888,2.2888,2.2888,2.2888,2.2947,2.3082,2.3105,2.3135,2.3297,2.3932,2.43,2.43,2.4985,2.5381,2.5396,2.5514,2.56,2.5615,2.56,2.56,2.5615,2.56,2.5944,3.0477,3.0598,3.0656,3.0829,3.0757,3.0656,3.0829,3.0757,3.0598,3.0598,3.0598,3.0672,3.0866,3.1014,3.1324,3.1946,3.193,0.0,3.2452,3.2093,3.1645,3.1195,2.9998,2.8951,2.8304,2.6811,2.5839,2.563,2.4567,2.3819,2.361,2.3595,2.3595,2.3595,2.3595,2.3588,2.3566,2.3385,2.3275,2.3246,2.3,2.2888,2.2888,2.2888,2.2888,2.2888,2.2888,2.2888,2.2888,2.2888,2.2888,2.2888,2.2888,2.3041,2.3186,2.2975,2.2836,2.2756,2.2869,2.2684,2.2394,2.2254,2.2301,2.2414,2.2322,2.2652,2.2954,2.2471,2.1739,2.1033,2.0687,2.0734,2.1006,2.1565,2.1803,2.2077,2.2578,2.2684,2.2729,2.2865,2.2888,2.2888,2.2888,2.2888,2.2888,2.2888,2.2888,2.307,2.3528,2.3586,2.3722,2.4134,2.4311,2.4054,2.3155,2.3514,2.3831,2.3968,2.4665,2.5067,2.5067,2.5378,2.5738,2.621,2.6249,2.6497,2.6971,2.6497,2.6048,2.563,2.6527,2.6851,3.0282,3.0598,3.0656,3.0872,3.0786,3.067,3.0872,3.0772,3.0598,3.0598,3.0598,3.0672,3.0866,3.1014,3.1309,3.1886,3.1721,3.1645,3.2049,3.1765,3.1256,3.0582,2.9385,2.8427,2.8034,2.6752,2.5974,2.5974,2.4971,2.4238,2.3999,2.3984,2.3864,2.361,2.3595,2.3595,2.3595,2.3392,2.3297,2.3297,2.3023,2.2888,2.2888,2.2888,2.2888,2.2888,2.2888,2.2888,0.0,2.2888,2.2888,2.2888,2.2888,2.2888,2.2888,2.2888,2.2615,2.2259,2.2756,2.2484,2.1892,2.1911,2.1621,2.1329,2.1594,2.22,2.2639,2.1771,2.1224,2.0909,2.0911,2.1042,2.1372,2.203,2.2347,2.2532,2.2843,2.2888,2.296,2.3229,2.3273,2.3273,2.3273,2.3273,2.3273,2.3273,2.3273,2.3505,2.4167,2.4254,2.4413,2.4795,2.5009,2.4769,2.3948,2.4326,2.4655,2.4786,2.545,2.5854,2.5854,2.6189,2.6542,2.6986,2.6986,2.718,2.76,2.718,2.6752,2.6363,2.721,2.7375,0.0,3.0538,3.0683,3.1277,3.1003,3.0757,3.1322,3.0988,0.0,3.0598,3.0598,3.0702,3.1014,3.1087,3.122,3.1512,3.1525,3.1525,3.157,3.1451,3.115,3.0563,2.9337,2.8558,2.8584,2.7375,2.6587,2.6587,2.5974,2.5322,2.4709,2.4679,2.435,2.3684,2.367,2.3655,2.3595,2.3414,2.3319,2.3297,2.3045,2.2925,2.2925,2.2888,2.2925,2.2925,2.2888,2.2888,2.2888,2.2888,2.2888,2.2888,2.2888,2.2865,2.2843,2.2843,2.2532,2.2161,2.271,2.2225,2.1342,2.1352,2.063,1.9901,2.0434,2.1355,2.2073,2.1498,2.1355,2.1353,2.1445,2.1827,2.2208,2.2254,2.2578,2.2902,2.2946,2.296,2.3171,2.3833,2.3949,2.3963,2.3963,2.3963,2.3949,2.3949,2.3949,2.4181,2.4795,2.4936,2.4965,2.5023,2.5165,2.5272,2.5339,2.5429,2.5533,2.5651,2.6303,2.6662,2.6662,2.727,2.76,2.76,2.76,2.76,2.76,2.76,2.76,2.76,2.76,2.76,2.9359,0.0,3.0005,3.0665,3.0714,3.0641,0.0,3.0714,3.0598,3.0598,3.0598,3.0672,3.0821,3.0984,3.1338,3.202,3.1752,3.1675,3.2183,3.0986,3.0132,3.0323,2.8852,2.7976,2.8345,2.7297,2.6587,2.6587,2.5974,2.554,2.5367,2.5352,2.5053,2.4395,2.4365,2.4111,2.361,2.3516,2.3385,2.3297,2.3135,2.306,2.306,2.2947,2.297,2.306,2.2947,2.2888,2.2888,2.2888,2.2888,2.2888,2.2888,2.2684,2.237,2.237,2.1779,2.1044,2.1594,2.1345,2.0797,2.0792,2.0335,1.9901,2.0434,2.0514,2.0462,2.0718,2.0794,2.098,2.1797,2.21,2.2301,2.2661,2.282,2.3055,2.3557,2.3659,2.3862,2.4462,2.4592,2.4592,2.466,2.4631,2.4592,2.4592,2.4592,2.481,2.5473,2.5575,2.5763,2.6312,2.6561,2.671,2.6735,2.6387,2.6227,2.6363,2.7001,2.736,2.736,2.751,2.76,2.76,2.76,2.76,2.76,2.76,2.76,2.76,2.76,2.76,2.868,2.9345,2.9747,3.0447,3.0598,3.0598,3.0598,0.0,0.0,0.0,0.0,0.0,3.0925,3.1073,3.1353,3.1842,3.1691,3.163,3.1989,3.1025,3.021,2.9989,2.8763,2.7944,2.7978,2.7429,2.7061,2.7061,2.6707,2.6378,2.6078,2.6063,2.5749,2.5068,2.4769,2.4276,2.361,2.3538,2.3466,2.3385,2.3179,2.3127,2.3179,2.3045,2.3037,2.3105,2.3015,2.297,2.2888,2.2888,2.2888,2.2865,2.2661,2.2417,2.2184,2.1921,2.131,2.0713,2.1517,2.1459,2.1068,2.1342,2.0849,2.0334,2.1124,2.0968,2.0633,2.1188,2.1177,2.1213,2.224,2.237,2.2324,2.2797,2.3142,2.336,2.3418,2.3905,2.4404,2.4752,2.5042,2.5284,2.5299,2.5284,2.5245,2.5245,2.5245,2.5502,2.6155,2.6319,2.6491,2.6855,2.7144,2.7284,2.7284,2.707,2.6986,2.7061,2.7405,2.76,2.76,2.76,2.76,2.76,2.76,2.76,2.76,2.76,2.76,2.76,2.76,2.76,2.8204,2.9104,2.9735,3.0446,3.0598,3.0598,3.0598,0.0,0.0,0.0,0.0,0.0,0.0,3.1294,3.1499,3.1631,3.1645,3.1674,3.179,3.1336,3.0726,2.9925,2.8956,2.8198,2.7735,2.7635,2.76,2.76,2.76,2.7345,2.6767,2.6761,2.6437,2.5779,2.5187,2.453,2.3759,2.3583,2.3509,2.3466,2.326,2.326,2.3445,2.334,2.3332,2.3419,2.3397,2.3329,2.3215,2.3215,2.3157,2.301,2.2605,2.2419,2.2264,2.1832,2.1377,2.1142,2.2115,2.2171,2.1856,2.2376,2.1786,2.1058,2.2235,2.2098,2.1688,2.2395,2.213,2.188,2.2813,2.2758,2.2587,2.3057,2.3548,2.3789,2.3418,2.4201,2.4984,2.5085,2.5575,2.5937,2.5937,2.5937,2.5937,2.5937,2.5937,2.6166,2.6733,2.6925,2.7003,2.7029,2.7248,2.7401,2.7401,2.7539,2.76,2.76,2.76,2.76,2.76,2.76,2.76,2.76,2.76,2.76,2.76,2.76,2.76,2.76,2.76,2.76,2.8746,2.9424,2.9693,3.0425,3.0598,3.0598,3.0598,0.0,0.0,0.0,0.0,0.0,0.0,3.1768,3.2199,3.2303,3.2333,3.2524,3.3031,3.166,3.0647,3.0867,2.9496,2.847,2.822,2.782,2.76,2.76,2.76,2.7555,2.745,2.745,2.7151,2.6452,2.6348,2.5704,2.4455,2.3872,2.3501,2.3319,2.34,2.3696,2.4153,2.413,2.4402,2.4888,2.4822,2.4717,2.4588,2.4588,2.4254,2.3746,2.3676,2.3355,2.2957,2.287,2.2859,2.2917,2.3093,2.3082,2.3029,2.3121,2.2647,2.2262,2.3459,2.2996,2.2395,2.3961,2.3658,2.2967,2.3591,2.3699,2.3782,2.4365,2.421,2.4152,2.5139,2.5502,2.5807,2.6373,2.6562,2.666,2.666,2.666,2.666,2.666,2.666,2.6715,2.6937,2.6977,2.7041,2.7155,2.7325,2.7401,2.7401,2.7539,2.76,2.76,2.76,2.76,2.76,2.76,2.76,2.76,2.76,2.76,2.76,2.76,2.76,2.76,2.76,2.76,2.8484,2.9251,2.9722,3.0414,3.0843,3.0988,3.067,3.0672,0.0,0.0,0.0,0.0,0.0,3.2139,3.2437,3.2482,3.2763,3.2976,3.2877,3.2009,3.1195,3.0781,2.9674,2.8703,2.8005,2.7735,2.76,2.76,2.76,2.76,2.76,2.76,2.7465,2.7151,2.6806,2.6123,2.5143,2.447,2.3903,2.3458,2.3494,2.3636,2.3933,2.3867,2.4154,2.4652,2.462,2.4683,2.4834,2.4486,2.4167,2.3867,2.3593,2.3315,2.3115,2.3189,2.3446,2.3715,2.3715,2.3715,2.3823,2.4486,2.4052,2.3487,2.465,2.4371,2.3755,2.4563,2.4202,2.3679,2.4293,2.4413,2.4447,2.4737,2.4853,2.5004,2.5241,2.5836,2.6326,2.6283,2.6533,2.6806,2.6806,2.6806,2.6806,2.6806,2.6873,2.6925,2.6977,2.7133,2.7248,2.7284,2.7437,2.7514,2.7514,2.7575,2.76,2.76,2.76,2.76,2.76,2.76,2.76,2.76,2.76,2.76,2.76,2.76,2.76,2.76,2.76,2.76,2.8343,2.9155,2.9771,3.0603,0.0,3.1206,3.0933,3.0951,0.0,0.0,0.0,0.0,3.2258,3.2557,3.2736,3.2736,3.3239,3.3426,3.2915,3.2551,3.1929,3.0736,2.9991,2.9032,2.7725,2.76,2.76,2.76,2.76,2.76,2.76,2.76,2.76,2.76,2.6956,2.6273,2.5615,2.4933,2.4261,2.3588,2.3538,2.3702,2.4014,2.3851,2.4186,2.4935,2.4587,2.4784,2.5266,2.4626,2.4326,2.4278,2.373,2.3434,2.3378,2.3758,2.4161,2.4532,2.4694,2.4721,2.4885,2.582,2.5267,2.4501,2.5694,2.5358,2.4681,2.5148,2.482,2.4442,2.4965,2.5081,2.5071,2.523,2.5546,2.573,2.54,2.6123,2.666,2.6137,2.6457,2.6806,2.6806,2.6832,2.6846,2.6846,2.6977,2.7055,2.7081,2.7273,2.7427,2.7437,2.7673,2.7839,2.7839,2.7839,2.7764,2.76,2.76,2.76,2.76,2.76,2.76,2.76,2.76,2.76,2.76,2.76,2.76,2.76,2.76,2.76,2.8812,2.9459,2.9821,3.1128,3.1047,3.0846,3.1551,3.1714,0.0,3.2939,0.0,0.0,3.2452,3.3021,3.3425,3.3425,3.3878,3.4204,3.4097,3.3524,3.2629,3.1311,3.0657,2.9598,2.7795,2.76,2.76,2.76,2.76,2.76,2.76,2.76,2.76,2.76,2.6956,2.6273,2.5615,2.4933,2.4231,2.3509,2.3566,2.4186,2.5256,2.4745,2.5506,2.7079,2.5712,2.5796,2.6787,2.5974,2.5647,2.5597,2.5006,2.4429,2.4082,2.5271,2.5727,2.585,2.6402,2.6602,2.6616,2.6712,2.5895,2.5085,2.6347,2.5435,2.4349,2.6156,2.6195,2.5662,2.573,2.5745,2.5865,2.6515,2.6224,2.5963,2.6559,2.6747,2.6806,2.6747,2.6777,2.6806,2.6806,2.6899,2.6977,2.6977,2.7093,2.7233,2.735,2.7401,2.7437,2.7575,2.8143,2.8532,2.8532,2.8532,2.8248,2.7645,2.76,2.76,2.76,2.76,2.76,2.76,2.76,2.76,2.76,2.76,2.76,2.76,2.76,2.76,2.845,2.9215,2.9771,3.0702,3.0786,0.0,0.0,3.157,3.1603,3.251,3.2526,0.0,3.2482,3.2721,3.2751,3.2303,3.3073,3.3705,3.3597,3.2982,3.2177,3.1313,3.0304,2.9164,2.774,2.76,2.76,2.76,2.76,2.76,2.76,2.76,2.76,2.76,2.7345,2.6692,2.5615,2.5337,2.4664,2.3545,2.3588,2.3842,2.4276,2.4081,2.476,2.6124,2.5571,2.5973,2.6959,2.6221,2.5893,2.5727,2.5147,2.5017,2.5231,2.5713,2.6138,2.6474,2.6727,2.6806,2.6806,2.6806,2.6474,2.6184,2.6654,2.6301,2.5868,2.6582,2.6631,2.6428,2.6428,2.6428,2.65,2.6747,2.6617,2.65,2.6762,2.6806,2.6806,2.6806,2.6806,2.6806,2.6806,2.6925,2.7003,2.7003,2.7196,2.735,2.7401,2.7463,2.7688,2.8173,2.8801,2.9205,2.9205,2.9205,2.9101,2.8858,2.8064,2.76,2.76,2.76,2.76,2.76,2.76,2.76,2.76,2.76,2.76,2.76,2.8034,2.8203,2.8005,2.891,2.9747,3.0447,0.0,0.0,3.1951,3.1764,3.1678,3.2763,3.2886,3.2613,3.1988,3.2506,3.2632,3.1315,3.2518,3.341,3.2857,3.2492,3.1982,3.1206,3.0329,2.9344,2.8177,2.7919,2.782,2.782,2.7685,2.76,2.76,2.76,2.76,2.76,2.739,2.6851,2.5929,2.551,2.4814,2.3924,2.3699,2.3714,2.3924,2.3924,2.4597,2.5741,2.5524,2.6046,2.7023,2.6297,2.5934,2.5799,2.5366,2.5392,2.5633,2.5839,2.6165,2.6527,2.6727,2.6806,2.6806,2.6806,2.6674,2.6553,2.6727,2.6674,2.6568,2.6753,2.6806,2.6806,2.6806,2.6806,2.6806,2.6806,2.6806,2.6806,2.6806,2.6806,2.6806,2.6806,2.6806,2.6806,2.6806,2.6951,2.7041,2.7041,2.7299,2.7463,2.7463,2.7718,2.8259,2.9101,2.9609,2.9864,2.9864,2.9864,2.9789,2.9621,2.8738,2.8229,2.8229,2.8034,2.7929,2.7929,2.7929,2.7929,2.7929,2.7705,2.7705,2.7929,2.8382,2.8607,2.7552,2.8623,2.9732,3.0447,0.0,0.0,3.2665,3.2474,3.2478,3.4141,3.3893,3.2798,3.0887,3.2527,3.332,3.0741,3.2364,3.3492,3.2094,3.2348,3.2242,3.1027,3.0901,3.0428,2.9222,2.8614,2.8288,2.8288,2.787,2.76,2.76,2.76,2.76,2.76,2.6971,2.6602,2.6587,2.5277,2.4619,2.459,2.3939,2.3947,2.459,2.459,2.5307,2.6542,2.5765,2.6081,2.7122,2.6348,2.5977,2.5893,2.5893,2.5536,2.5077,2.5688,2.5893,2.5975,2.6594,2.6806,2.6806,2.6806,2.6394,2.6029,2.6621,2.6367,2.6029,2.6621,2.6806,2.6806,2.6806,2.6806,2.6806,2.6806,2.6806,2.6806,2.6806,2.6806,2.6806,2.6806,2.6806,2.6806,2.6806,2.7026,2.7207,2.7207,2.7423,2.76,2.76,2.8173,2.9101,3.0372,3.0507,3.0507,3.0507,3.0507,3.0253,2.9666,2.9621,2.9621,2.9606,2.8951,2.8607,2.8607,2.8607,2.8607,2.8607,2.7944,2.7959,2.8607,2.8607,2.8607,2.726,2.8181,2.9179,3.0301,0.0,0.0,0.0,3.1871,0.0,0.0,3.278,3.2079,3.2353,3.2191,3.1763,3.0999,3.1813,3.2385,3.1948,3.1915,3.1677,3.0979,3.0425,2.9858,2.9175,2.8614,2.8288,2.8288,2.787,2.76,2.76,2.76,2.76,2.76,2.7405,2.7091,2.6587,2.5749,2.5068,2.4605,2.4395,2.4156,2.3909,2.3909,2.4642,2.5884,2.5642,2.6169,2.7167,2.6743,2.6366,2.6028,2.5934,2.5784,2.566,2.5839,2.6179,2.6568,2.6727,2.6806,2.6806,2.6806,2.6674,2.6568,2.6753,2.6674,2.6568,2.6753,2.6806,2.6806,2.6806,2.6806,2.6806,2.6806,2.6806,2.6806,2.6806,2.6806,2.6806,2.6806,2.6806,2.6832,2.6925,2.7093,2.7233,2.7335,2.7473,2.7764,2.8233,2.8876,2.9609,3.0417,3.0913,3.1197,3.1197,3.1197,3.1122,3.0943,3.0492,3.0028,2.9636,2.9427,2.928,2.928,2.928,2.928,2.928,2.8622,2.8637,2.928,2.928,2.952,2.7659,2.8636,2.9654,3.0694,3.1297,3.1757,3.2303,0.0,0.0,3.3175,3.2879,3.2557,3.2756,3.2444,3.1911,3.115,3.1447,3.1681,3.1387,3.1238,3.1044,3.0768,3.0353,2.9984,2.9683,2.9035,2.8614,2.8614,2.7993,2.76,2.76,2.76,2.76,2.76,2.76,2.7405,2.7001,2.6333,2.5794,2.5382,2.5113,2.4784,2.4403,2.4672,2.5091,2.5621,2.6096,2.6684,2.7258,2.6989,2.6712,2.6445,2.6299,2.626,2.626,2.626,2.6474,2.6806,2.6806,2.6806,2.6806,2.6806,2.6806,2.6806,2.6873,2.6846,2.6806,2.6937,2.691,2.6873,2.6873,2.6873,2.6873,2.6806,2.6806,2.6806,2.6806,2.6806,2.6806,2.6873,2.6873,2.6925,2.7041,2.7196,2.731,2.7401,2.7737,2.8334,2.9235,2.9699,3.0193,3.0823,3.1256,3.1511,3.1511,3.1511,3.1511,3.1511,3.1122,3.0746,3.0372,3.0103,2.9953,2.9953,2.9953,2.9953,2.9953,2.931,2.9325,2.9953,2.9953,3.0148,2.8377,2.9554,3.067,3.1279,3.1623,3.2048,3.295,3.3293,3.3429,3.3314,3.3723,3.3733,3.2577,3.3103,3.3112,3.1264,3.1271,3.1267,3.0588,3.0506,3.0506,3.0506,3.0506,3.0506,3.0506,2.9683,2.9143,2.9097,2.8213,2.765,2.76,2.76,2.76,2.76,2.76,2.76,2.76,2.6941,2.6587,2.6572,2.5989,2.5674,2.563,2.6228,2.6213,2.5741,2.6902,2.7401,2.7401,2.7119,2.7029,2.7029,2.6873,2.6806,2.6806,2.6806,2.6806,2.6806,2.6806,2.6806,2.6806,2.6806,2.6806,2.6806,2.6951,2.6899,2.6858,2.7104,2.7093,2.7003,2.6977,2.6977,2.6977,2.6832,2.6806,2.6806,2.6806,2.6806,2.6846,2.6977,2.7047,2.7143,2.727,2.7399,2.749,2.7516,2.8185,2.9131,3.0342,3.0507,3.0776,3.1436,3.1511,3.1511,3.1511,3.1511,3.1511,3.1511,3.1511,3.1511,3.1511,3.0898,3.0597,3.0597,3.0597,3.0597,3.0597,2.9968,2.9983,3.0597,3.0537,3.0537,2.7824,2.8987,2.9972,3.0626,3.1338,3.2182,3.3311,3.3761,3.3931,3.3915,3.4009,3.3973,3.3554,3.3156,3.2608,3.16,3.1037,3.0688,3.0522,3.0506,3.0506,3.0506,3.0506,3.0506,3.0506,2.9984,2.9506,2.912,2.8519,2.7978,2.7625,2.76,2.76,2.76,2.76,2.76,2.76,2.6941,2.6587,2.6587,2.6437,2.6108,2.5615,2.5749,2.6019,2.6422,2.698,2.7361,2.7524,2.7258,2.7222,2.7299,2.7055,2.6951,2.6951,2.6846,2.6806,2.6806,2.6806,2.6806,2.6806,2.6806,2.6806,2.6806,2.6832,2.6806,2.6806,2.6858,2.6951,2.6977,2.6873,2.6925,2.6977,2.6832,2.6806,2.6806,2.6806,2.6806,2.6846,2.6977,2.7413,2.7856,2.8106,2.8159,2.8211,2.833,2.8951,2.9666,3.0402,3.0507,3.0776,3.1436,3.1511,3.1511,3.1511,3.1511,3.1511,3.1511,3.1511,3.1511,3.1511,3.1361,3.1286,3.1286,3.1286,3.1286,3.1286,3.0642,3.0657,3.1271,3.0761,3.0791,2.7831,2.9009,3.0025,3.0842,3.1485,3.2251,3.3426,3.3688,3.3825,3.4374,3.4472,3.434,3.3876,3.3216,3.2448,3.1714,3.0986,3.0506,3.0506,3.0506,3.0506,3.0506,3.0506,3.0506,3.0506,3.007,2.9705,2.9461,2.8717,2.8183,2.7953,2.771,2.76,2.76,2.76,2.76,2.76,2.7255,2.7091,2.7091,2.7091,2.6911,2.6542,2.6228,2.6437,2.7081,2.7299,2.7473,2.7575,2.7386,2.735,2.7376,2.717,2.7093,2.7093,2.7015,2.6963,2.6899,2.6899,2.6846,2.6806,2.6806,2.6806,2.6806,2.6873,2.6846,2.6832,2.6963,2.7003,2.6977,2.6925,2.6951,2.6977,2.6832,2.6806,2.6806,2.6806,2.6806,2.6945,2.7463,2.7853,2.8284,2.8878,2.8976,2.9107,2.9475,2.9804,3.0253,3.0883,3.0972,3.1107,3.1466,3.1511,3.1511,3.1511,3.1511,3.1511,3.1511,3.1511,3.1511,3.1511,3.1511,3.1511,3.1511,3.1511,3.1511,3.1511,3.1137,3.1152,3.1496,3.1137,3.1167,2.7726,2.905,3.0189,3.11,3.1642,3.2184,3.3165,3.3336,3.3588,3.4554,3.4851,3.4634,3.3756,3.3116,3.2415,3.1548,3.0903,3.0506,3.0506,3.0506,3.0506,3.0506,3.0506,3.0506,3.0506,3.0156,2.9837,2.9683,2.8919,2.8376,2.8183,2.7795,2.76,2.76,2.76,2.76,2.76,2.76,2.76,2.76,2.76,2.76,2.757,2.7031,2.7091,2.76,2.7575,2.7575,2.76,2.7488,2.7412,2.7412,2.7284,2.7233,2.7233,2.7207,2.7144,2.7029,2.7029,2.6951,2.6832,2.6832,2.6806,2.6806,2.6925,2.6899,2.6858,2.7078,2.7067,2.7033,2.7083,2.7138,2.7141,2.7137,2.714,2.7111,2.6968,2.7053,2.7392,2.8213,2.8485,2.883,2.9612,2.9834,3.0058,3.0447,3.0612,3.0853,3.1436,3.1511,3.1511,3.1511,3.1511,3.1511,3.1511,3.1511,3.1511,3.1511,3.1511,3.1511,3.1511,3.1511,3.1511,3.1511,3.1511,3.1511,3.1511,3.1511,3.1511,3.1511,3.1511,3.1511,2.6442,2.8056,2.9545,3.0478,3.1235,3.1814,3.2068,3.2949,3.3802,3.4134,3.457,3.4468,3.31,3.2768,3.2249,3.087,3.0555,3.0506,3.0506,3.0506,3.0506,3.0506,3.0506,3.0506,3.0506,3.0447,3.007,2.9257,2.9074,2.8606,2.7735,2.7635,2.76,2.76,2.76,2.76,2.76,2.76,2.76,2.76,2.76,2.76,2.76,2.751,2.751,2.76,2.7488,2.7488,2.76,2.7575,2.7575,2.7549,2.7412,2.7376,2.7376,2.7233,2.7181,2.7181,2.7181,2.7093,2.6977,2.6977,2.6899,2.6806,2.6806,2.6806,2.6806,2.6832,2.6925,2.7083,2.7488,2.7686,2.7871,2.8344,2.8462,2.8274,2.7695,2.8137,2.8697,2.8923,2.9644,3.024,3.0372,3.0853,3.1077,3.0582,3.0972,3.1406,3.1496,3.1511,3.1511,3.1511,3.1511,3.1511,3.1511,3.1511,3.1511,3.1511,3.1511,3.1511,3.1511,3.1511,3.1511,3.1511,3.1511,3.1511,3.1511,3.1511,3.1511,3.1511,3.1511,3.1511,2.6754,2.8091,2.9105,3.0318,3.0881,3.1306,3.1707,3.2348,3.3035,3.3767,3.4218,3.4234,3.3462,3.2984,3.2348,3.1283,3.077,3.0506,3.0506,3.0506,3.0506,3.0506,3.0506,3.0506,3.0506,3.0506,3.022,2.9528,2.9234,2.8772,2.8027,2.7735,2.76,2.76,2.76,2.76,2.76,2.76,2.76,2.76,2.76,2.76,2.76,2.76,2.76,2.76,2.7524,2.7549,2.76,2.76,2.76,2.76,2.7539,2.7514,2.7499,2.7448,2.7386,2.7284,2.7233,2.7119,2.6977,2.6925,2.6846,2.6806,2.6806,2.6806,2.6852,2.7215,2.7343,2.7515,2.81,2.8301,2.8429,2.8734,2.9084,2.9302,2.9094,2.8962,2.9062,2.9668,3.0458,3.1047,3.1047,3.1301,3.1406,3.1092,3.1316,3.1511,3.1511,3.1511,3.1511,3.1511,3.1511,3.1511,3.1511,3.1511,3.1511,3.1511,3.1511,3.1511,3.1511,3.1511,3.1511,3.1511,3.1511,3.1511,3.1511,3.1511,3.1511,3.1511,3.1511,3.1511,2.6414,2.7577,2.8446,2.9744,3.0407,3.0866,3.1364,3.1736,3.2308,3.3375,3.3834,3.4047,3.4077,3.3309,3.2448,3.1714,3.0986,3.0506,3.0506,3.0506,3.0506,3.0506,3.0506,3.0506,3.0506,3.0384,3.0135,2.9661,2.9166,2.8662,2.8134,2.7795,2.76,2.76,2.76,2.76,2.76,2.76,2.76,2.76,2.76,2.76,2.76,2.76,2.76,2.76,2.76,2.76,2.76,2.76,2.76,2.76,2.76,2.76,2.76,2.76,2.7524,2.7437,2.7335,2.7207,2.7081,2.6989,2.6937,2.6913,2.7047,2.7065,2.721,2.7795,2.7969,2.817,2.8838,2.9026,2.9126,2.9386,2.9839,3.0235,3.0378,2.9938,2.9731,3.0461,3.1109,3.1511,3.1511,3.1511,3.1511,3.1511,3.1511,3.1511,3.1511,3.1511,3.1511,3.1511,3.1511,3.1511,3.1511,3.1511,3.1511,3.1511,3.1511,3.1511,3.1511,3.1511,3.1511,3.1511,3.1511,3.1511,3.1511,3.1511,3.1511,3.1511,3.1511,3.1511,2.4206,2.5794,2.7387,2.8372,2.9641,3.0642,3.0821,3.1306,3.1975,3.2853,3.3443,3.4028,3.4714,3.3657,3.2448,3.1714,3.0986,3.0506,3.0506,3.0506,3.0506,3.0506,3.0506,3.0506,3.0506,3.0092,2.9639,2.9166,2.8638,2.8149,2.766,2.761,2.76,2.76,2.76,2.76,2.76,2.76,2.76,2.76,2.76,2.76,2.76,2.76,2.76,2.76,2.76,2.76,2.76,2.76,2.76,2.76,2.76,2.76,2.76,2.76,2.76,2.76,2.7575,2.7488,2.7376,2.7376,2.7284,2.7259,2.7703,2.7839,2.7944,2.8504,2.8748,2.9006,2.968,2.9927,3.0188,3.0822,3.1014,3.1073,3.1204,3.1203,3.1217,3.1407,3.1481,3.1511,3.1511,3.1511,3.1511,3.1511,3.1511,3.1511,3.1511,3.1511,3.1511,3.1511,3.1511,3.1511,3.1511,3.1511,3.1511,3.1511,3.1511,3.1511,3.1511,3.1511,3.1511,3.1511,3.1511,3.1511,3.1511,3.1511,3.1511,3.1511,3.1511,3.1511,2.3976,2.4997,2.6182,2.8024,2.9119,2.9882,3.051,3.0896,3.1306,3.2018,3.2756,3.3469,3.407,3.3386,3.2619,3.2348,3.1305,3.0506,3.0506,3.0506,3.0506,3.0506,3.0506,3.0506,3.0506,3.0342,2.9941,2.9143,2.8935,2.8463,2.7635,2.76,2.76,2.76,2.76,2.76,2.76,2.76,2.76,2.76,2.76,2.76,2.76,2.76,2.76,2.76,2.76,2.76,2.76,2.76,2.76,2.76,2.76,2.76,2.76,2.76,2.76,2.76,2.7514,2.7437,2.7476,2.7798,2.7879,2.7945,2.8498,2.8677,2.8809,2.9427,2.9632,2.9807,3.0499,3.0705,3.0836,3.116,3.1292,3.1366,3.1409,3.1438,3.1438,3.1511,3.1511,3.1511,3.1511,3.1511,3.1511,3.1511,3.1511,3.1511,3.1511,3.1511,3.1511,3.1511,3.1511,3.1511,3.1511,3.1511,3.1511,3.1511,3.1511,3.1511,3.1511,3.1511,3.1511,3.1511,3.1511,3.1511,3.1511,3.1511,3.1511,3.1511,3.1511,3.1511,2.3331,2.4178,0.0,2.7297,2.8206,2.8996,3.0319,3.0497,3.0632,3.1534,3.2142,3.281,3.3659,3.3193,3.2695,3.269,3.1669,3.0787,3.0522,3.0506,3.0506,3.0506,3.0506,3.0506,3.0506,3.0363,2.9941,2.9143,2.8935,2.8463,2.7635,2.76,2.76,2.76,2.76,2.76,2.76,2.76,2.76,2.76,2.76,2.76,2.76,2.76,2.76,2.76,2.76,2.76,2.76,2.76,2.76,2.76,2.76,2.76,2.76,2.76,2.76,2.76,2.7514,2.7612,2.7854,2.8233,2.8489,2.8758,2.9341,2.9505,2.9625,3.0246,3.0467,3.0613,3.1043,3.119,3.1249,3.1351,3.1438,3.1511,3.1511,3.1511,3.1511,3.1511,3.1511,3.1511,3.1511,3.1511,3.1511,3.1511,3.1511,3.1511,3.1511,3.1511,3.1511,3.1511,3.1511,3.1511,3.1511,3.1511,3.1511,3.1511,3.1511,3.1511,3.1511,3.1511,3.1511,3.1511,3.1511,3.1511,3.1511,3.1511,3.1511,3.1511,3.1511,3.1511,0.0,0.0,0.0,2.5989,2.6898,2.8016,3.0055,3.0045,2.9973,3.1372,3.1679,3.2084,3.3489,3.3164,3.2684,3.2677,3.2078,3.135,3.0621,3.0506,3.0506,3.0506,3.0506,3.0506,3.0506,3.0092,2.9617,2.9159,2.8614,2.811,2.7625,2.76,2.76,2.76,2.76,2.76,2.76,2.76,2.76,2.76,2.76,2.76,2.76,2.76,2.76,2.76,2.76,2.76,2.76,2.76,2.76,2.76,2.76,2.76,2.76,2.76,2.76,2.763,2.763,2.8079,2.8637,2.8652,2.9086,2.9729,3.0177,3.0342,3.0447,3.0954,3.122,3.1307,3.1307,3.1409,3.1511,3.1511,3.1511,3.1511,3.1511,3.1511,3.1511,3.1511,3.1511,3.1511,3.1511,3.1511,3.1511,3.1511,3.1511,3.1511,3.1511,3.1511,3.1511,3.1511,3.1511,3.1511,3.1511,3.1511,3.1511,3.1511,3.1511,3.1511,3.1511,3.1511,3.1511,3.1511,3.1511,3.1511,3.1511,3.1511,3.1511,3.1511,3.1511,3.1511,2.2197,0.0,0.0,0.0,0.0,0.0,2.8667,2.9014,2.9333,3.0631,3.0933,3.1243,3.2118,3.2504,3.2567,3.2167,3.1834,3.1532,3.1317,3.0837,3.0506,3.0506,3.0506,3.0506,3.0506,3.0384,2.9984,2.9166,2.8958,2.8511,2.765,2.76,2.76,2.76,2.76,2.76,2.76,2.76,2.76,2.76,2.76,2.76,2.76,2.76,2.76,2.76,2.76,2.76,2.76,2.76,2.76,2.76,2.76,2.76,2.76,2.76,2.7914,2.8308,2.8308,2.8742,2.9412,2.9834,3.0103,3.0372,3.096,3.1169,3.1214,3.1335,3.1424,3.1438,3.1438,3.1467,3.1511,3.1511,3.1511,3.1511,3.1511,3.1511,3.1511,3.1511,3.1511,3.1511,3.1511,3.1511,3.1511,3.1511,3.1511,3.1511,3.1511,3.1511,3.1511,3.1511,3.1511,3.1511,3.1511,3.1511,3.1511,3.1511,3.1511,3.1511,3.1511,3.1511,3.1511,3.1511,3.1511,3.1511,3.1511,3.1511,3.1511,3.1511,3.1511,3.1511,2.1921,0.0,0.0,2.4006,0.0,0.0,2.794,2.8334,2.8656,3.0277,3.0617,3.0872,3.159,3.2031,3.2264,3.2237,3.1914,3.148,3.0995,3.0563,3.0272,3.021,3.0215,3.0279,3.0468,3.0321,2.9897,2.9143,2.8889,2.8439,2.7635,2.76,2.76,2.76,2.76,2.76,2.76,2.76,2.76,2.76,2.76,2.76,2.76,2.76,2.76,2.76,2.76,2.76,2.76,2.76,2.76,2.76,2.76,2.76,2.76,2.76,2.8034,2.8607,2.8607,2.9205,3.0028,3.0387,3.0702,3.0972,3.1376,3.1511,3.1511,3.1511,3.1511,3.1511,3.1511,3.1511,3.1511,3.1511,3.1511,3.1511,3.1511,3.1511,3.1511,3.1511,3.1511,3.1511,3.1511,3.1511,3.1511,3.1511,3.1511,3.1511,3.1511,3.1511,3.1511,3.1511,3.1511,3.1511,3.1511,3.1511,3.1511,3.1511,3.1511,3.1511,3.1511,3.1511,3.1511,3.1511,3.1511,3.1511,3.1511,3.1511,3.1511,3.1511,3.1511,3.1511,2.162,2.1837,0.0,2.3759,2.3664,0.0,2.7316,2.7607,2.7759,2.9747,3.0172,3.0396,3.1139,3.1386,3.1641,3.2199,3.1909,3.127,3.0343,3.014,3.0038,2.9945,2.9948,3.0102,3.0509,3.0109,2.9618,2.9154,2.8566,2.8052,2.7625,2.76,2.76,2.76,2.76,2.76,2.76,2.76,2.76,2.76,2.76,2.76,2.76,2.76,2.76,2.76,2.76,2.76,2.76,2.76,2.76,2.76,2.76,2.7645,2.7705,2.7705,2.8184,2.8816,2.8816,2.9609,3.0612,3.0612,3.1002,3.1511,3.1511,3.1511,3.1511,3.1511,3.1511,3.1511,3.1511,3.1511,3.1511,3.1511,3.1511,3.1511,3.1511,3.1511,3.1511,3.1511,3.1511,3.1511,3.1511,3.1511,3.1511,3.1511,3.1511,3.1511,3.1511,3.1511,3.1511,3.1511,3.1511,3.1511,3.1511,3.1511,3.1511,3.1511,3.1511,3.1511,3.1511,3.1511,3.1511,3.1511,3.1511,3.1511,3.1511,3.1511,3.1511,3.1511,3.1511,3.1511,2.2065,2.2113,2.2271,2.2523,2.2946,0.0,2.4858,2.5199,2.566,2.7108,2.7474,2.7755,2.844,2.9334,2.9927,2.9692,3.0389,3.1114,3.1472,3.103,3.0672,3.0773,3.0782,3.0806,3.0887,3.0315,2.9785,2.9299,2.8297,2.771,2.7585,2.76,2.76,2.76,2.76,2.76,2.76,2.76,2.76,2.76,2.76,2.76,2.76,2.76,2.76,2.76,2.76,2.76,2.76,2.76,2.76,2.76,2.76,2.7944,2.8397,2.8397,2.9146,3.0133,3.0133,3.0657,3.1301,3.1301,3.1391,3.1511,3.1511,3.1511,3.1511,3.1511,3.1511,3.1511,3.1511,3.1511,3.1511,3.1511,3.1511,3.1511,3.1511,3.1511,3.1511,3.1511,3.1511,3.1511,3.1511,3.1511,3.1511,3.1511,3.1511,3.1511,3.1511,3.1511,3.1511,3.1511,3.1511,3.1511,3.1511,3.1511,3.1511,3.1511,3.1511,3.1511,3.1511,3.1511,3.1511,3.1511,3.1511,3.1511,3.1511,3.1511,3.1511,3.1511,3.1511,3.1511,2.1102,2.1373,2.1861,2.2125,2.2469,0.0,0.0,2.4391,2.4896,2.6297,2.6633,2.6949,2.7664,2.828,2.8814,2.9188,2.9769,3.0381,3.0827,3.063,3.0483,3.0536,3.0556,3.0668,3.0955,3.0492,2.9954,2.9488,2.8308,2.775,2.8094,2.7779,2.76,2.76,2.76,2.76,2.76,2.76,2.76,2.76,2.76,2.76,2.76,2.76,2.76,2.76,2.76,2.76,2.76,2.76,2.76,2.76,2.76,2.8019,2.8607,2.8607,2.9415,3.0507,3.0507,3.0928,3.1511,3.1511,3.1511,3.1511,3.1511,3.1511,3.1511,3.1511,3.1511,3.1511,3.1511,3.1511,3.1511,3.1511,3.1511,3.1511,3.1511,3.1511,3.1511,3.1511,3.1511,3.1511,3.1511,3.1511,3.1511,3.1511,3.1511,3.1511,3.1511,3.1511,3.1511,3.1511,3.1511,3.1511,3.1511,3.1511,3.1511,3.1511,3.1511,3.1511,3.1511,3.1511,3.1511,3.1511,3.1511,3.1511,3.1511,3.1511,3.1511,3.1511,3.1511,3.1511,2.0415,2.0854,2.1656,2.2089,2.2197,2.2511,0.0,0.0,0.0,2.5383,2.5795,2.6053,2.6616,2.7027,2.7539,2.8397,2.8929,2.932,2.9464,2.968,2.9902,3.0072,3.0213,3.0487,3.1006,3.0505,3.0015,2.9633,2.8483,2.8094,2.8757,2.8169,2.7794,2.7794,2.766,2.76,2.76,2.76,2.76,2.76,2.76,2.76,2.76,2.76,2.76,2.76,2.76,2.76,2.76,2.76,2.76,2.76,2.775,2.8214,2.8801,2.8921,2.9699,3.0702,3.0702,3.1032,3.1511,3.1511,3.1511,3.1511,3.1511,3.1511,3.1511,3.1511,3.1511,3.1511,3.1511,3.1511,3.1511,3.1511,3.1511,3.1511,3.1511,3.1511,3.1511,3.1511,3.1511,3.1511,3.1511,3.1511,3.1511,3.1511,3.1511,3.1511,3.1511,3.1511,3.1511,3.1511,3.1511,3.1511,3.1511,3.1511,3.1511,3.1511,3.1511,3.1511,3.1511,3.1511,3.1511,3.1511,3.1511,3.1511,3.1511,3.1511,3.1511,3.1511,3.1511,3.1511,2.1968,2.2022,2.2113,2.2173,2.2197,2.224,2.2413,0.0,2.2537,2.224,0.0,2.3287,2.2916,0.0,0.0,2.4806,2.6567,2.8008,2.8037,2.8512,2.9169,3.0007,3.0627,3.1041,3.1256,3.0293,2.966,2.9606,2.8906,2.8771,2.9457,2.8846,2.8487,2.8487,2.7914,2.76,2.76,2.76,2.76,2.76,2.76,2.76,2.76,2.76,2.76,2.76,2.76,2.76,2.76,2.76,2.76,2.766,2.8248,2.8891,2.9535,3.0088,3.0761,3.1391,3.1391,3.1436,3.1511,3.1511,3.1511,3.1511,3.1511,3.1511,3.1511,3.1511,3.1511,3.1511,3.1511,3.1511,3.1511,3.1511,3.1511,3.1511,3.1511,3.1511,3.1511,3.1511,3.1511,3.1511,3.1511,3.1511,3.1511,3.1511,3.1511,3.1511,3.1511,3.1511,3.1511,3.1511,3.1511,3.1511,3.1511,3.1511,3.1511,3.1511,3.1511,3.1511,3.1511,3.1511,3.1511,3.1511,3.1511,3.1511,3.1511,3.1511,3.1511,3.1511,3.1511,3.1511,2.132,2.1534,2.1922,2.2144,2.2247,2.2309,2.2216,2.2018,2.1777,2.1637,0.0,0.0,0.0,0.0,0.0,0.0,2.5822,2.6696,2.6696,2.7248,2.8237,2.9811,2.9883,3.0042,3.0655,2.9952,2.9769,3.0629,2.94,2.9041,3.0058,2.952,2.916,2.916,2.8517,2.8173,2.8173,2.7794,2.76,2.76,2.76,2.76,2.76,2.76,2.76,2.76,2.76,2.76,2.76,2.76,2.7839,2.8233,2.8906,2.9367,2.9681,3.0283,3.0913,3.1511,3.1511,3.1511,3.1511,3.1511,3.1511,3.1511,3.1511,3.1511,3.1511,3.1511,3.1511,3.1511,3.1511,3.1511,3.1511,3.1511,3.1511,3.1511,3.1511,3.1511,3.1511,3.1511,3.1511,3.1511,3.1511,3.1511,3.1511,3.1511,3.1511,3.1511,3.1511,3.1511,3.1511,3.1511,3.1511,3.1511,3.1511,3.1511,3.1511,3.1511,3.1511,3.1511,3.1511,3.1511,3.1511,3.1511,3.1511,3.1511,3.1511,3.1511,3.1511,3.1511,3.1511,3.1511,2.116,2.1403,2.1874,2.2151,2.2278,2.2292,2.2036,2.1789,2.1566,2.1371,2.1146,0.0,0.0,0.0,0.0,0.0,0.0,2.5453,2.5643,2.6061,2.7046,2.8828,2.9127,2.9516,3.0349,2.9753,2.9909,3.1348,2.9851,2.943,3.0717,3.0178,2.9834,2.9834,2.9205,2.8861,2.8861,2.8214,2.7884,2.7869,2.769,2.76,2.76,2.76,2.76,2.76,2.76,2.7705,2.7884,2.7884,2.8274,2.8936,2.9579,2.9834,2.9909,3.0552,3.1077,3.1511,3.1511,3.1511,3.1511,3.1511,3.1511,3.1511,3.1511,3.1511,3.154,3.172,3.1765,3.1809,3.1989,3.2049,3.2049,3.2049,3.2049,3.2049,3.2049,3.2049,3.2049,3.2049,3.2049,3.2049,3.2049,3.1735,3.1511,3.1511,3.1511,3.1511,3.1511,3.1511,3.1511,3.1511,3.1511,3.1511,3.1511,3.1511,3.1511,3.1511,3.1511,3.1511,3.1511,3.1511,3.1511,3.1511,3.1511,3.1511,3.1511,3.1511,3.1511,3.1511,3.1511,3.1511,2.2396,2.2365,2.2347,2.2216,2.2197,2.2053,2.1548,2.1813,2.1873,2.0844,2.1124,2.1406,2.0941,0.0,0.0,0.0,0.0,0.0,0.0,2.5054,2.5519,2.675,2.8655,3.0119,3.0733,2.9864,2.9854,3.1217,3.0242,3.0118,3.1406,3.0823,3.0477,3.0477,2.9864,2.9577,2.9577,2.8891,2.8562,2.8562,2.7914,2.76,2.76,2.76,2.76,2.76,2.76,2.7974,2.8562,2.8562,2.8951,2.9636,3.0223,3.0477,3.0552,3.1212,3.1481,3.1511,3.1511,3.1511,3.1511,3.1511,3.1511,3.1511,3.1511,3.1511,3.1645,3.2273,3.2482,3.2632,3.326,3.344,3.344,3.344,3.344,3.344,3.344,3.344,3.344,3.344,3.344,3.344,3.344,3.2348,3.1511,3.1511,3.1511,3.1511,3.1511,3.1511,3.1511,3.1511,3.1511,3.1511,3.1511,3.1511,3.1511,3.1511,3.1511,3.1511,3.1511,3.1511,3.1511,3.1511,3.1511,3.1511,3.1511,3.1511,3.1511,3.1511,3.1511,3.1511,2.2616,2.2665,2.2665,2.2389,2.2165,2.1891,2.15,2.1272,2.1043,2.067,2.0771,2.0902,2.0835,0.0,0.0,0.0,0.0,0.0,0.0,2.406,2.4853,2.5992,2.7556,2.8454,2.8297,2.91,2.9923,3.0581,3.0294,3.0485,3.1466,3.1286,3.1152,3.1152,3.0537,3.0193,3.0193,2.9131,2.8607,2.8592,2.7929,2.76,2.76,2.76,2.76,2.7615,2.8079,2.8382,2.8637,2.9071,2.9624,3.0223,3.0417,3.0776,3.1182,3.1421,3.1511,3.1511,3.1511,3.1511,3.1511,3.1511,3.1511,3.1585,3.2019,3.2153,3.2288,3.2976,3.3155,3.3215,3.344,3.3499,3.3499,3.3499,3.3499,3.3499,3.3499,3.3499,3.3499,3.3499,3.3499,3.3499,3.3499,3.3125,3.2826,3.2826,3.2826,3.2826,3.2826,3.2826,3.2826,3.2826,3.2437,3.2153,3.2153,3.175,3.1511,3.1511,3.1511,3.1511,3.1511,3.1511,3.1511,3.1511,3.1511,3.1511,3.1511,3.1511,3.1511,3.1511,3.1511,3.1511,2.2769,2.283,2.2848,2.2574,2.2359,2.2053,2.1589,2.1343,2.1204,2.0981,2.1102,2.1281,2.1458,2.1768,0.0,0.0,0.0,0.0,0.0,2.3615,2.4253,2.4769,2.6175,2.7234,2.7501,2.8311,2.9189,3.0061,2.9953,3.0328,3.1364,3.1438,3.1438,3.1511,3.1077,3.0866,3.0866,2.9804,2.928,2.9265,2.8368,2.8079,2.8304,2.7809,2.7854,2.8319,2.8502,2.8861,2.931,2.9729,3.0283,3.0866,3.0866,3.1122,3.1511,3.1511,3.1511,3.1511,3.1511,3.1511,3.1511,3.1511,3.166,3.1929,3.2363,3.2677,3.3006,3.3664,3.3874,3.3903,3.4143,3.4203,3.4203,3.4203,3.4203,3.4203,3.4203,3.4203,3.4203,3.4203,3.4203,3.4203,3.4203,3.4203,3.4053,3.3559,3.3499,3.3499,3.3499,3.3499,3.3499,3.3499,3.311,3.2766,3.2512,3.2093,3.175,3.1525,3.1511,3.1511,3.1511,3.1511,3.1511,3.1511,3.1511,3.1511,3.1511,3.1511,3.1511,3.1511,3.1511,3.1511]}]]